[[{"header":{"parameterUnit":"m.s-1","parameterCategory":1,"la1":30.6,"la2":28.766,"lo1":-90.7593,"lo2":-88.6598,"dy":0.0162,"dx":0.0183,"nx":116,"ny":114,"refTime":"2023-08-21T18:00:00:Z","depth":0,"parameterNumber":2,"parameterNumberName":"U-component_of_WINDS"},"data":[0.0,0.0,0.0,0.0,0.0,0.0,0.0,0.0,0.0,0.0,0.0,0.0,0.0,0.0,0.0,0.0,0.0,0.0,0.0,0.0,0.0,0.0,0.0,0.0,0.0,0.0,0.0,0.0,0.0,0.0,0.0,0.0,0.0,0.0,0.0,0.0,0.0,0.0,0.0,0.0,0.0,0.0,0.0,0.0,0.0,0.0,0.0,0.0,0.0,0.0,0.0,0.0,0.0,0.0,0.0,0.0,0.0,0.0,0.0,0.0,0.0,0.0,0.0,0.0,0.0,0.0,0.0,0.0,0.0,0.0,0.0,0.0,0.0,0.0,0.0,0.0,0.0,0.0,0.0,0.0,0.0,0.0,0.0,0.0,0.0,0.0,0.0,0.0,0.0,0.0,0.0,0.0,0.0,0.0,0.0,0.0,0.0,0.0,0.0,0.0,0.0,0.0,0.0,0.0,0.0,0.0,0.0,0.0,0.0,0.0,0.0,0.0,0.0,0.0,0.0,0.0,0.0,0.0,0.0,0.0,0.0,0.0,0.0,0.0,0.0,0.0,0.0,0.0,0.0,0.0,0.0,0.0,0.0,0.0,0.0,0.0,0.0,0.0,0.0,0.0,0.0,0.0,0.0,0.0,0.0,0.0,0.0,0.0,0.0,0.0,0.0,0.0,0.0,0.0,0.0,0.0,0.0,0.0,0.0,0.0,0.0,0.0,0.0,0.0,0.0,0.0,0.0,0.0,0.0,0.0,0.0,0.0,0.0,0.0,0.0,0.0,0.0,0.0,0.0,0.0,0.0,0.0,0.0,0.0,0.0,0.0,0.0,0.0,0.0,0.0,0.0,0.0,0.0,0.0,0.0,0.0,0.0,0.0,0.0,0.0,0.0,0.0,0.0,0.0,0.0,0.0,0.0,0.0,0.0,0.0,0.0,0.0,0.0,0.0,0.0,0.0,0.0,0.0,0.0,0.0,0.0,0.0,0.0,0.0,0.0,0.0,0.0,0.0,0.0,0.0,0.0,0.0,0.0,0.0,0.0,0.0,0.0,0.0,0.0,0.0,0.0,0.0,0.0,0.0,0.0,0.0,0.0,0.0,0.0,0.0,0.0,0.0,0.0,0.0,0.0,0.0,0.0,0.0,0.0,0.0,0.0,0.0,0.0,0.0,0.0,0.0,0.0,0.0,0.0,0.0,0.0,0.0,0.0,0.0,0.0,0.0,0.0,0.0,0.0,0.0,0.0,0.0,0.0,0.0,0.0,0.0,0.0,0.0,0.0,0.0,0.0,0.0,0.0,0.0,0.0,0.0,0.0,0.0,0.0,0.0,0.0,0.0,0.0,0.0,0.0,0.0,0.0,0.0,0.0,0.0,0.0,0.0,0.0,0.0,0.0,0.0,0.0,0.0,0.0,0.0,0.0,0.0,0.0,0.0,0.0,0.0,0.0,0.0,0.0,0.0,0.0,0.0,0.0,0.0,0.0,0.0,0.0,0.0,0.0,0.0,0.0,0.0,0.0,0.0,0.0,0.0,0.0,0.0,0.0,0.0,0.0,0.0,0.0,0.0,0.0,0.0,0.0,0.0,0.0,0.0,0.0,0.0,0.0,0.0,0.0,0.0,0.0,0.0,0.0,0.0,0.0,0.0,0.0,0.0,0.0,0.0,0.0,0.0,0.0,0.0,0.0,0.0,0.0,0.0,0.0,0.0,0.0,0.0,0.0,0.0,0.0,0.0,0.0,0.0,0.0,0.0,0.0,0.0,0.0,0.0,0.0,0.0,0.0,0.0,0.0,0.0,0.0,0.0,0.0,0.0,0.0,0.0,0.0,0.0,0.0,0.0,0.0,0.0,0.0,0.0,0.0,0.0,0.0,0.0,0.0,0.0,0.0,0.0,0.0,0.0,0.0,0.0,0.0,0.0,0.0,0.0,0.0,0.0,0.0,0.0,0.0,0.0,0.0,0.0,0.0,0.0,0.0,0.0,0.0,0.0,0.0,0.0,0.0,0.0,0.0,0.0,0.0,0.0,0.0,0.0,0.0,0.0,0.0,0.0,0.0,0.0,0.0,0.0,0.0,0.0,0.0,0.0,0.0,0.0,0.0,0.0,0.0,0.0,0.0,0.0,0.0,0.0,0.0,0.0,0.0,0.0,0.0,0.0,0.0,0.0,0.0,0.0,0.0,0.0,0.0,0.0,0.0,0.0,0.0,0.0,0.0,0.0,0.0,0.0,0.0,0.0,0.0,0.0,0.0,0.0,0.0,0.0,0.0,0.0,0.0,0.0,0.0,0.0,0.0,0.0,0.0,0.0,0.0,0.0,0.0,0.0,0.0,0.0,0.0,0.0,0.0,0.0,0.0,0.0,0.0,0.0,0.0,0.0,0.0,0.0,0.0,0.0,0.0,0.0,0.0,0.0,0.0,0.0,0.0,0.0,0.0,0.0,0.0,0.0,0.0,0.0,0.0,0.0,0.0,0.0,0.0,0.0,0.0,0.0,0.0,0.0,0.0,0.0,0.0,0.0,0.0,0.0,0.0,0.0,0.0,0.0,0.0,0.0,0.0,0.0,0.0,0.0,0.0,0.0,0.0,0.0,0.0,0.0,0.0,0.0,0.0,0.0,0.0,0.0,0.0,0.0,0.0,0.0,0.0,0.0,0.0,0.0,0.0,0.0,0.0,0.0,0.0,0.0,0.0,0.0,0.0,0.0,0.0,0.0,0.0,0.0,0.0,0.0,0.0,0.0,0.0,0.0,0.0,0.0,0.0,0.0,0.0,0.0,0.0,0.0,0.0,0.0,0.0,0.0,0.0,0.0,0.0,0.0,0.0,0.0,0.0,0.0,0.0,0.0,0.0,0.0,0.0,0.0,0.0,0.0,0.0,0.0,0.0,0.0,0.0,0.0,0.0,0.0,0.0,0.0,0.0,0.0,0.0,0.0,0.0,0.0,0.0,0.0,0.0,0.0,0.0,0.0,0.0,0.0,0.0,0.0,0.0,0.0,0.0,0.0,0.0,0.0,0.0,0.0,0.0,0.0,0.0,0.0,0.0,0.0,0.0,0.0,0.0,0.0,0.0,0.0,0.0,0.0,0.0,0.0,0.0,0.0,0.0,0.0,0.0,0.0,0.0,0.0,0.0,0.0,0.0,0.0,0.0,0.0,0.0,0.0,0.0,0.0,0.0,0.0,0.0,0.0,0.0,0.0,0.0,0.0,0.0,0.0,0.0,0.0,0.0,0.0,0.0,0.0,0.0,0.0,0.0,0.0,0.0,0.0,0.0,0.0,0.0,0.0,0.0,0.0,0.0,0.0,0.0,0.0,0.0,0.0,0.0,0.0,0.0,0.0,0.0,0.0,0.0,0.0,0.0,0.0,0.0,0.0,0.0,0.0,0.0,0.0,0.0,0.0,0.0,0.0,0.0,0.0,0.0,0.0,0.0,0.0,0.0,0.0,0.0,0.0,0.0,0.0,0.0,0.0,0.0,0.0,0.0,0.0,0.0,0.0,0.0,0.0,0.0,0.0,0.0,0.0,0.0,0.0,0.0,0.0,0.0,0.0,0.0,0.0,0.0,0.0,0.0,0.0,0.0,0.0,0.0,0.0,0.0,0.0,0.0,0.0,0.0,0.0,0.0,0.0,0.0,0.0,0.0,0.0,0.0,0.0,0.0,0.0,0.0,0.0,0.0,0.0,0.0,0.0,0.0,0.0,0.0,0.0,0.0,0.0,0.0,0.0,0.0,0.0,0.0,0.0,0.0,0.0,0.0,0.0,0.0,0.0,0.0,0.0,0.0,0.0,0.0,0.0,0.0,0.0,0.0,0.0,0.0,0.0,0.0,0.0,0.0,0.0,0.0,0.0,0.0,0.0,0.0,0.0,0.0,0.0,0.0,0.0,0.0,0.0,0.0,0.0,0.0,0.0,0.0,0.0,0.0,0.0,0.0,0.0,0.0,0.0,0.0,0.0,0.0,0.0,0.0,0.0,0.0,0.0,0.0,0.0,0.0,0.0,0.0,0.0,0.0,0.0,0.0,0.0,0.0,0.0,0.0,0.0,0.0,0.0,0.0,0.0,0.0,0.0,0.0,0.0,0.0,0.0,0.0,0.0,0.0,0.0,0.0,0.0,0.0,0.0,0.0,0.0,0.0,0.0,0.0,0.0,0.0,0.0,0.0,0.0,0.0,0.0,0.0,0.0,0.0,0.0,0.0,0.0,0.0,0.0,0.0,0.0,0.0,0.0,0.0,0.0,0.0,0.0,0.0,0.0,0.0,0.0,0.0,0.0,0.0,0.0,0.0,0.0,0.0,0.0,0.0,0.0,0.0,0.0,0.0,0.0,0.0,0.0,0.0,0.0,0.0,0.0,0.0,0.0,0.0,0.0,0.0,0.0,0.0,0.0,0.0,0.0,0.0,0.0,0.0,0.0,0.0,0.0,0.0,0.0,0.0,0.0,0.0,0.0,0.0,0.0,0.0,0.0,0.0,0.0,0.0,0.0,0.0,0.0,0.0,0.0,0.0,0.0,0.0,0.0,0.0,0.0,0.0,0.0,0.0,0.0,0.0,0.0,0.0,0.0,0.0,0.0,0.0,0.0,0.0,0.0,0.0,0.0,0.0,0.0,0.0,0.0,0.0,0.0,0.0,0.0,0.0,0.0,0.0,0.0,0.0,0.0,0.0,0.0,0.0,0.0,0.0,0.0,0.0,0.0,0.0,0.0,0.0,0.0,0.0,0.0,0.0,0.0,0.0,0.0,0.0,0.0,0.0,0.0,0.0,0.0,0.0,0.0,0.0,0.0,0.0,0.0,0.0,0.0,0.0,0.0,0.0,0.0,0.0,0.0,0.0,0.0,0.0,0.0,0.0,0.0,0.0,0.0,0.0,0.0,0.0,0.0,0.0,0.0,0.0,0.0,0.0,0.0,0.0,0.0,0.0,0.0,0.0,0.0,0.0,0.0,0.0,0.0,0.0,0.0,0.0,0.0,0.0,0.0,0.0,0.0,0.0,0.0,0.0,0.0,0.0,0.0,0.0,0.0,0.0,0.0,0.0,0.0,0.0,0.0,0.0,0.0,0.0,0.0,0.0,0.0,0.0,0.0,0.0,0.0,0.0,0.0,0.0,0.0,0.0,0.0,0.0,0.0,0.0,0.0,0.0,0.0,0.0,0.0,0.0,0.0,0.0,0.0,0.0,0.0,0.0,0.0,0.0,0.0,0.0,0.0,0.0,0.0,0.0,0.0,0.0,0.0,0.0,0.0,0.0,0.0,0.0,0.0,0.0,0.0,0.0,0.0,0.0,0.0,0.0,0.0,0.0,0.0,0.0,0.0,0.0,0.0,0.0,0.0,0.0,0.0,0.0,0.0,0.0,0.0,0.0,0.0,0.0,0.0,0.0,0.0,0.0,0.0,0.0,0.0,0.0,0.0,0.0,0.0,0.0,0.0,0.0,0.0,0.0,0.0,0.0,0.0,0.0,0.0,0.0,0.0,0.0,0.0,0.0,0.0,0.0,0.0,0.0,0.0,0.0,0.0,0.0,0.0,0.0,0.0,0.0,0.0,0.0,0.0,0.0,0.0,0.0,0.0,0.0,0.0,0.0,0.0,0.0,0.0,0.0,0.0,0.0,0.0,0.0,0.0,0.0,0.0,0.0,0.0,0.0,0.0,0.0,0.0,0.0,0.0,0.0,0.0,0.0,0.0,0.0,0.0,0.0,0.0,0.0,0.0,0.0,0.0,0.0,0.0,0.0,0.0,0.0,0.0,0.0,0.0,0.0,0.0,0.0,0.0,0.0,0.0,0.0,0.0,0.0,0.0,0.0,0.0,0.0,0.0,0.0,0.0,0.0,0.0,0.0,0.0,0.0,0.0,0.0,0.0,0.0,0.0,0.0,0.0,0.0,0.0,0.0,0.0,0.0,0.0,0.0,0.0,0.0,0.0,0.0,0.0,0.0,0.0,0.0,0.0,0.0,0.0,0.0,0.0,0.0,0.0,0.0,0.0,0.0,0.0,0.0,0.0,0.0,0.0,0.0,0.0,0.0,0.0,0.0,0.0,0.0,0.0,0.0,0.0,0.0,0.0,0.0,0.0,0.0,0.0,0.0,0.0,2.1321,0.0,0.0,0.0,0.0,0.0,0.0,0.0,0.0,0.0,0.0,0.0,0.0,0.0,0.0,0.0,0.0,0.0,0.0,0.0,0.0,0.0,0.0,0.0,0.0,0.0,0.0,0.0,0.0,0.0,0.0,0.0,0.0,0.0,0.0,0.0,0.0,0.0,0.0,0.0,2.1455,2.1589,2.1869,2.2129,2.2108,2.1884,0.0,0.0,0.0,0.0,0.0,0.0,0.0,0.0,0.0,0.0,0.0,0.0,0.0,0.0,0.0,0.0,0.0,0.0,0.0,0.0,0.0,0.0,0.0,0.0,0.0,0.0,0.0,0.0,0.0,0.0,0.0,0.0,0.0,0.0,0.0,0.0,0.0,0.0,0.0,0.0,0.0,0.0,0.0,0.0,0.0,0.0,0.0,0.0,0.0,0.0,0.0,0.0,0.0,0.0,0.0,0.0,0.0,0.0,0.0,0.0,0.0,0.0,0.0,0.0,0.0,0.0,0.0,0.0,0.0,0.0,0.0,2.2848,0.0,0.0,0.0,0.0,0.0,0.0,0.0,0.0,0.0,0.0,0.0,0.0,0.0,0.0,0.0,0.0,0.0,0.0,0.0,0.0,0.0,0.0,0.0,0.0,2.1664,2.1738,2.1882,2.2044,0.0,0.0,0.0,0.0,0.0,0.0,0.0,0.0,0.0,2.2535,2.1669,2.189,2.3226,2.3836,2.3957,2.3601,2.3144,0.0,0.0,0.0,0.0,0.0,0.0,0.0,0.0,0.0,0.0,0.0,0.0,0.0,0.0,0.0,0.0,0.0,0.0,0.0,0.0,0.0,0.0,0.0,0.0,0.0,0.0,0.0,0.0,0.0,0.0,0.0,0.0,0.0,0.0,0.0,0.0,0.0,0.0,0.0,0.0,0.0,0.0,0.0,0.0,0.0,0.0,0.0,0.0,0.0,0.0,0.0,0.0,0.0,0.0,0.0,0.0,0.0,0.0,0.0,0.0,0.0,0.0,0.0,2.6435,2.6832,2.804,2.7356,2.7337,2.7753,2.6075,2.5293,2.509,2.4402,0.0,0.0,0.0,0.0,0.0,0.0,0.0,0.0,0.0,0.0,0.0,0.0,0.0,0.0,0.0,0.0,0.0,0.0,0.0,0.0,0.0,2.0854,2.1811,2.194,2.1998,2.2073,0.0,0.0,0.0,0.0,0.0,0.0,0.0,2.3143,2.3072,2.233,2.2125,2.314,2.5245,2.5399,2.6098,2.7238,2.5531,2.53,2.6242,0.0,0.0,0.0,0.0,0.0,0.0,0.0,0.0,0.0,0.0,0.0,0.0,0.0,0.0,0.0,0.0,0.0,0.0,0.0,0.0,0.0,0.0,0.0,0.0,0.0,0.0,0.0,0.0,0.0,0.0,0.0,0.0,0.0,0.0,0.0,0.0,0.0,0.0,0.0,0.0,0.0,2.2186,2.2147,0.0,0.0,0.0,0.0,0.0,0.0,0.0,0.0,0.0,0.0,0.0,0.0,0.0,2.6176,2.7299,2.8792,2.9866,3.0543,3.0775,3.0976,3.1116,3.0836,3.0747,3.0814,3.0504,0.0,2.5837,2.6327,0.0,0.0,0.0,0.0,0.0,0.0,0.0,0.0,0.0,0.0,0.0,0.0,0.0,0.0,0.0,0.0,0.0,0.0,0.0,0.0,0.0,2.1293,2.2295,2.2894,2.4116,2.4328,2.3107,2.419,0.0,0.0,0.0,2.273,2.314,2.3577,2.3755,2.3712,2.4386,2.5287,2.6397,2.7272,2.8255,2.9263,2.8955,2.8481,2.7979,2.8042,0.0,0.0,0.0,0.0,0.0,0.0,0.0,0.0,0.0,0.0,0.0,0.0,0.0,0.0,0.0,0.0,0.0,0.0,0.0,0.0,0.0,0.0,0.0,0.0,0.0,0.0,0.0,0.0,0.0,0.0,0.0,0.0,0.0,0.0,0.0,0.0,0.0,0.0,0.0,2.305,2.3364,2.264,2.2701,2.2776,0.0,0.0,0.0,0.0,0.0,0.0,0.0,0.0,0.0,2.6952,2.7682,2.8441,2.9234,3.0265,3.1131,3.178,3.2029,3.2363,3.2769,3.2656,3.2798,3.3223,3.3474,3.2463,3.056,2.9211,2.7803,2.6528,0.0,0.0,0.0,0.0,2.6655,2.7046,0.0,0.0,0.0,0.0,0.0,0.0,0.0,0.0,0.0,0.0,0.0,0.0,2.091,2.2276,2.3466,2.4228,2.5933,2.6266,2.4603,2.5518,0.0,0.0,0.0,2.3146,2.363,2.3833,2.4459,2.5625,2.646,2.7338,2.8247,2.9528,3.0624,3.1549,3.2449,3.1966,3.0377,3.0448,3.0016,2.9237,0.0,0.0,0.0,0.0,0.0,0.0,0.0,0.0,0.0,0.0,0.0,0.0,0.0,0.0,0.0,0.0,0.0,0.0,0.0,0.0,0.0,0.0,0.0,0.0,0.0,0.0,0.0,0.0,0.0,0.0,0.0,0.0,0.0,0.0,0.0,0.0,0.0,2.4361,2.4825,2.3386,2.4132,2.4536,0.0,0.0,0.0,0.0,0.0,0.0,2.7004,2.7334,2.8317,3.0108,3.0576,3.1133,3.1811,3.2324,3.2942,3.3651,3.3694,3.4058,3.466,3.4566,3.481,3.5368,3.5778,3.5664,3.5053,3.2256,3.0527,2.9644,2.9401,2.8839,2.8288,2.9082,2.9769,3.043,0.0,0.0,0.0,0.0,0.0,0.0,0.0,0.0,0.0,0.0,0.0,2.1039,2.1087,2.3876,2.5793,2.5952,2.6367,2.6674,2.6821,2.5209,2.4211,2.4125,2.4125,2.398,2.3704,2.4239,2.5644,2.7846,2.751,2.879,3.1581,3.2337,3.3448,3.478,3.5663,3.5135,3.3562,3.3554,3.3117,3.2225,3.0386,0.0,0.0,0.0,0.0,0.0,0.0,0.0,0.0,0.0,0.0,0.0,0.0,0.0,0.0,0.0,0.0,0.0,0.0,0.0,0.0,0.0,0.0,0.0,0.0,0.0,0.0,0.0,0.0,0.0,0.0,0.0,0.0,0.0,0.0,0.0,0.0,0.0,0.0,2.4527,2.6493,0.0,0.0,0.0,0.0,2.633,2.8399,2.9888,3.042,3.165,3.2882,3.4064,3.4261,3.4928,3.6152,3.648,3.6932,3.7618,3.7475,3.7427,3.7477,3.7364,3.7332,3.7366,3.735,3.7465,3.7343,3.5226,3.3321,3.1688,3.1167,3.0707,3.0414,3.0975,3.1643,3.2221,0.0,0.0,0.0,0.0,0.0,0.0,0.0,0.0,1.9906,2.0767,2.1292,2.2226,2.3809,2.5333,2.6844,2.8347,2.935,2.9261,2.7861,2.7539,2.6572,2.4791,2.4554,2.4837,2.5681,2.6873,2.835,3.0096,3.1165,3.2512,3.4202,3.4917,3.5829,3.6966,3.7031,3.7203,3.7303,3.5638,3.4432,3.3491,3.1585,3.0309,0.0,0.0,0.0,0.0,0.0,0.0,0.0,0.0,0.0,0.0,0.0,0.0,0.0,0.0,0.0,0.0,0.0,0.0,0.0,0.0,0.0,0.0,0.0,0.0,0.0,0.0,0.0,0.0,0.0,0.0,0.0,0.0,0.0,0.0,0.0,0.0,0.0,2.7327,2.9661,0.0,2.9831,3.0208,3.0577,3.0697,3.1738,3.2865,3.3898,3.4438,3.5317,3.6608,3.6612,3.6801,3.7275,3.7275,3.741,3.7648,3.7582,3.755,3.7567,3.7419,3.7603,3.8087,3.8019,3.8234,3.8653,3.7485,3.6282,3.505,3.4433,3.409,3.3984,3.4177,3.468,3.5328,0.0,0.0,0.0,0.0,0.0,0.0,0.0,0.0,2.0337,2.1401,2.1938,2.3096,2.5462,2.6844,2.8433,3.0477,3.148,3.1207,2.9434,2.8847,2.764,2.5527,2.5426,2.6051,2.7402,2.9217,3.0828,3.2354,3.4034,3.5452,3.6555,3.6826,3.7719,3.9005,3.8887,3.9471,4.049,3.8955,3.7253,3.5393,3.3769,3.2634,3.1578,0.0,0.0,0.0,0.0,0.0,0.0,0.0,0.0,0.0,0.0,0.0,0.0,0.0,0.0,0.0,0.0,0.0,0.0,0.0,0.0,0.0,0.0,0.0,0.0,0.0,0.0,0.0,0.0,0.0,0.0,0.0,0.0,0.0,0.0,0.0,3.1227,2.9829,3.2344,3.3812,3.2726,3.3476,3.4062,3.4144,3.4779,3.5717,3.6966,3.7175,3.7732,3.869,3.8724,3.8556,3.8304,3.8288,3.8221,3.8221,3.8221,3.8238,3.8254,3.8154,3.8353,3.8855,3.8768,3.8983,3.9382,3.9004,3.8472,3.7753,3.6847,3.6503,3.6503,3.6559,3.7053,3.7733,0.0,0.0,0.0,0.0,0.0,0.0,0.0,1.9505,2.0208,2.0798,2.2011,2.3664,2.5835,2.8436,3.0658,3.2327,3.2446,3.2168,3.153,2.8915,2.7064,2.638,2.6825,2.7644,2.879,3.1049,3.2984,3.4479,3.5966,3.7374,3.869,3.8231,3.9063,4.0959,4.1338,4.2038,4.2996,4.344,4.1579,3.8248,3.7041,3.5847,3.4339,0.0,0.0,0.0,0.0,0.0,0.0,0.0,0.0,0.0,0.0,0.0,0.0,0.0,0.0,0.0,0.0,0.0,0.0,0.0,0.0,0.0,0.0,0.0,0.0,0.0,0.0,0.0,0.0,0.0,0.0,0.0,0.0,0.0,2.954,3.1703,3.2964,3.2061,3.4539,3.5685,3.4045,3.5509,3.6544,3.6561,3.7586,3.8612,3.9451,3.9929,4.0232,4.0415,4.0579,4.03,3.9568,3.9675,3.9711,3.9711,3.9677,3.9677,3.9677,3.9677,3.9677,3.9677,3.9677,3.9677,3.9677,3.9677,3.9677,3.9543,3.827,3.7764,3.7812,3.8001,3.8571,3.9313,0.0,0.0,0.0,0.0,0.0,0.0,0.0,1.9142,2.0146,2.0602,2.2422,2.4563,2.6948,2.8726,3.0814,3.3629,3.1781,3.0684,3.1257,2.8605,2.7113,2.731,2.8665,2.9985,3.1269,3.4037,3.5794,3.6602,3.8003,3.9347,4.0629,4.086,4.1795,4.3283,4.2458,4.2757,4.3838,4.2496,4.1861,4.1564,3.9181,3.7784,3.6742,0.0,0.0,0.0,0.0,0.0,0.0,0.0,0.0,0.0,0.0,0.0,0.0,0.0,0.0,0.0,0.0,0.0,0.0,0.0,0.0,0.0,0.0,0.0,0.0,0.0,0.0,0.0,0.0,0.0,0.0,0.0,3.0708,3.2131,3.1506,3.4063,3.5887,3.5626,3.727,3.8284,3.7803,3.8805,3.9489,3.9577,4.0394,4.0959,4.1214,4.1321,4.1438,4.1493,4.1493,4.1464,4.1247,4.0766,4.0445,4.0338,3.9804,3.9484,3.9432,3.9432,3.9432,3.9432,3.9432,3.9432,3.9432,3.9432,3.9432,3.9382,3.9345,3.9328,3.9429,3.9511,3.9647,3.9915,0.0,0.0,0.0,0.0,0.0,0.0,0.0,1.9252,2.0146,2.0618,2.2394,2.4467,2.6753,2.8001,2.9798,3.2433,3.0817,2.9805,3.0171,2.8351,2.762,2.8481,3.0364,3.2171,3.3752,3.6577,3.8304,3.8825,4.0311,4.1587,4.2671,4.2448,4.3308,4.506,4.4128,4.4621,4.6042,4.4609,4.4536,4.511,4.2402,4.073,3.9541,3.6053,3.5162,3.5394,3.2179,3.1039,3.0785,2.885,0.0,0.0,0.0,0.0,0.0,0.0,0.0,0.0,0.0,0.0,0.0,0.0,0.0,0.0,0.0,0.0,0.0,0.0,0.0,0.0,0.0,0.0,0.0,0.0,3.2747,3.4326,3.5148,3.6587,3.7816,3.8517,3.903,3.9574,4.0296,4.0534,4.0733,4.1143,4.1433,4.1743,4.2116,4.2076,4.2076,4.2132,4.2132,4.1982,4.1666,4.1288,4.0883,4.06,4.0113,3.9731,3.9484,3.9432,3.9379,3.9412,3.9711,3.9624,3.9305,3.9603,3.9553,0.0,0.0,0.0,0.0,0.0,4.0037,4.007,0.0,0.0,0.0,0.0,0.0,0.0,0.0,1.9409,2.0081,2.0621,2.2049,2.3697,2.5566,2.6677,2.8045,2.9962,2.9573,2.9059,2.8656,2.8115,2.8444,2.9809,3.2122,3.4266,3.612,3.867,4.0279,4.0879,4.2238,4.344,4.4404,4.3357,4.4073,4.6268,4.5784,4.6697,4.8547,4.7742,4.7725,4.8036,4.5617,4.3914,4.253,3.9494,3.8885,3.9089,3.527,3.3801,3.3356,3.1149,0.0,0.0,0.0,0.0,0.0,0.0,0.0,0.0,0.0,0.0,0.0,0.0,0.0,0.0,0.0,0.0,0.0,0.0,0.0,0.0,0.0,0.0,0.0,0.0,3.4767,3.6554,3.9351,3.9046,3.9076,4.0642,4.0064,4.0143,4.166,4.1238,4.1078,4.1727,4.165,4.1956,4.2734,0.0,0.0,0.0,0.0,4.2452,4.1789,4.1541,4.1166,4.0733,4.0403,4.0113,3.9811,3.9654,3.9668,3.9768,4.038,4.0242,3.9553,4.0204,4.0005,3.9379,3.9484,3.9551,3.9654,3.9831,3.9951,4.0019,0.0,0.0,0.0,0.0,0.0,0.0,0.0,1.8661,1.9393,1.9925,2.1782,2.339,2.4223,2.5192,2.6749,2.9066,2.7783,2.7058,2.7504,2.8188,2.9445,3.1457,3.4257,3.6299,3.7585,3.9521,4.0834,4.1456,4.1478,4.2312,4.3922,4.3842,4.4794,4.6564,4.5851,4.6397,4.7793,4.6069,4.6009,4.6811,4.5351,4.516,4.5395,4.236,4.2278,4.3347,4.0341,3.9089,3.8507,3.6528,3.4922,3.3528,3.2368,3.0368,0.0,0.0,0.0,0.0,0.0,0.0,0.0,0.0,0.0,0.0,0.0,0.0,0.0,0.0,0.0,0.0,0.0,0.0,0.0,3.5939,3.758,3.9201,4.1059,4.079,4.0581,4.1047,4.1021,4.111,4.1335,4.1839,4.217,4.2303,4.3396,4.4108,4.4257,4.4821,4.5152,4.5152,4.4572,4.4191,4.4042,4.2303,4.1432,4.1483,0.0,0.0,4.0438,4.0275,4.0519,4.1067,4.116,4.1127,4.0961,4.0657,4.0204,3.9625,3.9625,3.9993,4.0514,4.0068,4.0288,4.0725,0.0,0.0,0.0,0.0,0.0,0.0,0.0,1.901,1.9743,2.0353,2.1741,2.2732,2.2976,2.3738,2.4954,2.67,2.6348,2.6488,2.7476,2.8706,3.0539,3.302,3.5343,3.707,3.8234,3.9876,4.1026,4.1572,4.1899,4.293,4.461,4.4541,4.5236,4.654,4.6221,4.6985,4.8413,4.6717,4.6733,4.783,4.6553,4.6503,4.7012,4.4754,4.4201,4.4491,4.3053,4.1921,4.0853,3.9413,3.8101,3.6861,3.6003,3.417,3.197,0.0,0.0,0.0,0.0,0.0,0.0,0.0,0.0,0.0,0.0,0.0,0.0,0.0,0.0,3.2038,3.2579,0.0,3.5974,3.8254,3.9268,4.0415,4.2425,4.2444,4.2137,4.1791,4.1428,4.1626,4.273,4.2947,4.338,4.4108,4.4821,4.5235,4.5235,4.5582,4.5798,4.5798,4.5433,4.5052,4.4688,4.3595,4.2759,4.2216,4.1299,4.1023,4.1259,4.1095,4.1239,4.1587,4.192,4.1797,4.1392,4.11,4.0646,4.0141,4.0141,4.0374,4.0658,4.0433,4.0534,4.0766,0.0,0.0,0.0,0.0,0.0,0.0,0.0,1.9597,2.0302,2.1023,2.1632,2.1969,2.1919,2.2449,2.3262,2.4468,2.537,2.6493,2.8013,2.9528,3.1531,3.4137,3.5889,3.7265,3.8219,3.9495,4.0524,4.1382,4.2075,4.3256,4.4801,4.4491,4.4898,4.5872,4.6073,4.7079,4.8613,4.7531,4.7748,4.8663,4.7583,4.7403,4.767,4.6403,4.5624,4.5101,4.4609,4.3387,4.1835,4.1065,4.0119,3.9205,3.8946,3.7432,3.5205,3.2397,3.1215,0.0,0.0,0.0,0.0,0.0,0.0,0.0,0.0,3.0043,3.0636,3.2075,3.3933,3.5505,3.6288,3.7618,3.9143,4.0783,4.1082,4.1791,4.3734,4.3922,4.3647,4.2966,4.2298,4.2686,4.457,4.4329,4.4522,4.5698,4.5914,4.6013,4.6013,4.6146,4.6228,4.6228,4.6079,4.5715,4.5119,4.4821,4.4152,4.3148,4.2858,4.2617,4.2484,4.2199,4.2159,4.2309,4.2708,4.2401,4.168,4.168,4.1338,4.0855,4.0704,4.0738,4.0838,4.0645,4.0675,4.0783,0.0,0.0,0.0,0.0,0.0,0.0,0.0,0.0,2.0395,2.1023,2.1231,2.1311,2.1215,2.1503,2.2326,2.3935,2.504,2.6513,2.864,3.0648,3.2497,3.4037,3.6133,3.7319,3.7449,3.7611,3.8658,4.072,4.0381,4.1045,4.2615,4.2206,4.2712,4.4002,4.4218,4.5117,4.6445,4.6631,4.677,4.6888,4.6909,4.6941,4.6989,4.6496,4.6872,4.7335,4.5559,4.3719,4.2141,4.1951,4.1198,4.0514,4.135,3.9756,3.723,3.562,3.201,2.8345,2.7414,2.7526,2.8471,3.0818,3.1156,3.2487,0.0,3.8605,3.8203,4.0591,4.1756,4.2278,4.1893,4.2774,4.3713,4.4278,4.4632,4.5019,4.5233,4.5156,4.5077,4.5011,4.5164,4.5338,4.5649,4.5599,4.5616,4.5781,4.6411,4.6775,4.6775,4.7404,4.7752,4.7752,4.7123,4.6742,4.6643,4.5334,4.4666,4.462,4.3853,4.3853,4.4564,4.3737,4.3727,4.4351,4.3744,4.3123,4.2542,4.2542,4.2239,4.172,4.1174,4.1255,4.1565,4.0154,4.0467,4.1416,0.0,0.0,0.0,0.0,0.0,0.0,0.0,0.0,0.0,2.1054,2.1262,2.1325,2.1294,2.2151,2.3014,2.377,2.4919,2.6724,2.9355,3.0916,3.2739,3.4973,3.6389,3.7297,3.7678,3.791,3.8837,4.0526,4.0467,4.1166,4.2553,4.2248,4.303,4.4723,4.4537,4.5304,4.6876,4.6582,4.6512,4.6582,4.6668,4.6598,4.6324,4.5368,4.5106,4.5085,4.3722,4.2139,0.0,4.0509,4.0355,4.0246,4.0968,3.9866,3.7759,3.5037,3.287,3.1394,3.1328,3.1885,3.2719,3.4084,3.5847,3.7836,4.0111,4.0713,4.1203,4.2745,4.4021,4.4723,4.4397,4.4789,4.5261,4.5374,4.5228,4.531,4.5913,4.5995,4.5995,4.6189,4.6364,4.6444,4.6333,4.638,4.6609,4.704,4.7371,4.7537,4.7537,4.8249,4.8647,4.8647,4.8349,4.7968,4.7537,4.6493,4.5827,4.5396,4.5019,4.5036,4.5379,4.5019,4.5052,4.5317,4.5019,4.4517,4.3879,4.3879,4.3257,4.2361,4.2116,4.2395,4.2756,4.0925,4.0588,4.0983,0.0,0.0,0.0,0.0,0.0,0.0,0.0,0.0,0.0,0.0,2.1079,2.1205,2.1432,2.2573,2.3422,2.3686,2.4688,2.6519,2.9225,3.0451,3.2223,3.483,3.5853,3.682,3.7686,3.7762,3.857,4.024,4.0204,4.0864,4.2173,4.2165,4.3047,4.4706,4.4579,4.5389,4.6926,4.631,4.6271,4.6573,4.6452,4.6023,4.5262,4.3918,4.2937,4.2189,4.1342,4.0066,3.8667,3.8333,3.8344,3.8555,3.9123,3.8505,3.7042,3.4349,3.3239,3.3028,3.3502,3.4169,3.5149,3.7084,3.9889,4.2204,4.2195,4.301,4.4072,4.5,4.6147,4.6823,4.6419,4.6678,4.6892,4.654,4.612,4.6108,4.6897,4.6701,4.6569,4.6763,4.6662,4.6546,4.6482,4.6728,4.7206,4.7934,4.8001,4.8001,4.8001,4.8514,4.8796,4.8729,4.8729,4.8464,4.7935,4.7389,4.686,4.6411,4.6411,4.6411,4.6394,4.6195,4.598,4.5798,4.5798,4.5483,4.4986,4.4986,4.4417,4.3539,4.3124,4.3348,4.3581,4.1782,4.1126,4.1061,0.0,0.0,0.0,0.0,0.0,0.0,0.0,0.0,0.0,0.0,0.0,0.0,0.0,2.2212,2.2932,2.3637,2.4337,2.5635,2.7834,2.9258,3.0833,3.2638,3.4094,3.5562,3.6999,3.636,3.7157,3.9508,3.8877,3.9247,4.0608,4.1263,4.2027,4.269,4.3515,4.4701,4.5972,4.5677,4.5919,4.6485,4.6029,4.5025,4.3648,4.2423,4.1087,3.9736,3.8959,3.7735,3.6421,3.5752,3.5197,3.495,3.5975,3.5609,3.467,3.4435,3.2766,3.1216,3.2174,3.2208,3.3425,3.9614,4.2374,4.4256,4.6848,4.7507,4.7968,4.9434,4.9828,4.9621,4.8629,4.9245,4.9604,4.8421,4.8299,4.842,4.8436,4.7358,4.6617,4.6601,4.6024,4.5659,4.5831,4.6477,4.7206,4.7934,4.8001,4.8001,4.8001,4.8017,4.7952,4.7737,4.7737,4.7721,4.7704,4.7688,4.7737,4.7934,4.7934,4.7934,4.7918,4.7189,4.6477,4.5798,4.5798,4.5781,4.5765,4.5765,4.5732,4.5549,4.4288,4.3814,4.3648,4.2351,4.2082,4.2211,0.0,0.0,0.0,0.0,0.0,0.0,0.0,0.0,0.0,0.0,0.0,0.0,0.0,0.0,0.0,0.0,2.372,2.4961,2.723,2.8657,3.0065,3.1558,3.3705,3.5186,3.5781,3.631,3.7328,3.8846,3.8616,3.897,3.9862,4.0108,4.1078,4.2667,4.2906,4.4106,4.5914,4.5325,4.5828,4.6809,4.5305,4.4865,4.4685,4.148,3.9971,3.9237,0.0,3.5344,3.4767,3.4078,3.3705,3.3609,3.3922,3.3441,3.2561,3.1741,3.1805,3.2611,3.4561,3.6922,3.9578,4.2883,4.5082,4.7062,4.9264,4.941,4.9402,5.0558,4.8714,4.6898,4.7039,4.5826,4.5121,4.6009,4.6531,4.7004,4.7765,4.7471,4.6865,4.5991,4.5678,4.5395,4.5102,4.5686,0.0,4.7222,4.7572,4.7985,4.848,4.8975,4.9238,4.917,4.8827,4.8663,4.8663,4.8167,4.7935,4.8001,4.8001,4.8001,4.7984,4.7736,4.7487,4.7255,4.7255,4.6974,4.6527,4.6527,4.6228,4.5748,4.5313,4.5412,4.5678,4.4261,4.4119,4.4367,0.0,0.0,0.0,0.0,0.0,0.0,0.0,0.0,0.0,0.0,0.0,0.0,0.0,0.0,0.0,0.0,0.0,2.4098,2.5773,2.6951,2.8314,2.9929,3.1816,3.343,3.4705,3.5165,3.6068,3.7406,3.7049,3.728,3.8255,3.8373,3.9404,4.1209,4.1643,4.2947,4.4787,4.4424,4.4725,4.5325,4.3961,4.3195,4.2576,3.9859,3.847,0.0,3.5053,3.3923,3.3484,3.2782,3.2311,3.2052,3.196,3.1898,3.1817,3.1397,3.2692,3.4945,3.7864,4.0421,4.3017,4.6205,4.8042,4.9426,5.0848,5.0747,5.0268,5.0397,4.7636,4.5112,4.4877,4.3007,4.1884,4.3167,4.3718,4.4545,4.6222,4.5978,4.5652,4.5522,4.5571,4.5437,4.4983,4.545,0.0,4.673,4.7309,4.7868,4.8329,4.8806,4.9,4.8915,4.8676,4.8513,4.8513,4.8101,4.7935,4.8001,4.8001,4.8001,4.8001,4.8001,4.7935,4.7935,4.8001,4.7654,4.7224,4.7289,4.7007,4.656,4.6295,4.6477,4.6742,4.5578,4.549,4.5524,0.0,0.0,0.0,0.0,0.0,0.0,0.0,0.0,0.0,0.0,0.0,0.0,0.0,0.0,0.0,0.0,0.0,0.0,2.3637,2.446,2.579,2.7758,2.8657,3.0526,3.3609,3.3012,3.3566,3.5371,3.4337,3.4544,3.5915,3.6259,3.7093,3.8435,3.9776,4.1148,4.2412,4.288,4.2761,4.2181,4.2027,4.0318,3.787,3.7682,3.6702,3.5279,3.4369,3.3511,3.263,3.1847,3.116,3.0589,3.0461,3.1295,3.2508,3.3466,3.5416,3.8042,4.173,4.2614,4.3867,4.9325,5.0843,5.1113,5.1685,5.1311,5.0477,4.8941,4.6532,4.4186,4.2222,4.0903,4.0096,4.0204,4.0397,4.151,4.4216,4.3476,4.3379,4.5343,4.5769,4.5729,4.5407,4.5816,0.0,4.6536,0.0,4.7486,4.7519,4.7535,4.7452,4.7232,4.7419,4.7486,4.7486,4.7654,4.7787,4.8001,4.8001,4.8001,4.8001,4.8001,4.7853,4.7704,4.7853,4.7853,4.7704,4.7935,4.8001,4.7934,4.7222,4.6957,4.6874,4.6317,4.6112,4.5829,0.0,0.0,0.0,0.0,0.0,0.0,0.0,0.0,0.0,0.0,0.0,0.0,0.0,0.0,0.0,0.0,0.0,0.0,2.3059,2.4365,2.5291,2.5658,2.8036,2.9753,3.0741,3.1737,3.2821,3.398,3.3805,3.4117,3.4865,3.4944,3.5439,3.6337,3.7723,3.8872,3.9834,4.0483,4.1262,4.1963,4.0459,3.9941,3.9886,3.7736,3.6966,3.6787,3.5449,3.443,3.3544,3.2663,3.2846,3.3385,3.3289,3.4136,3.548,3.6996,3.9129,4.148,4.3557,4.5757,4.7775,4.9225,4.9528,4.9626,5.0263,4.9149,4.7479,4.6008,4.2455,3.9129,3.7684,3.6979,3.7233,3.9311,4.1421,4.3572,4.5587,4.6003,4.6201,4.6271,4.6948,4.6994,4.6159,4.6566,4.6694,0.0,4.6859,4.7496,4.7985,4.8017,4.8017,4.7948,4.7664,4.7486,4.7486,4.7537,4.7604,4.762,4.762,4.762,4.762,4.762,4.7604,4.7537,4.762,4.7671,4.7704,4.7787,4.7853,4.7984,4.7785,4.7719,4.7703,4.7568,4.7502,4.7336,0.0,0.0,0.0,0.0,0.0,0.0,0.0,0.0,0.0,0.0,0.0,0.0,0.0,0.0,0.0,0.0,0.0,0.0,0.0,2.3298,2.3865,2.4132,2.6094,2.7566,2.8279,2.9502,3.051,3.1359,3.1621,3.2045,3.2595,3.2802,3.339,3.4361,3.5463,3.6382,3.7183,3.8133,3.8651,0.0,0.0,3.7488,3.7281,3.5744,3.5507,3.588,3.4755,3.4442,3.4525,3.4018,3.4137,3.4716,3.5687,3.6803,3.8171,4.044,4.252,4.4452,4.6124,4.8352,5.0274,5.0274,5.0213,4.9833,4.852,4.7093,4.5112,4.1746,3.8473,3.5641,3.3693,3.3805,3.46,3.5982,3.9102,4.1983,4.3743,4.5136,4.6054,4.6405,4.7187,4.7461,4.6775,4.7066,4.7147,0.0,4.6929,4.7225,4.7582,4.7598,4.7598,4.7598,4.7447,4.7403,4.7486,4.7486,4.7486,4.7486,4.7486,4.7486,4.7486,4.7486,4.747,4.7403,0.0,4.7386,4.7488,4.716,4.7111,4.7292,4.6962,4.6847,4.6847,4.6847,4.6847,4.6781,0.0,0.0,0.0,0.0,0.0,0.0,0.0,0.0,0.0,0.0,0.0,0.0,0.0,0.0,0.0,0.0,0.0,0.0,0.0,0.0,2.2404,2.316,2.3995,2.5007,2.6337,2.7093,2.7813,2.8473,2.8959,2.951,3.0194,3.0544,3.1375,3.2626,3.3291,3.4005,3.4772,3.5876,3.5613,3.4535,3.511,3.4425,3.3117,0.0,3.3664,3.4181,3.351,3.4071,3.5215,3.5402,3.5577,3.6014,3.81,3.961,4.1134,4.3846,4.5578,4.6925,4.8659,5.0365,5.1644,5.1517,5.1437,5.0445,4.6733,4.5101,4.2757,3.7065,3.4802,3.3049,3.0307,3.1214,3.2426,3.2582,3.5875,3.9094,4.1039,4.3067,4.4825,4.6056,4.7038,4.7545,4.7421,4.7469,4.759,4.7709,4.7335,4.7098,4.7168,4.7168,4.7237,4.729,4.7482,4.7652,4.7735,4.7586,4.7537,4.7403,4.7403,4.7403,4.7403,4.7403,4.7335,4.7183,4.7098,4.7183,4.7118,4.6401,4.6158,4.6307,4.557,4.5291,4.5291,4.5291,4.5291,4.5291,0.0,0.0,0.0,0.0,0.0,0.0,0.0,0.0,0.0,0.0,1.9538,2.0727,0.0,0.0,0.0,0.0,0.0,0.0,0.0,0.0,0.0,2.3177,2.4025,2.482,2.5564,2.6472,2.7232,2.7847,2.8589,2.9311,3.0034,3.0113,3.0633,3.1571,3.2135,3.2622,3.3085,3.3717,3.3955,3.3871,3.3922,3.3811,3.3539,3.3431,0.0,0.0,3.4223,3.4113,3.4329,3.5986,3.8472,4.0926,4.1466,4.3444,4.5729,4.6973,4.7929,4.8691,4.9457,5.0735,5.1704,5.0987,5.0317,4.8957,4.5368,4.2537,3.9275,3.4165,3.1972,3.0275,2.8116,2.9262,3.1507,3.4313,3.6747,3.9393,4.251,4.4551,4.5794,4.6231,4.7499,4.8189,4.7916,4.8168,4.8118,0.0,4.7983,4.8224,4.8353,4.8569,4.8909,4.9554,4.954,4.9304,4.8845,4.815,4.7522,4.703,4.703,4.703,4.703,4.703,4.6961,4.6945,4.6807,0.0,4.7118,4.6234,4.6092,4.6307,4.557,4.5291,4.5291,4.5291,4.5291,4.5291,0.0,0.0,0.0,0.0,0.0,0.0,0.0,1.8142,1.8499,1.9339,1.9765,2.0251,2.0956,2.203,2.2685,0.0,0.0,0.0,0.0,0.0,0.0,0.0,0.0,0.0,2.4516,2.5763,2.6548,2.6759,0.0,2.8694,2.9016,2.9813,3.0449,3.0919,3.1555,3.1974,3.2259,3.2483,3.262,3.2775,3.2694,3.2694,3.2715,0.0,0.0,0.0,3.437,3.4798,3.5432,3.6217,3.8982,4.2285,4.3288,4.5005,4.6957,4.8627,4.9192,4.9447,5.0322,5.1274,5.1888,5.1134,5.0267,4.8285,4.3428,4.0079,3.6506,3.1053,2.921,2.8091,2.6427,2.8144,3.0386,3.2278,3.4999,3.7923,4.0871,4.3258,4.4994,4.5865,4.6881,4.7622,4.8022,4.7786,4.7856,4.8477,4.9151,4.9458,4.9141,4.9329,4.9393,4.9438,4.9468,4.911,4.8497,4.8067,4.7572,4.6876,4.6876,4.6876,4.6876,4.6876,4.6876,4.6876,4.6668,0.0,4.6965,4.6063,4.5629,4.5489,4.4772,4.4235,4.3909,4.3909,4.4154,4.4414,0.0,0.0,0.0,0.0,0.0,0.0,0.0,1.8351,1.886,2.0302,2.0199,2.0185,2.0643,2.1749,2.2432,0.0,0.0,0.0,0.0,0.0,0.0,0.0,0.0,0.0,0.0,0.0,0.0,2.5675,2.7209,0.0,0.0,0.0,0.0,0.0,3.1328,3.1765,3.1984,3.1893,3.1893,0.0,0.0,3.1856,0.0,0.0,0.0,0.0,0.0,3.4834,3.5778,3.569,3.7875,4.0871,4.2666,4.4706,4.6681,4.853,4.9143,4.947,5.0639,5.1556,5.1993,5.1151,5.0203,4.7865,4.1748,3.8297,3.4759,2.8854,2.7336,2.6649,2.5385,2.7029,2.8914,2.9753,3.2549,3.5641,3.8634,4.1336,4.3633,4.5255,4.5987,4.6787,4.7712,4.7331,4.7557,4.8895,5.0245,5.073,5.0146,5.0357,5.0299,4.9875,4.9657,4.9311,4.8852,4.8358,4.777,4.7066,4.6876,4.6807,4.6738,4.6823,4.6823,4.6807,4.6668,4.6738,0.0,4.5927,4.5301,4.4739,4.4156,4.3492,4.2877,4.3039,4.346,4.3864,0.0,0.0,0.0,0.0,0.0,0.0,0.0,1.8526,1.8865,1.9671,2.0469,2.0975,2.0955,2.0965,2.0985,0.0,0.0,0.0,0.0,0.0,0.0,0.0,0.0,0.0,0.0,0.0,0.0,2.4991,2.6485,0.0,0.0,0.0,0.0,0.0,0.0,3.1982,3.2354,3.2161,0.0,0.0,0.0,0.0,0.0,0.0,0.0,0.0,0.0,3.2774,3.2925,3.3762,3.4731,3.5976,3.7682,4.1788,4.5801,4.5618,4.6838,4.8589,4.9839,5.1183,5.1879,5.0536,4.9469,4.7226,4.121,3.7916,3.4554,2.9009,2.7283,2.6428,2.5461,2.5564,2.6567,2.8896,3.0461,3.2835,3.715,3.9936,4.227,4.4391,4.5505,4.6279,4.6705,4.7352,4.7906,4.8152,5.0756,5.216,5.1698,5.2323,5.278,5.2871,5.2155,5.1737,5.1787,4.9807,4.8366,4.7539,4.6913,4.6528,4.6333,4.6528,4.6652,4.6652,4.6582,4.6738,0.0,4.5927,4.5301,4.4787,4.4723,4.4253,4.3686,4.435,4.4642,4.469,0.0,0.0,0.0,0.0,0.0,0.0,1.8565,1.8658,1.9178,2.0443,2.058,2.0927,2.1934,2.145,2.1196,2.1547,0.0,0.0,0.0,0.0,0.0,0.0,0.0,0.0,0.0,0.0,2.4551,2.5086,2.6095,0.0,0.0,0.0,0.0,0.0,0.0,3.2249,3.2388,3.2319,0.0,0.0,0.0,0.0,0.0,0.0,0.0,0.0,0.0,0.0,3.3189,3.3274,3.4071,3.4918,3.4286,3.6771,4.041,4.2916,4.4887,4.6792,4.9284,5.0709,5.1421,5.1343,4.8944,4.5441,4.1226,3.7302,3.3436,2.956,2.7646,2.6594,2.6264,2.5722,2.583,2.7342,2.8319,3.0161,3.3716,3.6114,3.8776,4.2204,4.3531,4.5069,4.7317,4.7771,4.8453,4.9764,5.1054,5.1966,5.2363,5.3225,5.3331,5.2544,5.2105,5.1516,5.0845,4.9829,4.904,4.8366,4.7671,4.7372,4.7237,4.6775,4.6668,4.6738,4.6652,4.6738,0.0,4.6516,4.5982,4.5403,4.5403,4.4982,4.4399,4.469,4.5046,4.5338,0.0,0.0,0.0,0.0,0.0,1.8698,1.8753,1.8843,1.947,2.1069,2.0915,2.117,2.2549,2.2287,2.2055,2.2228,2.2663,0.0,0.0,0.0,0.0,0.0,0.0,0.0,0.0,0.0,2.4185,2.4823,2.5825,2.6591,0.0,0.0,2.9478,2.9627,0.0,0.0,0.0,0.0,0.0,0.0,0.0,0.0,0.0,0.0,0.0,0.0,0.0,0.0,0.0,0.0,0.0,3.3905,3.2324,3.3236,3.5622,3.9452,4.2386,4.4959,4.749,4.9337,5.0582,5.0844,4.7749,4.3849,4.0785,3.6848,3.294,2.9769,2.8135,2.7087,2.6662,2.5962,2.5631,2.617,2.6888,2.8359,3.1237,3.3385,3.6142,3.9951,4.1373,4.332,4.643,4.7556,4.8871,5.093,5.1458,5.1983,5.2669,5.3567,5.3562,5.24,5.1798,5.1228,5.054,5.0028,4.9538,4.9023,4.8192,4.7868,4.7933,4.7221,4.6965,4.7118,4.705,4.6929,0.0,4.6649,4.6261,4.5791,4.5581,4.5338,4.5095,4.5095,4.5532,4.605,0.0,0.0,0.0,0.0,0.0,0.0,1.9064,1.9102,1.9666,2.1296,2.1607,2.1935,2.2626,2.3388,2.3529,2.2666,2.2361,0.0,0.0,0.0,0.0,0.0,0.0,0.0,0.0,0.0,2.3898,2.3898,2.5507,2.6283,2.6259,2.7865,2.8659,2.8854,0.0,0.0,0.0,0.0,0.0,0.0,0.0,0.0,0.0,0.0,0.0,0.0,0.0,0.0,0.0,0.0,0.0,0.0,0.0,3.2054,3.2661,3.4854,3.9025,4.3139,4.4035,4.6872,4.9337,4.81,4.5654,4.2715,3.9614,3.6729,3.3549,2.9508,2.8569,2.7973,2.6327,2.597,2.5844,2.5717,2.6379,2.7785,3.0357,3.2644,3.5098,3.8012,3.9403,4.1048,4.3412,4.6531,4.9143,5.0957,5.2083,0.0,5.2669,5.3567,5.3807,5.319,5.1698,5.1259,5.1997,5.0575,4.9715,4.9402,4.8175,4.7786,4.8111,4.7721,4.7589,4.7589,4.7819,4.7505,0.0,4.6115,4.5807,4.5726,4.5063,4.5208,4.5791,4.5791,4.6261,4.6876,0.0,0.0,0.0,0.0,0.0,0.0,0.0,1.9219,1.9819,2.1497,2.1731,2.2298,2.3658,2.3931,2.3929,2.371,2.3364,0.0,0.0,0.0,0.0,0.0,0.0,0.0,0.0,0.0,2.3954,2.5059,2.5614,2.6435,2.7454,2.8476,2.8999,2.9094,2.9841,3.0225,0.0,0.0,0.0,0.0,0.0,0.0,3.0539,0.0,0.0,0.0,0.0,0.0,0.0,0.0,0.0,0.0,0.0,0.0,0.0,3.1616,3.4968,3.8875,4.0441,4.1988,4.312,4.286,4.0058,3.7153,3.6471,3.3516,3.0687,2.9724,2.8649,2.7684,2.7072,2.6429,2.6102,2.6578,2.723,2.8118,2.9414,3.169,3.4201,3.6974,4.1374,4.4745,0.0,0.0,4.886,4.987,5.0359,5.1007,5.2038,5.1975,5.199,5.2271,5.1703,5.1263,5.0893,5.035,5.0097,5.0097,4.9359,4.9118,4.9178,4.8555,4.8349,4.8493,4.843,4.8366,0.0,4.7506,4.7227,4.7144,4.6497,4.6358,4.6536,4.6536,4.6682,4.6876,0.0,0.0,0.0,0.0,0.0,0.0,0.0,1.9326,1.9835,2.1209,2.1683,2.2399,2.3747,2.4045,2.4135,2.4154,2.3894,0.0,0.0,0.0,0.0,0.0,0.0,0.0,2.3499,2.3336,2.3742,2.4772,2.539,2.6197,2.7192,2.8248,2.8792,2.8884,2.9296,2.9479,0.0,0.0,0.0,0.0,0.0,0.0,2.9792,0.0,0.0,0.0,0.0,0.0,0.0,0.0,0.0,0.0,0.0,0.0,0.0,0.0,3.2018,3.459,3.6652,3.8265,3.9387,3.9257,3.6602,3.4059,3.43,3.1688,2.9191,2.9214,2.8412,2.7545,2.7153,2.6593,2.6319,2.6693,2.737,2.8217,2.9237,3.1671,3.4546,3.7719,4.2251,0.0,0.0,4.7753,4.8928,4.9799,5.0197,5.0806,5.1666,5.1394,5.1234,5.1298,5.1242,5.0997,5.0509,5.0693,5.0637,5.0302,5.0159,5.0083,4.9924,4.87,4.8382,4.8762,4.8078,4.7838,0.0,4.7012,4.6825,4.6992,4.6291,4.6204,4.654,4.6979,4.7209,4.7321,0.0,0.0,0.0,0.0,0.0,0.0,0.0,1.9471,1.9719,2.06,2.1424,2.2235,2.3017,2.373,2.4118,2.4044,0.0,0.0,0.0,0.0,0.0,0.0,0.0,0.0,2.3721,2.3476,2.3413,2.3584,2.5013,2.5829,2.6029,2.7531,2.8237,2.8237,2.8174,2.8081,0.0,0.0,0.0,0.0,0.0,0.0,0.0,0.0,0.0,0.0,0.0,0.0,0.0,0.0,0.0,0.0,0.0,0.0,0.0,0.0,0.0,0.0,0.0,3.533,3.7306,3.6697,3.4656,3.2804,3.2782,3.0815,0.0,2.8237,2.7879,2.7435,2.6758,2.6589,2.6467,2.6341,2.71,2.8244,2.9858,3.2729,3.6071,3.9901,4.245,0.0,4.4595,4.7194,4.927,5.0408,5.1176,5.1608,5.1442,5.1608,5.1259,5.0345,5.053,5.0585,5.0585,5.1336,5.1185,5.0206,5.0555,5.0638,5.0324,4.8345,4.7929,0.0,4.7148,0.0,0.0,4.5334,4.518,4.5698,4.4896,4.5062,4.5911,4.7137,4.773,4.7948,0.0,0.0,0.0,0.0,0.0,0.0,0.0,0.0,0.0,0.0,2.1036,2.1461,2.2256,2.3045,2.3531,0.0,0.0,0.0,0.0,0.0,0.0,0.0,0.0,0.0,2.3855,2.3743,2.4249,2.538,2.5793,2.6626,2.7797,2.8226,2.8167,2.77,2.817,2.8406,0.0,0.0,0.0,0.0,0.0,0.0,0.0,0.0,0.0,0.0,2.8774,2.8802,0.0,0.0,0.0,0.0,0.0,0.0,0.0,0.0,2.9098,2.9449,2.9409,0.0,3.1026,3.0349,2.9565,2.9134,0.0,2.8273,2.7115,2.8178,2.731,2.6449,2.6841,2.6876,2.6995,2.7382,2.8215,2.9485,3.1374,3.6059,0.0,4.1055,4.4003,4.5532,4.4486,4.6643,4.847,4.9266,4.9855,5.0374,5.0809,5.0788,5.0401,4.9744,5.0213,5.0397,5.0285,5.0476,5.0379,5.0051,5.0247,5.0287,5.0211,4.9245,4.8955,4.9104,4.8142,0.0,4.7669,4.6937,4.6372,4.6052,4.5979,4.5806,4.5633,4.7139,4.7642,4.7692,0.0,0.0,0.0,0.0,0.0,0.0,0.0,0.0,0.0,0.0,0.0,0.0,0.0,0.0,0.0,0.0,0.0,0.0,0.0,0.0,0.0,0.0,0.0,2.3996,2.3996,2.3873,2.4205,2.505,2.5791,2.6585,2.7501,2.8225,2.8227,2.7601,2.787,2.8167,2.8458,0.0,0.0,0.0,2.8353,0.0,0.0,0.0,0.0,0.0,2.838,2.8458,0.0,2.8562,2.8562,2.851,0.0,0.0,0.0,0.0,2.8604,2.8782,2.8316,2.8411,2.8557,2.8063,2.7882,2.793,2.8189,2.7478,2.7022,2.7855,2.7261,2.6688,2.7051,2.7313,2.7623,2.7981,2.9532,3.1649,3.426,3.7853,4.076,4.2294,4.4516,4.5929,0.0,4.7725,4.8703,4.8728,4.9315,4.982,5.0095,5.0095,4.992,4.9518,5.018,5.0105,4.9353,5.0415,5.0476,4.9516,5.0454,5.0476,4.9764,4.867,4.8245,4.8294,4.7157,0.0,4.7004,4.6378,4.5954,4.5727,4.6116,4.5942,4.5634,4.734,4.7745,4.7539,0.0,0.0,0.0,0.0,0.0,0.0,0.0,0.0,0.0,0.0,0.0,0.0,0.0,0.0,0.0,0.0,0.0,0.0,0.0,0.0,0.0,0.0,2.402,2.4113,2.4132,2.3937,2.3985,2.426,2.5461,2.6263,2.6763,2.7955,2.8221,2.7675,2.7258,2.7465,2.8124,2.8098,2.8144,2.8252,2.8252,0.0,0.0,0.0,0.0,0.0,0.0,0.0,0.0,2.8442,2.8453,2.8492,2.8587,0.0,0.0,0.0,0.0,0.0,2.8353,2.8335,2.8297,2.801,2.7986,2.794,2.7707,2.7442,2.732,2.7504,2.7274,2.7161,2.7365,2.7822,2.822,2.8458,3.1059,0.0,3.7931,3.9628,4.1316,4.3657,4.4909,0.0,4.7865,4.9052,4.9433,4.8781,4.9301,4.9626,4.9502,4.9573,4.9502,4.9306,5.0128,4.9814,4.8277,5.0442,5.0676,4.9007,5.0558,5.0567,4.9038,4.7803,4.7193,4.7056,0.0,0.0,4.5718,4.5196,4.4964,4.5069,4.5754,4.5772,4.5597,4.7453,4.7765,4.7438,0.0,0.0,0.0,0.0,0.0,0.0,0.0,0.0,0.0,0.0,0.0,0.0,0.0,0.0,0.0,0.0,0.0,0.0,0.0,0.0,0.0,2.3162,2.3823,2.4172,2.419,2.4151,2.473,2.5928,2.5492,2.6304,2.8257,2.787,2.7692,2.7638,2.6249,2.6085,2.6871,2.6763,2.7071,2.7622,2.7574,0.0,0.0,0.0,0.0,0.0,0.0,0.0,0.0,2.7882,2.8051,2.8492,2.8587,0.0,0.0,0.0,0.0,0.0,2.838,2.8756,2.8966,2.8314,2.8126,2.8042,2.7888,2.6764,2.6111,2.7408,2.6522,2.6138,2.8039,2.8429,2.8625,2.923,0.0,3.7439,0.0,0.0,4.5603,4.5203,0.0,4.8169,4.655,4.8408,4.9708,4.9691,4.9573,4.9503,4.9503,4.9432,4.9017,4.8316,4.9673,4.9667,4.8153,4.966,4.9912,4.8821,4.9792,4.9487,4.8127,4.8574,4.8055,4.6846,0.0,4.6116,4.5476,4.5353,4.5015,4.4669,4.5404,4.5348,4.5018,4.6637,4.7161,4.7177,0.0,0.0,0.0,0.0,0.0,0.0,0.0,0.0,0.0,0.0,0.0,0.0,0.0,0.0,0.0,0.0,0.0,0.0,0.0,0.0,2.2876,2.3621,2.4045,2.4247,2.419,2.417,2.444,2.5066,2.5099,2.5895,2.7404,2.7593,2.7871,2.8166,2.6673,2.6442,2.7153,2.667,2.6662,2.6964,0.0,0.0,0.0,0.0,0.0,0.0,0.0,0.0,0.0,0.0,2.7113,2.7447,2.7955,0.0,0.0,0.0,0.0,0.0,2.7944,2.8334,2.8649,2.7817,2.8485,2.9207,2.8758,2.8288,2.8059,2.834,2.8045,2.8106,2.9267,3.0396,3.2073,3.4857,0.0,4.0132,4.2725,4.4248,4.5163,0.0,0.0,4.8053,4.826,4.9378,4.9803,4.908,4.9321,4.931,4.8855,4.915,4.8951,4.8234,4.9646,4.9667,4.8242,4.9576,4.9656,4.8329,4.9124,4.8747,4.7348,4.7748,4.735,4.6274,0.0,4.61,4.5598,4.5199,4.5148,4.5284,4.5267,4.5303,4.5459,4.6066,4.6308,4.6378,0.0,0.0,0.0,0.0,0.0,0.0,0.0,0.0,0.0,0.0,0.0,0.0,0.0,0.0,0.0,0.0,0.0,0.0,0.0,2.2215,2.2534,2.3656,2.41,2.4266,2.417,2.4151,2.4165,2.4288,2.4665,2.5375,2.6447,2.7131,2.773,2.8148,2.6856,2.6515,2.6841,2.624,2.6072,2.6231,0.0,0.0,0.0,0.0,0.0,0.0,0.0,0.0,0.0,0.0,0.0,0.0,0.0,0.0,0.0,2.8251,2.8318,2.7991,2.7483,2.7904,2.826,2.7374,2.854,2.9888,2.9822,3.0052,3.0296,3.0353,3.061,3.0876,3.0991,3.2633,0.0,3.9378,4.1025,4.2321,4.3703,4.4222,4.5009,4.6444,4.7119,4.8194,5.0016,5.0285,4.9878,4.8697,4.8959,4.8958,4.8363,4.8467,4.8399,4.8033,4.906,4.9094,4.7998,4.9234,4.9087,4.7659,4.8667,4.8147,4.6326,4.6969,4.6795,4.5889,4.6114,4.6096,4.5717,4.497,4.5037,4.5641,4.4823,4.4998,4.5628,4.5615,4.5632,4.5684,0.0,0.0,0.0,0.0,0.0,0.0,0.0,0.0,0.0,0.0,0.0,0.0,0.0,0.0,0.0,0.0,0.0,0.0,0.0,2.1443,2.221,2.2253,2.356,2.4247,2.4113,2.417,2.4498,2.5126,2.4415,2.491,2.649,2.6435,2.653,2.672,2.5816,2.5031,2.4449,2.4469,2.4835,2.5491,2.5472,0.0,0.0,0.0,0.0,0.0,0.0,0.0,0.0,0.0,0.0,0.0,0.0,0.0,2.6475,2.7414,2.7058,2.6553,2.7271,2.7947,2.8226,2.7475,2.7859,2.8933,3.0814,3.0845,3.1213,3.3846,3.3952,3.3562,3.3371,3.4654,3.6478,3.8793,4.1059,4.3755,4.723,0.0,4.7958,4.9493,4.9717,4.9861,5.0171,5.0189,5.0015,4.9433,4.875,4.8432,4.8484,4.7108,4.6601,4.7248,4.7283,4.7161,4.7021,4.7821,4.7785,4.688,4.8516,4.7735,4.4916,4.7195,4.7369,4.6007,4.6638,4.6499,4.5717,4.4869,4.4642,4.4707,4.3776,4.3833,4.4492,4.5321,4.5528,4.5423,0.0,0.0,0.0,0.0,0.0,0.0,0.0,0.0,0.0,0.0,0.0,0.0,0.0,0.0,0.0,0.0,0.0,0.0,0.0,2.1953,2.2637,2.3609,2.4112,2.4284,2.4094,2.4113,2.424,2.4452,2.5287,2.5988,2.6573,2.7665,2.8187,2.8175,2.6847,2.6093,2.5762,2.4783,2.4524,2.4764,2.4688,2.4814,0.0,0.0,0.0,0.0,0.0,0.0,0.0,0.0,2.4791,2.51,2.5654,2.5758,2.5819,2.671,2.6986,2.6962,2.6786,2.7574,2.8286,2.75,2.7795,2.8997,3.1653,3.2355,3.2767,3.3952,3.4993,3.5746,3.5819,3.8058,4.0121,4.0908,4.317,4.5509,4.735,4.7661,4.7924,4.851,4.8635,4.873,4.8861,4.897,4.8801,4.824,4.826,4.8136,4.7682,4.7004,4.655,4.6479,4.6375,4.6182,4.581,4.7052,4.7001,4.561,4.7126,4.676,4.4724,4.5745,4.5603,4.4607,4.4953,4.49,4.4585,4.3785,4.375,4.4135,4.3628,4.3551,4.3764,4.4007,4.4371,4.4647,0.0,0.0,0.0,0.0,0.0,0.0,0.0,0.0,0.0,0.0,0.0,0.0,0.0,0.0,0.0,0.0,0.0,0.0,2.2042,2.2476,2.3145,2.4164,2.4349,2.4321,2.4151,2.4113,2.4184,2.4419,2.5678,2.644,2.6718,2.7687,2.8264,2.8452,2.7063,2.6321,2.6024,2.4964,2.4482,2.4446,2.4338,2.4266,0.0,0.0,0.0,0.0,0.0,0.0,0.0,0.0,2.419,2.43,2.4909,2.5035,2.5159,2.6243,2.6626,2.6708,2.6654,2.7357,2.7954,2.7345,2.812,2.9801,3.274,3.3774,3.45,3.6001,3.6858,3.7488,3.7927,4.0148,0.0,0.0,4.4389,4.6435,4.7121,4.7316,4.7496,4.7738,4.781,4.7919,4.801,4.8064,4.7858,4.7264,4.7596,4.763,4.7177,4.6256,4.5749,4.5653,4.5117,4.4799,4.4729,4.5961,4.6189,4.5352,4.6219,4.6011,4.4739,4.4904,4.4655,4.4113,4.3915,4.384,4.3834,4.3068,4.2864,4.3109,4.3166,4.3193,4.3179,4.3325,4.3692,4.4039,0.0,0.0,0.0,0.0,0.0,0.0,0.0,0.0,0.0,0.0,0.0,0.0,0.0,0.0,0.0,0.0,0.0,0.0,2.1314,2.281,2.3601,2.3416,2.4027,2.4338,2.419,2.4151,2.4516,2.5285,2.5423,2.5984,2.6879,2.6005,2.6117,2.6953,2.6076,2.5308,2.4626,2.4682,2.4666,2.4599,2.4547,2.4459,2.4407,0.0,0.0,0.0,0.0,0.0,0.0,0.0,2.419,2.419,2.419,2.419,2.4502,2.6036,2.5794,2.5366,2.6959,2.7295,2.7187,2.7049,2.8826,3.1367,3.4164,3.496,3.636,4.087,4.0088,3.8787,3.9669,4.0508,0.0,4.1717,4.4278,4.6368,4.6899,4.6882,4.707,4.7815,4.7902,4.7902,4.7902,4.7738,4.7444,4.6862,4.6811,4.6829,4.6986,4.4694,4.3885,4.4834,4.3136,4.2706,4.3869,4.4546,4.5334,4.6137,4.6055,4.5603,4.49,4.5032,4.508,4.5027,4.4078,4.3728,4.3816,4.2958,4.2096,4.145,4.2253,4.2614,4.2655,4.3406,4.3685,4.3685,0.0,0.0,0.0,0.0,0.0,0.0,0.0,0.0,0.0,0.0,0.0,0.0,0.0,0.0,0.0,0.0,0.0,0.0,2.2137,2.312,2.362,2.3472,2.4161,2.4478,2.434,2.4912,2.5005,2.4519,2.5226,2.5746,2.6061,2.6469,2.6839,2.7097,2.627,2.5745,2.5483,2.497,2.4726,2.466,2.4596,2.4564,2.4528,0.0,0.0,0.0,0.0,0.0,0.0,0.0,0.0,0.0,2.419,2.417,2.4333,2.5296,2.5758,2.6141,2.7127,2.7666,2.8111,2.8748,3.0116,3.2143,3.5225,3.5774,3.6829,4.0934,4.1487,4.1202,4.131,4.2554,0.0,4.2697,4.4202,4.569,4.6232,4.6117,4.6048,4.6378,4.6413,4.6413,4.6413,4.6465,4.6412,4.6255,4.6169,4.6169,4.6304,4.4513,4.3593,4.3881,4.2323,4.1661,4.198,4.2765,4.3288,4.3515,4.4073,4.4244,4.4047,4.4017,4.3358,4.2312,4.2085,4.2044,4.2135,4.1953,4.1618,4.129,4.1733,4.1821,4.181,4.2166,4.265,4.3054,0.0,0.0,0.0,0.0,0.0,0.0,0.0,0.0,0.0,0.0,2.0959,2.0679,0.0,0.0,0.0,0.0,0.0,0.0,0.0,2.3771,2.4166,2.4068,2.446,2.4613,2.4481,2.4998,2.4946,2.4321,2.5244,2.5743,2.5814,2.6068,2.6378,2.6726,2.5944,2.5586,2.5514,2.5039,2.4817,2.4768,2.4707,2.4692,2.4707,0.0,0.0,0.0,0.0,0.0,0.0,0.0,0.0,0.0,2.419,2.4171,2.4334,2.5306,2.5909,2.6499,2.7525,2.8236,2.8917,2.9844,3.1553,3.3788,3.693,3.8005,3.9022,4.1414,4.2079,4.2252,4.242,4.3588,0.0,4.3842,4.4706,4.5544,4.5868,4.577,4.5632,4.5718,4.5718,4.5718,4.5718,4.5736,4.577,4.577,4.5702,4.5563,4.5337,4.4071,4.327,4.2988,4.1759,4.1273,4.1679,4.2102,4.2502,4.2862,4.3332,4.3367,4.3101,4.3071,4.2566,4.1679,4.1679,4.1551,4.1335,4.1758,4.188,4.1736,4.162,4.178,4.2053,4.198,4.226,4.2554,0.0,0.0,0.0,0.0,0.0,0.0,0.0,0.0,0.0,0.0,2.0708,2.0497,0.0,0.0,0.0,0.0,0.0,0.0,0.0,2.4448,2.4853,2.4785,2.4808,2.4742,2.4631,2.4631,2.4596,2.4528,2.5379,2.5804,2.5869,2.5148,2.5231,2.5947,2.5305,2.501,2.4996,2.4931,2.4917,2.4898,2.4842,2.4856,2.4884,2.4836,0.0,0.0,0.0,0.0,0.0,0.0,0.0,0.0,2.421,2.421,2.4466,2.5827,2.6227,2.6537,2.8018,2.8828,2.953,3.0474,3.3084,3.6184,3.9093,4.0919,4.203,4.2079,4.2239,4.2569,4.3182,4.3943,4.4594,4.5027,4.5466,4.5786,4.5786,4.5667,4.5615,4.5632,4.5632,4.5632,4.5667,4.5528,4.5423,4.5476,4.5354,4.5008,4.4456,4.3648,4.2918,4.2332,4.1432,4.1427,4.2241,4.2129,4.2523,4.3349,4.3253,4.2774,4.2081,4.2263,4.231,4.2258,4.2375,4.1945,4.1337,4.2166,4.2556,4.2555,4.1946,4.2273,4.2951,4.2513,4.2328,4.2287,0.0,0.0,0.0,0.0,0.0,0.0,0.0,0.0,0.0,0.0,0.0,0.0,0.0,0.0,0.0,0.0,0.0,0.0,0.0,2.361,2.4036,2.3961,2.4539,2.4856,2.4827,2.4827,2.4813,2.4734,2.4832,2.4874,2.4904,2.4832,2.4926,2.5149,2.504,2.501,2.501,2.4977,2.4977,2.4964,2.4917,2.4884,2.4884,2.4827,2.4798,0.0,0.0,0.0,0.0,0.0,0.0,0.0,2.4284,2.4284,2.4561,2.6012,2.6465,2.679,2.807,2.8882,2.9712,3.1112,3.4775,3.8663,4.1136,4.189,4.2037,4.1909,4.3332,4.4647,4.4805,4.5346,4.5765,4.5658,4.5815,4.5887,4.5667,4.5615,4.5632,4.5718,4.5667,4.577,4.6204,4.5821,4.5718,4.6137,4.5145,4.4785,4.5304,4.3974,4.3128,4.3005,4.2196,4.1591,4.1224,4.1207,4.1294,0.0,4.1466,4.1332,4.1177,4.1829,4.1778,4.1259,4.196,4.2098,4.1881,4.2853,4.2979,4.2597,4.2615,4.2485,4.2352,4.2417,4.2463,4.2445,0.0,0.0,0.0,0.0,0.0,0.0,0.0,0.0,0.0,0.0,0.0,0.0,0.0,0.0,0.0,0.0,0.0,0.0,0.0,0.0,2.4385,2.4321,2.4752,2.4985,2.4964,2.4964,2.4917,2.4856,2.4753,2.4707,2.4704,2.4768,2.4861,2.4964,2.4977,2.501,2.501,2.501,2.501,2.4996,2.4964,2.4945,2.494,2.487,2.487,2.4889,2.4832,0.0,0.0,0.0,0.0,0.0,0.0,0.0,2.458,2.5578,2.5941,2.6267,2.7616,2.8476,2.9727,3.2847,3.6674,4.002,4.1483,4.1866,4.1881,4.1736,4.3321,4.4695,4.4471,4.5285,4.5815,4.5164,4.5145,4.5024,4.4542,4.4439,4.4541,4.4806,4.4788,4.5075,4.5953,4.5799,4.5831,4.6266,4.5621,4.5161,4.4992,4.3836,4.3199,4.32,4.2078,4.144,4.1405,4.1405,4.1233,4.0888,4.163,4.2023,4.1974,4.1974,4.1974,4.2075,4.2866,4.2938,4.2627,4.3253,4.3345,4.3069,4.2617,4.2536,4.2654,4.2548,4.2503,4.2503,0.0,0.0,0.0,0.0,0.0,0.0,0.0,0.0,0.0,0.0,0.0,0.0,0.0,0.0,0.0,0.0,0.0,0.0,0.0,0.0,0.0,2.5031,2.5076,2.5063,2.4991,2.501,2.4964,2.4898,2.4823,2.4794,2.4794,2.4794,2.4875,2.4977,2.4977,2.501,2.501,2.501,2.501,2.501,2.501,2.5004,2.4999,2.4945,2.4945,2.4977,2.4856,2.4764,2.4723,2.4657,0.0,0.0,0.0,0.0,2.4596,2.5087,2.5283,2.5628,2.7053,2.8164,3.0008,3.4545,3.7845,4.0165,4.0919,4.1266,4.1449,4.1446,4.2685,4.3617,4.3315,4.4463,4.5144,4.4317,4.4213,4.4056,4.3481,4.3395,4.3506,4.3898,4.3898,4.4329,4.5507,4.5517,4.5622,4.6018,4.5756,4.5215,4.4279,4.3454,4.3009,4.2995,4.1736,4.1302,4.1785,4.1802,4.1492,4.0905,4.2244,4.2985,4.3089,4.2462,4.2483,4.3059,4.3801,4.3748,4.3074,4.3423,4.358,4.3477,4.2511,4.2508,4.3088,4.2614,4.2463,4.2463,0.0,0.0,0.0,0.0,0.0,0.0,0.0,0.0,0.0,0.0,2.2072,2.2146,0.0,0.0,0.0,0.0,0.0,0.0,2.2762,0.0,0.0,2.5164,2.5137,2.5076,2.5012,2.5004,2.4964,2.4898,2.4823,2.4794,2.4794,2.4794,2.4842,2.4917,2.4977,2.501,2.501,2.501,2.501,2.501,2.501,2.501,2.4991,2.4977,2.4977,2.4996,2.4917,2.4842,2.4798,2.4772,2.4745,0.0,0.0,0.0,2.4611,2.5206,2.5386,2.5674,2.6982,2.8889,3.1325,3.4772,3.6548,3.7959,3.9857,4.005,4.0076,4.076,4.1635,4.2293,4.2358,4.3245,4.393,4.3777,4.4027,4.4205,4.4145,4.4155,4.4218,4.4396,4.429,4.4502,4.5178,4.48,4.4706,4.5299,4.3988,4.3384,4.3833,4.2788,4.2147,4.2164,4.1957,4.1578,4.1026,4.1026,4.0974,4.0935,4.1446,4.2065,4.2748,4.2818,4.2608,4.223,4.3204,4.3197,4.2554,4.3471,4.3581,4.3174,4.3006,4.2754,4.243,4.2364,4.2346,4.2346,0.0,0.0,0.0,0.0,0.0,0.0,0.0,0.0,0.0,0.0,0.0,2.3153,0.0,0.0,0.0,2.2192,2.2891,2.3571,2.4025,2.4763,2.5172,2.5156,2.5113,2.5076,2.4993,2.5004,2.4964,2.4898,2.4823,2.4798,2.4802,2.5303,2.5295,2.4898,2.4972,2.5004,2.501,2.5004,2.5004,2.501,2.501,2.522,2.5521,2.5139,2.5234,2.5513,2.5102,2.4945,2.4912,2.4875,2.4817,2.4738,2.4676,0.0,0.0,0.0,2.4819,2.5052,2.6453,2.864,3.0995,3.2885,3.5062,3.7046,3.8289,3.8941,3.9473,4.0235,4.044,4.0787,4.1768,4.271,4.3002,4.214,4.2467,4.2766,4.2427,4.2754,4.3148,4.3558,4.354,4.388,4.4836,4.4701,4.4708,4.5178,4.4257,4.3739,4.3787,4.268,4.2216,4.2684,4.1854,4.1423,4.1495,4.1518,4.1726,4.2213,4.2079,4.2364,4.2988,4.3173,4.3126,4.2874,4.348,4.3541,4.3273,4.3371,4.3305,4.3059,4.2772,4.2507,4.2287,4.2287,4.2287,4.2287,0.0,0.0,0.0,0.0,0.0,0.0,0.0,0.0,0.0,0.0,0.0,0.0,0.0,0.0,0.0,0.0,2.3784,2.457,2.5187,2.5214,2.518,2.512,2.512,2.5063,2.4999,2.4991,2.4931,2.487,2.4827,2.4802,2.4806,2.5476,2.5563,2.5225,2.5503,2.5498,2.5313,2.5289,2.5308,2.5332,2.5313,2.5617,2.6054,2.5745,2.5939,2.6276,2.557,2.5308,2.5283,2.5021,2.487,2.4808,2.4738,2.4679,0.0,0.0,0.0,2.4794,2.6148,2.8066,2.9996,3.126,3.3592,3.5781,3.6549,3.7453,3.8453,3.9428,3.9113,3.9221,4.0962,4.1801,4.1853,4.0701,4.1067,4.1332,4.0899,4.1332,4.1848,4.2304,4.2359,4.2705,4.3613,4.3886,4.4072,4.4256,4.3935,4.3497,4.2973,4.1858,4.1488,4.2014,4.0927,4.0651,4.1392,4.1756,4.2149,4.2612,4.2334,4.2306,4.2509,4.2601,4.2675,4.271,4.3406,4.3656,4.3527,4.3162,4.2999,4.2988,4.2565,4.2391,4.2287,4.2287,4.2287,4.2287,0.0,0.0,0.0,0.0,0.0,0.0,0.0,0.0,0.0,0.0,0.0,0.0,2.5298,2.5354,2.4983,2.411,2.4706,2.5184,2.5282,2.5239,2.5206,2.5187,2.5132,0.0,2.501,2.4931,2.487,2.4813,2.4802,2.4806,2.4806,2.4862,2.5292,2.6072,2.6957,2.6906,2.6148,2.6148,2.6162,2.6227,2.6148,2.62,2.6365,2.7077,2.7399,2.7308,2.6451,2.6148,2.6034,2.5243,2.4964,2.487,2.4821,2.4745,2.4685,0.0,0.0,0.0,2.6292,2.7255,2.8592,3.093,3.2293,3.34,3.4564,3.5381,3.6318,3.7965,3.7576,3.7555,3.9552,4.0022,4.0116,4.0045,4.0345,4.0583,4.0707,4.0743,4.0797,4.0917,4.0866,4.085,4.1006,4.1699,4.2014,4.172,4.1683,4.1336,4.0629,3.9713,3.9112,3.8836,3.8763,3.9055,3.9824,4.1163,4.1548,4.1022,4.1439,4.1304,4.0619,4.0435,4.036,4.0488,4.2352,4.2946,4.257,4.2768,4.2826,4.2826,4.279,4.2577,4.2287,4.2287,4.2287,4.2287,0.0,0.0,0.0,0.0,0.0,0.0,0.0,0.0,0.0,0.0,0.0,0.0,0.0,2.5488,2.5313,2.4964,2.5149,2.5262,2.5311,2.5241,2.519,2.5198,2.5137,2.5095,2.5063,2.4959,2.487,2.4794,2.4802,2.4791,2.4742,2.5317,2.5744,2.6061,2.6469,2.6489,2.6205,2.6238,2.598,2.5513,2.5468,2.6053,2.6862,2.6211,2.6873,2.7985,2.6721,2.6281,2.6275,2.5942,2.5468,2.5006,2.4903,2.4836,2.4714,2.45,2.4616,2.5097,2.6348,2.6917,2.7598,2.9494,3.0628,3.1537,3.243,3.3266,3.4293,3.5954,3.5948,3.6035,3.7253,3.799,3.8573,3.9067,3.929,3.9571,4.0185,4.058,4.0857,4.0994,4.0876,4.0808,4.0928,4.1097,4.1209,4.1227,4.067,4.0271,4.0037,3.9223,3.8737,3.8624,3.8756,3.9094,3.9695,4.0552,4.0834,4.0452,4.0782,4.0744,4.0293,4.0419,4.0437,4.0508,4.1325,4.1905,4.2304,4.2393,4.2577,4.281,4.281,4.2616,4.2287,4.2287,4.2287,4.2287,0.0,0.0,0.0,0.0,0.0,0.0,0.0,0.0,0.0,2.5601,0.0,0.0,0.0,0.0,2.5468,2.5404,2.5351,2.5341,2.5322,2.5273,2.5222,2.5209,2.516,2.5101,2.5025,2.4972,2.4889,2.4783,2.4802,2.4787,2.4742,2.5333,2.5759,2.6057,2.6416,2.6593,2.6612,2.6944,2.6474,2.5558,2.607,2.674,2.7386,2.6962,2.7565,2.8582,2.7837,2.742,2.7262,2.7457,2.6792,2.5888,2.5806,2.5338,2.4783,2.453,2.4498,2.4814,2.606,2.6371,2.6718,2.8298,2.9355,3.0189,3.0936,3.1746,3.2773,3.4127,3.4123,3.4236,3.5331,3.5836,3.6464,3.7672,3.7904,3.8147,3.87,3.9061,3.9315,3.9415,3.9236,3.9137,3.9239,3.9677,3.9987,4.0005,3.9716,0.0,3.9238,3.8502,3.8104,3.8044,3.8561,3.8919,3.9224,4.0255,4.0529,3.9995,4.0336,4.0276,3.9859,3.9922,4.001,4.0157,4.027,4.0927,4.2009,4.2267,4.254,4.2775,4.296,4.279,4.2454,4.2351,4.2287,4.2287,0.0,0.0,0.0,0.0,0.0,0.0,0.0,0.0,2.5601,2.5601,0.0,0.0,0.0,0.0,0.0,2.541,2.5401,2.5404,2.5398,2.5351,2.5264,2.5222,2.5206,2.5113,2.4915,2.4972,2.4889,2.4707,2.4764,2.4798,2.4806,2.4836,2.5314,2.6174,2.7059,2.7437,2.7494,2.8339,2.7774,2.6477,2.8122,2.8384,2.7943,2.9508,2.9683,2.92,2.9884,2.9627,2.9041,2.9725,2.8825,2.7471,2.7443,2.6257,2.4874,2.467,2.461,2.475,0.0,0.0,0.0,2.7527,2.8525,2.9344,3.0088,3.088,3.1697,3.263,3.221,3.2177,3.3826,3.3608,3.3804,3.5855,3.6297,3.6408,3.6427,3.6248,3.6102,3.6102,3.5908,3.582,3.5802,3.7321,3.8147,3.7791,3.8599,3.8814,3.8121,3.7422,3.7066,3.7044,3.8043,3.8496,3.8329,4.0113,4.0534,3.9596,4.002,3.9871,3.9214,3.8783,3.8836,3.921,3.9156,3.9993,4.1505,4.2314,4.2667,4.2767,4.3192,4.3159,4.2772,4.2454,4.2328,4.2328,0.0,0.0,0.0,0.0,0.0,0.0,2.5601,2.5601,2.5601,0.0,0.0,0.0,2.5595,2.557,2.5544,2.5488,2.5472,2.5448,2.5404,2.5388,2.5361,2.5341,2.5292,2.5228,2.5111,2.5032,2.4959,2.4842,2.4808,2.4813,2.4817,2.5454,2.6197,2.7085,2.7907,2.8285,2.8358,2.86,2.8097,2.7257,2.8369,2.906,2.9475,2.9932,3.067,3.1423,3.1093,3.0481,2.9945,3.0608,2.906,2.6718,2.5983,2.5367,2.4888,2.4837,2.4768,2.4898,2.5624,0.0,0.0,0.0,0.0,0.0,2.9191,2.9605,3.0083,3.0964,3.0987,3.1177,3.2265,3.2396,3.2512,3.3111,3.471,3.6093,3.6689,3.6509,3.6297,3.624,3.6072,3.5939,3.5877,3.6277,3.6499,0.0,3.7123,3.7458,3.732,3.7,3.7144,3.7929,3.7867,3.8125,3.8807,3.8992,3.9208,3.9451,3.901,3.9006,3.9408,3.9298,3.9354,3.9483,3.9458,3.972,4.0181,4.0985,4.1885,4.2693,4.2823,4.3041,4.3177,4.281,4.2865,4.3014,0.0,0.0,0.0,0.0,0.0,2.56,2.5607,2.5601,2.5601,0.0,0.0,0.0,2.5564,2.5564,2.5551,2.5498,2.5495,2.5472,2.5401,2.5395,2.5388,2.5361,2.5361,2.5292,2.5198,2.5118,2.5032,2.4893,2.4898,2.4884,2.4889,2.5395,2.5925,2.6488,2.766,2.8177,2.8264,2.8981,2.8612,2.7684,2.9216,2.9984,3.0261,3.0935,3.152,3.206,3.227,3.184,3.135,3.2397,3.0647,2.7838,2.6537,2.5641,2.5019,2.498,2.4917,2.4926,2.5343,2.5361,2.554,2.6669,0.0,0.0,2.8412,2.8872,2.9304,2.9916,3.0027,3.0157,3.0705,3.1163,3.147,3.1472,3.2985,3.433,3.482,3.4673,3.4481,3.4423,3.4577,3.4513,3.4091,3.4987,3.5473,3.521,3.6042,3.6539,3.649,3.639,3.6653,3.7351,3.7219,3.7415,3.8007,3.7846,3.7978,3.8403,3.7916,3.7985,3.8452,3.849,3.8696,3.9064,3.907,3.9258,3.9608,4.0103,4.1124,4.2377,4.2452,4.2857,4.332,4.279,4.279,4.3051,0.0,0.0,2.5508,2.5593,2.56,2.5605,2.5593,2.5601,2.5601,0.0,2.5609,2.5577,2.5518,2.5518,2.5518,2.5499,2.549,2.5461,2.5429,2.5401,2.5376,2.5322,2.537,2.5341,2.522,2.5209,2.5111,2.4929,2.4987,2.5012,2.501,2.5107,2.5178,2.5323,2.7012,2.7709,2.7747,2.9408,2.9289,2.8202,3.0422,3.1011,3.0726,3.2248,3.2416,3.2072,3.3427,3.341,3.2915,3.4127,3.2678,3.0066,2.8226,2.6765,2.5669,2.5246,2.5139,2.5134,2.4888,2.476,2.4853,2.5465,2.6097,0.0,2.7761,2.8448,2.8975,2.9286,2.9323,2.9323,2.9365,3.0023,3.0551,3.0534,3.1208,3.179,3.206,3.1936,3.1808,3.1797,3.231,3.2367,3.1586,3.3561,3.4585,3.3864,3.511,3.5926,3.5926,3.5871,3.593,3.6213,3.6406,3.6556,3.663,3.6777,3.6892,3.6991,3.6894,3.6907,3.6994,3.7061,3.7478,3.8171,3.8257,3.8702,3.9389,3.9533,4.0471,4.1781,4.2063,4.2613,4.3175,4.2616,4.2573,4.277,0.0,2.4035,2.4854,2.5554,2.564,2.5589,2.5595,2.5604,2.5607,2.5593,2.5607,2.5589,2.5577,2.5577,2.557,2.5499,2.549,2.5495,2.5488,2.5472,2.5476,2.5468,2.5412,2.5395,2.536,2.5313,2.5212,2.5049,2.5122,2.5137,2.5089,2.5742,2.6117,2.6293,2.7931,2.863,2.8706,2.9751,3.0362,3.0706,3.1187,3.1718,3.2325,3.3242,3.3894,3.4352,3.4584,3.4201,3.3427,3.2546,3.2225,3.1671,2.8763,2.8483,2.8683,2.5979,2.6035,2.6707,2.5332,2.4875,2.4948,2.5604,2.58,0.0,2.759,2.8009,2.8301,2.9005,2.9197,2.9222,2.924,2.9413,2.9567,2.9567,2.9762,3.0423,3.189,3.1974,3.1846,3.1797,3.1834,3.174,3.1513,3.1949,3.2189,3.2016,3.3636,3.5287,3.6777,3.6235,3.6198,3.6881,3.6349,3.6307,3.6913,3.6339,3.6291,3.6833,3.6247,3.6304,3.6934,3.6991,3.7127,3.738,3.8019,3.8394,3.8595,3.9295,4.0134,4.0993,4.1689,4.23,4.2834,4.3047,4.3178,4.3231,2.3759,2.4452,2.5193,2.5619,2.5668,2.564,2.56,2.56,2.5609,2.5595,2.5599,2.5582,2.5551,2.5583,2.5589,2.5557,2.5518,2.5498,2.5495,2.5507,2.5492,2.544,2.5448,2.544,2.5397,2.5379,2.5495,2.5811,2.5401,2.5417,2.5798,2.576,2.5807,2.597,2.7579,2.8313,2.8434,2.9672,3.0442,3.0915,3.1679,3.2504,3.3363,3.4139,3.4677,3.5001,3.4927,3.4661,3.4239,3.3516,3.2741,3.1838,3.0636,2.9998,2.9267,2.7086,2.7007,2.7275,2.5514,2.498,2.4979,2.5273,2.5541,0.0,0.0,2.7471,2.8114,2.8519,2.8987,2.9304,2.9304,2.9283,2.9304,2.9307,2.9414,2.9773,3.0592,3.0702,3.0681,3.0618,3.0946,3.1021,3.0553,3.1296,3.1968,3.2408,3.3318,3.4439,3.5784,3.5465,3.5428,3.5841,3.5446,3.5424,3.575,3.5329,3.524,3.5559,3.5182,3.5194,3.561,3.5708,3.6237,3.7061,3.7507,3.8145,3.8927,3.9408,3.9796,4.0143,4.0653,4.1465,4.2364,4.225,4.2539,4.3051,2.4176,2.5,2.5703,2.5704,2.5697,2.5687,2.5628,2.56,2.5595,2.5591,2.5595,2.5574,2.5531,2.5564,2.5731,2.6055,2.5738,2.5661,2.5975,2.5703,2.548,2.5395,2.5448,2.5459,2.5398,2.5397,2.5688,2.6269,2.5559,2.5576,2.6224,2.5535,2.5337,2.559,2.706,2.7846,2.813,2.9596,3.033,3.0663,3.2057,3.2978,3.3547,3.4344,3.4599,3.4546,3.4642,3.4775,3.4889,3.4829,3.3519,3.1948,3.2144,3.1277,2.9836,2.8234,2.8114,2.8049,2.5944,2.5323,2.5254,2.52,2.5563,2.5965,0.0,0.0,0.0,2.79,2.8532,2.9165,2.9142,2.9101,2.9061,2.9047,2.9322,2.9437,0.0,2.928,0.0,2.9576,3.0141,3.0312,2.9732,3.0839,3.1927,3.2835,3.302,3.347,3.432,3.4508,3.4583,3.4561,3.4583,3.4561,3.4473,3.4427,3.4363,3.4293,3.4301,3.4301,3.4316,3.4423,3.5306,3.6758,3.6972,3.789,3.9245,3.9471,3.9546,3.9518,3.9838,4.0722,4.1752,4.1411,4.1851,4.2673,2.3407,2.4575,2.5707,2.5705,2.569,2.5701,2.5693,2.5636,2.5593,2.5604,2.5595,2.5595,2.5601,2.5609,2.6198,2.7697,2.6443,2.621,2.7702,2.6417,2.5524,2.5401,2.5456,2.5459,2.5398,2.5398,2.5418,2.5437,2.5341,2.5311,2.5346,2.531,2.5674,2.64,2.7355,2.8195,2.8932,2.9877,3.0688,3.1459,3.2403,3.2417,3.1952,3.2688,3.2931,3.2963,3.3598,3.4282,3.4813,3.4359,3.3983,3.3384,3.1441,3.2116,3.2865,2.9014,2.9402,3.0388,2.7206,2.6285,2.6237,0.0,2.6143,2.6242,2.6902,0.0,2.8091,2.7156,0.0,2.8292,2.8186,0.0,0.0,2.8144,2.882,2.9066,2.8246,2.8841,2.9564,3.0206,2.985,2.9783,3.0333,2.9927,3.0029,3.1012,3.1717,3.2502,3.3473,3.4207,3.4561,3.4517,3.4561,3.4539,3.4409,3.4386,3.4363,3.4298,3.4301,3.4314,3.4296,3.4391,3.4941,3.588,3.6614,3.7412,3.8327,3.91,3.9418,3.9492,4.0269,4.0759,4.1104,4.1663,4.2083,4.2432,2.3925,2.4855,2.5707,2.5707,2.5701,2.5698,2.5703,2.5671,2.5648,2.56,2.5628,2.5643,2.5595,2.6048,2.6645,2.7336,2.7226,2.7394,2.8055,2.7433,2.7024,2.6974,2.6478,2.6185,2.6149,2.5667,2.5601,2.6063,2.5601,2.5582,2.6013,2.5522,2.5753,2.6598,2.7468,2.8294,2.9116,2.9994,3.054,3.0881,3.1795,3.1677,3.1133,3.2833,3.3385,3.3401,3.4222,3.4735,3.4905,0.0,3.37,0.0,0.0,3.2019,3.1753,2.9894,2.939,2.911,2.7654,2.7228,0.0,0.0,0.0,0.0,2.6081,0.0,2.6978,0.0,0.0,0.0,0.0,0.0,0.0,0.0,2.7792,2.8073,2.8066,2.8501,2.9043,2.9632,0.0,0.0,2.965,2.9477,2.9729,3.0671,3.1042,3.1808,3.32,3.3596,3.3986,3.4431,3.4473,3.445,3.434,3.434,3.4316,3.4227,3.424,3.4234,3.4234,3.4306,3.4825,3.5669,3.6072,3.6713,3.7542,3.8365,3.8702,3.8796,3.9721,4.0198,4.0386,4.0375,4.1161,4.2268,2.4763,2.5272,2.5696,2.5693,2.5693,2.5691,2.5707,2.5698,2.5684,2.5632,2.566,2.5777,2.5946,2.6948,2.7882,2.8582,2.9224,2.9588,2.9525,2.9097,2.863,2.8124,2.745,2.708,2.7064,2.6178,2.6015,2.6592,2.5775,2.5669,2.6226,2.5609,2.5868,2.6924,2.7584,2.845,2.9514,3.012,3.0392,3.0458,3.1352,3.1516,3.1362,3.2526,3.3502,3.4194,3.4118,3.4401,3.4685,3.3891,3.3288,0.0,3.2692,3.2023,3.1168,3.0601,2.9908,2.9147,2.8382,0.0,0.0,0.0,0.0,0.0,0.0,0.0,0.0,0.0,0.0,0.0,0.0,0.0,0.0,0.0,0.0,2.7788,2.7531,2.8221,2.8914,2.9418,2.9375,0.0,0.0,2.9272,2.9636,3.0294,3.0557,3.1343,3.278,3.3082,3.3564,3.4344,3.4386,3.4363,3.4269,3.4293,3.4269,3.4197,3.4197,3.4197,3.4197,3.4245,3.4758,3.5602,3.5703,3.6194,3.7037,3.789,3.8227,3.8327,3.9255,3.9738,3.987,3.9653,4.0573,4.1981,2.5668,2.5677,2.5703,2.5702,2.57,2.5698,2.5709,2.5703,2.5696,2.571,2.5694,2.6007,2.6773,2.8379,3.0417,3.2882,3.3122,3.3141,3.3135,3.1604,2.9932,2.8171,2.8066,2.8028,2.796,2.7046,2.6574,2.6612,2.5726,2.5311,2.5349,2.5311,2.6162,2.7675,2.775,2.876,3.0359,3.0392,3.0472,3.0653,3.1468,3.233,3.292,0.0,3.2436,3.4913,3.242,0.0,0.0,3.3186,3.2859,0.0,0.0,0.0,0.0,0.0,0.0,0.0,0.0,0.0,0.0,2.8206,0.0,0.0,0.0,0.0,2.7298,0.0,0.0,0.0,0.0,0.0,0.0,0.0,0.0,0.0,0.0,2.7923,2.9569,3.011,3.01,2.9837,0.0,2.9254,2.9336,2.9431,3.0222,3.1104,3.1995,3.278,3.3542,3.4274,3.4381,3.434,3.4197,3.4269,3.4269,3.4197,3.4197,3.4197,3.4197,3.4197,3.471,3.5602,3.5605,3.6091,3.6963,3.7914,3.83,3.8375,3.9326,3.9665,3.9682,4.0255,4.0793,4.1373,2.5701,2.5707,2.5691,2.5697,2.5703,2.5893,2.6464,2.6074,2.6715,2.9556,2.9439,3.006,3.2643,3.396,3.4983,3.5819,3.5878,3.5878,3.5878,3.3737,3.2441,3.2402,3.0186,2.9232,2.9776,2.8349,2.7569,2.7522,2.7218,2.7055,2.7026,2.7016,2.7599,2.8633,2.8733,2.9419,3.0462,3.0554,3.0603,3.0625,3.0944,3.2273,3.3918,0.0,3.2825,3.366,3.2724,3.3138,0.0,3.3179,3.3306,3.3662,3.2926,3.2483,3.2125,3.1535,3.137,0.0,0.0,0.0,3.1086,2.9938,0.0,0.0,0.0,0.0,0.0,0.0,0.0,0.0,0.0,0.0,0.0,0.0,0.0,0.0,0.0,2.7059,2.7904,2.8108,2.8445,2.8555,2.8301,0.0,2.9514,2.9532,2.9795,3.0339,3.1163,3.1899,3.2631,3.3408,3.3966,3.4245,3.4197,3.4221,3.4221,3.4197,3.4197,3.425,3.4325,3.4431,3.468,3.5077,3.5154,3.5381,3.572,3.6554,3.7213,3.7731,3.8609,3.9271,3.9731,3.967,4.0263,4.1255,2.5704,2.5693,2.5698,2.5705,2.5957,2.6358,2.6913,2.7288,2.8619,3.1697,3.2148,3.328,3.6144,3.7507,3.83,3.856,3.8873,3.8531,3.7278,3.6201,3.5182,3.4227,3.2583,3.1676,3.1637,2.9892,2.8815,2.847,2.8158,2.798,2.7933,2.7943,2.8345,2.9094,2.9217,2.9736,3.0546,3.0637,3.0847,3.1159,3.1523,3.2634,3.4072,0.0,3.3779,3.3877,0.0,3.3542,3.4145,3.3261,3.3566,3.4152,3.3351,3.2928,3.2667,3.2357,3.2095,3.1969,3.222,3.2329,0.0,3.1277,3.0403,0.0,2.8608,0.0,2.6776,0.0,0.0,0.0,0.0,0.0,0.0,0.0,0.0,0.0,0.0,2.6777,2.6472,2.709,2.7382,2.7562,2.7584,2.8559,2.9097,2.8862,2.9094,2.97,3.0733,3.119,3.2009,3.3356,3.3937,3.4197,3.4197,3.4298,3.4321,3.4269,3.4367,3.4435,3.448,3.4612,3.4718,3.4845,3.4947,3.5024,3.511,3.5947,3.673,3.7485,3.8381,3.9197,3.9873,3.959,4.0198,4.123,2.5699,2.5736,2.5754,2.5763,2.6406,2.6976,2.711,2.9228,3.1185,3.2281,3.394,3.5716,3.7551,3.917,4.0459,4.1277,4.2089,4.112,3.7804,3.898,3.799,3.3965,3.5109,3.5054,3.3394,3.1603,3.0246,2.9365,2.8531,2.8131,2.8124,2.8124,2.8502,2.9171,2.9252,2.9776,3.061,3.0605,3.1159,3.2109,3.2988,3.3358,3.3495,3.4304,3.5074,3.5512,3.3819,3.3732,3.4284,3.3488,3.3719,3.4163,3.3411,3.3692,3.4176,3.3305,3.3702,3.4274,3.3432,3.3262,3.3098,3.224,0.0,0.0,0.0,0.0,2.8493,0.0,0.0,0.0,0.0,0.0,0.0,0.0,0.0,0.0,0.0,2.702,2.5561,2.7085,2.7003,2.6913,2.7132,2.794,2.8206,2.754,2.8192,2.924,0.0,3.0766,3.1775,3.3994,3.4154,3.4221,3.4203,3.4483,3.4548,3.4431,3.4693,3.4752,3.4626,3.4756,3.4867,3.4942,3.5002,3.5074,3.5198,3.6069,3.6894,3.77,3.8556,3.9376,4.008,4.0038,4.0485,4.1165,2.5697,2.6222,2.6661,2.6663,2.6326,2.6695,2.8647,3.004,3.2336,3.6406,3.8454,4.0677,4.3651,4.4374,4.4726,4.494,4.459,4.394,4.3051,4.0984,3.9602,3.9141,3.6484,3.4774,3.428,3.2583,3.1287,3.0411,3.0093,2.992,2.9931,2.9918,3.0017,3.0211,3.0221,3.0397,3.0665,3.0671,3.0843,3.1211,3.2085,3.282,3.35,0.0,3.5197,3.5852,3.5294,3.4827,3.4525,3.4911,3.4745,3.4339,3.4137,3.3789,3.3277,3.2453,3.2839,3.3514,3.3375,3.3312,3.3405,3.3814,3.2279,3.0766,0.0,0.0,0.0,0.0,0.0,0.0,0.0,0.0,0.0,0.0,0.0,0.0,0.0,2.6675,2.6249,2.6651,2.6073,2.5815,2.6261,2.7243,2.7755,2.7587,2.8289,2.9201,3.0212,0.0,3.2243,3.3315,3.3999,3.4367,3.442,3.4529,3.4675,3.4851,3.4926,3.4962,3.4978,3.5108,3.5264,3.5418,3.5481,3.5512,3.5528,3.6306,3.7057,3.7833,3.8537,3.9295,3.9975,4.0034,4.0207,4.038,2.5648,2.6386,2.7242,2.7998,2.8621,2.9663,3.1537,3.2256,0.0,3.9062,4.0878,0.0,4.492,4.5838,4.6307,4.6307,4.5504,4.4687,4.3902,4.2388,4.1038,4.0008,3.8018,3.6216,3.4672,3.3326,3.201,3.0753,3.0678,3.0632,3.0637,3.0642,3.0629,3.0597,3.0604,3.0839,3.1241,3.1656,3.1641,3.1406,3.231,3.2957,0.0,3.4788,3.5569,3.6098,3.6742,3.6176,3.5127,3.5203,3.4865,3.4381,3.4022,3.3585,3.3089,3.2645,3.314,3.3829,3.3891,3.3921,3.4113,3.4991,3.3804,3.2527,3.2986,3.2057,3.1491,0.0,3.1448,3.0468,0.0,0.0,0.0,0.0,0.0,0.0,0.0,2.6715,2.6252,2.699,2.6327,2.5761,2.5659,2.6861,2.7503,2.7179,2.8179,0.0,0.0,0.0,3.2044,3.3063,3.4401,3.4924,3.4572,3.5173,3.534,3.5049,3.5149,3.5216,3.5181,3.5336,3.5445,3.557,3.5665,3.5648,3.5657,3.6428,3.7151,3.7907,3.8918,3.9619,3.9982,4.0139,4.0099,4.0015,2.578,2.6615,2.7813,2.9329,3.1841,3.4109,0.0,3.5801,0.0,4.1103,0.0,4.355,4.4292,4.5637,4.6475,4.6475,4.5678,4.4472,4.2846,4.3333,4.2251,3.897,3.934,3.8088,3.4759,3.3779,3.2453,3.0703,3.0703,3.0704,3.0697,3.0711,3.0676,3.0623,3.0718,3.12,3.1972,3.2772,3.2635,3.1924,3.2989,3.3334,3.3417,3.5174,3.5825,3.6025,3.7483,3.7092,3.5795,3.5156,3.4661,3.4221,3.3524,3.3142,3.2967,3.2979,3.3587,3.4305,3.4405,3.4573,3.4901,3.5782,3.5291,3.4599,3.4589,3.4,3.3693,3.4447,3.2844,3.217,0.0,0.0,0.0,2.7299,0.0,0.0,0.0,2.7509,2.6497,2.7853,2.7276,0.0,2.5463,2.6699,2.722,2.6487,2.7821,0.0,0.0,0.0,3.1729,3.3156,3.4913,3.5548,3.4925,3.593,3.6055,3.5331,3.5468,3.5476,3.536,3.547,3.5534,3.5538,3.5654,3.5667,3.5669,3.6593,3.743,3.8261,3.9547,4.0081,4.0155,4.0277,4.0175,3.9977,2.6801,2.7971,2.9175,2.9542,3.2829,3.6709,4.048,4.1655,4.2652,4.4122,4.6329,4.7821,4.7972,4.7616,4.7361,4.7361,4.6573,0.0,4.4601,4.4017,4.2795,4.073,3.9414,3.744,3.4686,3.3755,3.2478,3.0784,3.0736,3.0698,3.0711,3.0691,3.069,3.0711,3.139,3.1783,3.1988,3.2166,3.1757,3.1145,3.2745,3.2963,3.2519,3.4256,3.492,3.4979,3.5263,3.5593,3.5981,3.649,3.5254,3.3492,3.3345,3.2318,3.1164,3.1222,3.1865,3.2678,3.3415,3.4144,3.4915,3.5774,3.5286,3.4601,3.4595,3.4484,3.4417,3.4578,3.4244,3.3906,3.3847,0.0,0.0,0.0,0.0,0.0,0.0,0.0,2.9504,2.909,2.8274,2.7391,2.6448,2.6581,2.6378,2.5601,2.7002,0.0,0.0,0.0,3.2597,0.0,3.4604,0.0,0.0,0.0,3.5867,3.6581,3.596,3.5651,3.5639,3.5646,3.5667,3.5667,3.5697,3.5688,3.5794,3.7225,3.8608,3.9898,4.02,4.0351,4.0351,4.0376,4.0346,4.0332,2.9547,3.0214,3.1362,3.3179,3.6268,0.0,0.0,4.5842,4.6653,4.5794,4.5989,4.6383,4.683,4.691,4.71,4.7569,4.6797,4.6127,4.5703,4.4433,4.2925,4.1186,3.9435,3.7297,3.4714,3.3799,3.2942,3.2108,0.0,0.0,0.0,0.0,3.0923,3.1363,3.2205,3.259,3.2601,0.0,0.0,3.1496,3.2368,3.2472,3.2241,3.3532,3.4315,3.4644,3.4195,3.4569,3.5403,3.6255,3.5419,3.4027,3.4027,3.315,3.2108,3.214,3.2778,3.3548,3.3961,3.4713,3.5361,3.533,3.5331,3.5213,3.4745,3.4993,3.5337,3.5337,3.5332,3.4929,3.3646,3.1942,0.0,0.0,0.0,0.0,0.0,0.0,3.0514,3.0037,2.924,2.8189,2.6795,2.6612,2.6612,2.66,2.7708,0.0,0.0,0.0,3.2226,0.0,0.0,0.0,3.5871,0.0,3.6138,3.6223,3.5836,3.5673,3.5704,3.5697,3.5707,3.5707,3.5698,3.5708,3.5814,3.7404,3.8992,4.0444,4.0404,4.0463,4.0552,4.0565,4.0597,4.0578,3.261,3.281,3.3825,3.707,3.9752,4.2446,4.5438,4.8059,4.9064,4.7343,4.6073,4.5525,4.6032,4.6546,4.7123,4.7806,4.6892,4.6136,4.5776,4.4452,4.2753,4.064,3.9222,3.7315,3.4755,3.3844,3.3278,3.3034,0.0,0.0,0.0,0.0,3.1688,3.2504,3.3172,0.0,0.0,0.0,3.2172,3.2026,3.2072,3.2101,3.2179,3.2868,3.3651,3.4315,3.3437,3.3688,3.4569,3.5427,3.5137,3.4453,3.4642,3.4107,3.3402,3.3393,3.4017,3.4695,3.4691,3.5339,3.5834,3.5156,3.5488,3.582,3.5137,3.5508,3.5996,3.5996,3.5992,3.5476,3.3721,3.2578,0.0,0.0,0.0,0.0,0.0,0.0,3.1446,3.0962,3.0204,2.8918,2.6907,2.6722,2.6964,2.7538,2.8313,0.0,2.9685,0.0,0.0,0.0,0.0,3.5043,3.5076,0.0,3.6064,3.562,3.5461,3.5502,3.5715,3.5707,3.5795,3.5969,3.597,3.6193,3.6629,3.7901,3.9197,4.0374,4.0281,4.0339,4.0461,4.0488,4.0664,4.0771,3.513,3.5433,3.6276,3.8907,0.0,4.3571,4.4741,4.7047,4.8935,4.9725,5.0322,5.0403,4.9703,4.9036,4.8669,4.8682,4.7217,4.5637,4.404,4.3789,4.2223,3.8881,3.8588,3.7315,3.4764,3.3858,3.3005,0.0,0.0,3.152,0.0,0.0,0.0,0.0,0.0,0.0,0.0,3.3541,3.2764,3.2087,3.2109,3.2109,3.2109,3.2187,3.2753,3.3417,3.2539,3.277,3.3649,3.4525,3.4237,3.3652,3.4453,3.4096,3.3402,3.3393,3.4022,3.4706,3.4695,3.5332,3.5986,3.5898,3.5937,3.5973,3.5898,3.5937,3.5996,3.5996,3.5996,3.5467,3.3712,3.4552,3.4978,0.0,0.0,0.0,0.0,0.0,3.3671,3.2134,3.1203,2.9643,2.704,2.6794,2.6815,2.6884,2.7525,0.0,0.0,0.0,0.0,3.1768,3.3306,3.4203,3.4385,3.4543,3.4971,3.5666,3.4943,3.5009,3.5795,3.5737,3.6135,3.6871,3.6871,3.7773,3.9247,3.9411,3.9555,3.9702,3.9675,3.9685,3.9704,3.9761,4.0293,4.0866,0.0,0.0,0.0,0.0,0.0,0.0,0.0,4.8968,4.9264,4.9235,4.9551,4.9679,4.9419,4.8623,4.8119,4.8086,4.6993,4.5971,4.5187,4.4195,4.2516,3.9993,3.8969,3.7497,3.5468,3.4604,3.4254,0.0,0.0,0.0,0.0,0.0,0.0,0.0,0.0,3.4569,3.4544,3.3717,3.2866,3.2147,3.2674,3.2242,3.1381,3.1906,3.2645,3.3222,3.1875,3.2243,3.3375,3.3234,3.3299,3.3555,3.4434,3.4452,3.4178,3.4179,3.4805,3.5488,3.5486,3.572,3.5876,3.5341,3.5613,3.5867,3.5341,3.5623,3.5996,3.5996,3.5996,3.5781,3.5095,3.4673,3.4556,3.4863,0.0,0.0,0.0,0.0,3.4803,3.3083,3.2107,3.0739,2.8567,2.7928,2.8037,0.0,0.0,0.0,0.0,0.0,0.0,3.2459,0.0,3.4218,3.4306,3.4855,3.5046,3.4914,3.5166,3.5453,3.5807,3.5765,3.625,3.71,3.7607,3.852,3.9664,3.9665,3.9976,4.0441,4.044,4.0449,4.0449,4.0466,4.0688,4.0949,4.2214,0.0,4.3618,0.0,4.6247,4.6997,4.9195,4.9234,4.8808,4.8256,4.8451,4.8594,4.8502,4.7966,4.758,4.7567,4.6762,4.5981,4.5356,4.4194,4.2622,4.0505,3.911,0.0,3.6277,3.5234,3.4974,3.5554,3.4339,0.0,0.0,0.0,0.0,0.0,3.4988,3.4975,3.492,3.4121,3.326,3.2513,3.3143,3.2656,3.1601,3.1953,3.2791,3.3529,3.1576,3.1791,3.2925,3.2361,3.2383,3.2831,3.3964,3.4316,3.4375,3.4629,3.5137,3.5664,3.5937,3.5987,3.5814,3.5203,3.5505,3.5775,3.5155,3.5517,3.5976,3.5996,3.5996,3.5996,3.5996,3.4996,3.4556,3.5764,0.0,0.0,0.0,3.5761,0.0,3.358,3.2426,3.1142,2.9588,2.8925,2.8944,0.0,0.0,0.0,0.0,0.0,0.0,0.0,0.0,0.0,3.3944,3.4823,3.5126,3.4821,3.526,3.586,3.6606,3.6844,3.7272,3.7902,3.876,3.9479,4.006,4.0062,4.0276,4.0624,4.0613,4.063,4.0626,4.0618,4.0785,4.0999,4.5344,4.515,4.5092,4.6786,4.7096,4.6806,4.5993,4.6593,4.7154,4.7197,4.7981,4.8238,4.7582,4.756,4.7572,4.7508,4.6641,4.5343,4.3548,4.3419,4.2241,0.0,0.0,3.8001,3.7108,3.5513,3.4706,3.4707,0.0,0.0,3.3435,0.0,3.5047,3.5873,3.5873,3.5879,3.5823,3.5038,3.4135,3.3289,3.3372,3.3396,3.328,3.2418,3.318,3.4334,3.1735,3.1378,3.2114,3.2104,3.1535,3.1122,3.2865,3.3413,3.3574,3.4453,3.4707,3.4902,3.5762,3.5957,3.5898,3.5883,3.5832,3.5795,3.5786,3.5848,3.5915,3.5996,3.5996,3.5996,3.5996,3.5976,3.5957,3.5914,0.0,0.0,0.0,3.5224,0.0,3.3492,3.1934,3.0547,2.9596,2.9483,2.9102,0.0,0.0,0.0,0.0,0.0,0.0,3.2952,3.3073,0.0,3.3111,3.4042,3.4935,3.5776,3.5068,3.6031,3.8494,3.9286,3.9648,3.9703,4.0519,4.0888,4.0888,4.0888,4.0422,3.9723,3.9721,3.9715,3.9726,3.9723,4.0254,4.0985,4.6513,4.6565,4.6526,4.7013,4.7627,4.7956,4.7618,4.7811,4.7773,4.7212,4.7405,4.7318,4.6564,4.7067,4.7225,0.0,4.5765,4.4938,0.0,4.3144,4.1826,4.0327,3.8974,3.787,3.6987,3.6002,3.5525,3.5522,0.0,0.0,0.0,3.3885,3.4187,3.5006,3.4963,3.5246,3.5756,3.5482,3.4866,3.399,3.3484,3.2878,3.2216,3.1383,3.1753,3.2545,3.12,3.1648,3.2682,3.1574,3.1418,3.1675,3.1633,3.2031,3.2572,3.2851,3.3359,3.3867,3.4141,3.42,3.4197,3.4205,3.4592,3.4983,3.4971,3.5466,3.5918,3.5937,3.5976,3.5996,3.5996,3.5996,3.5996,3.5976,3.5488,0.0,3.4287,0.0,3.3291,3.1856,3.1702,3.1367,3.0463,3.0383,0.0,0.0,0.0,0.0,0.0,0.0,0.0,0.0,3.4303,0.0,3.4943,3.5869,3.6489,3.6758,3.7164,3.7764,3.8528,3.9331,3.9699,3.9742,4.0558,4.0936,4.0954,4.0917,4.1092,4.1392,4.1401,4.1427,4.1466,4.1478,4.1264,4.1077,4.7018,4.7157,4.7055,4.6684,4.7376,4.7859,4.7482,4.7424,4.7231,4.667,4.6651,4.6496,4.6065,4.6481,0.0,4.6162,4.556,4.4746,4.3673,4.2892,4.1622,3.9702,3.8709,3.7779,3.6914,3.6222,0.0,3.5895,3.597,3.5546,3.4658,3.4404,3.4384,3.4568,3.4839,3.5219,3.5669,3.5685,3.4988,3.3868,3.3699,3.2901,3.1755,3.1231,3.1564,3.213,3.1041,3.1527,3.2569,3.1551,3.1571,3.1927,3.1378,3.1571,3.2005,3.2089,3.2499,3.2984,3.3283,3.3332,3.3386,3.3673,3.4119,3.4584,3.4949,3.5441,3.5841,3.5888,3.593,3.5972,3.5996,3.5996,3.5898,3.5566,3.5059,3.4394,3.3516,0.0,3.2522,3.149,0.0,0.0,0.0,3.1109,3.1344,0.0,0.0,0.0,0.0,0.0,0.0,3.416,3.5254,0.0,3.6297,3.7187,3.7811,3.8149,3.9403,3.9809,3.9474,4.0648,4.1145,4.1148,4.1318,4.1421,4.1451,4.1435,4.1558,4.1799,4.2448,4.2525,4.2338,4.2635,4.2417,4.2013,4.6973,4.6997,4.6733,0.0,4.6457,0.0,4.5916,4.58,4.58,4.58,4.58,4.5838,4.5969,4.5868,4.5834,4.5974,0.0,0.0,0.0,4.2583,4.1532,3.8411,3.8221,3.7815,3.6983,3.6181,3.582,3.5894,3.5834,3.5366,3.453,3.526,3.5185,3.442,3.5238,3.5592,3.5607,3.566,3.4681,3.3156,3.3965,3.3285,3.1784,3.171,3.2232,3.2774,3.1159,3.1174,3.1965,3.1907,3.188,3.1891,3.1887,3.1802,3.1746,3.1931,3.1997,3.2147,3.2895,3.3109,3.3255,3.3949,3.4212,3.4588,3.5635,3.5781,3.5766,3.5947,3.5934,3.5916,3.5972,3.5995,3.5722,3.4902,3.4687,3.4297,3.3435,3.2619,3.2081,0.0,0.0,0.0,3.1051,3.1732,3.1849,0.0,0.0,0.0,0.0,0.0,3.3487,3.5743,3.5985,3.6465,3.7287,3.8084,3.898,3.9903,4.1593,4.1978,4.1231,4.2859,4.357,4.3457,4.2636,4.2285,4.2305,4.2351,4.1931,4.1426,4.2971,4.3134,4.2555,4.3303,4.355,4.3525,0.0,0.0,4.5902,4.575,4.5885,4.5993,4.5819,4.58,4.58,4.58,4.58,4.58,4.5838,4.581,4.5815,4.5834,4.4626,4.3573,4.2922,4.1822,4.1118,4.0973,3.9141,3.7997,3.7751,3.6372,3.5733,3.5903,3.4539,3.379,3.3593,3.3033,3.2976,3.3393,3.4199,3.4911,3.5522,3.5547,3.4918,3.3872,3.3434,3.2605,3.1561,3.0898,3.1162,3.1834,3.1472,3.1923,3.2566,3.1952,3.1787,3.1815,3.1767,3.1322,3.0817,3.0859,3.0872,3.0925,3.1116,3.16,3.2097,3.2269,3.3308,3.4697,3.6214,3.6157,3.596,3.66,3.6278,3.5885,3.585,3.5844,3.5809,3.5644,3.4531,3.3398,3.2455,3.2195,3.1807,0.0,3.2551,3.3682,3.3628,3.3258,3.3214,0.0,0.0,0.0,3.4956,3.6246,3.664,3.5976,3.7206,3.8296,3.9156,3.937,4.0231,4.1772,4.2857,4.3266,4.3064,4.3437,4.3589,4.3552,4.3301,4.3183,4.3183,4.3203,4.3496,4.3944,4.4335,4.4374,4.4237,4.4412,4.4095,4.3679,4.607,4.5892,4.5651,4.57,4.5731,4.5757,4.58,4.58,4.58,4.58,4.58,4.58,4.58,4.5791,4.5626,4.524,4.4341,4.3616,4.3196,4.1909,4.0868,4.0145,3.8791,3.7674,3.6862,3.6009,3.5611,3.5756,3.445,3.3779,3.3751,3.32,3.3158,3.3585,3.4417,3.5064,3.5493,3.5493,3.4776,3.3564,3.309,3.2154,3.0996,3.0919,3.1148,3.1555,3.1993,3.2218,3.2365,3.2694,3.2312,3.1763,3.2119,3.1912,3.1364,3.0593,3.0684,3.1043,3.1011,3.1607,3.2327,3.2711,3.3794,3.5116,3.644,3.6207,3.6041,3.7259,3.6917,3.6396,3.6406,3.6401,3.6156,3.5386,3.4199,3.3138,3.255,3.2197,3.2074,3.222,3.3585,3.4652,3.501,3.5074,3.5139,3.5232,3.5923,0.0,3.7064,3.9095,3.9462,3.7795,3.9357,4.046,4.094,4.1334,4.2013,4.2953,4.3435,4.3863,4.4253,4.4222,4.4415,4.4758,4.4325,4.413,4.4099,4.4133,4.4175,4.4273,4.5073,4.5148,4.4848,4.5206,4.5091,4.4818,4.5362,4.5512,4.5632,4.5648,4.5712,4.5771,4.5786,4.58,4.58,4.58,4.58,4.58,4.58,4.5791,4.5452,4.4583,4.4365,4.3948,4.315,4.2225,4.0703,3.8474,3.8012,3.7145,3.5714,3.556,3.5476,3.5394,3.4623,3.4196,3.4118,3.4107,3.4137,3.4237,3.5122,3.543,3.5315,3.5315,3.4372,3.2891,3.2756,3.1911,3.0758,3.1373,3.1717,3.1996,3.2723,3.2535,3.218,3.3615,3.3044,3.1892,3.2648,3.2708,3.2229,3.083,3.1085,3.1821,3.1641,3.2314,3.3262,3.4074,3.4793,3.558,3.6636,3.6305,3.6247,3.7919,3.766,3.7119,3.7055,3.7045,3.6516,3.4944,3.3971,3.3381,3.3214,0.0,3.2949,3.4288,3.5007,3.5657,3.6386,3.7261,3.7581,3.7097,3.8887,3.9783,3.9298,4.1461,4.2045,4.0606,4.1816,4.249,4.25,4.3357,4.3806,4.3806,4.3927,4.4382,4.5102,4.5098,4.5507,4.6154,4.5414,4.5059,4.5006,4.5059,4.4605,4.4039,4.5526,4.565,4.5072,4.5764,4.6037,4.6093,4.5165,4.5339,4.538,4.5438,4.5549,4.5635,4.5715,4.5757,4.58,4.58,4.58,4.58,4.58,4.5791,4.5452,4.4577,4.3759,4.3262,4.3111,4.1662,4.0607,4.0138,3.806,3.6776,3.6507,3.5853,3.5168,3.4505,3.3597,3.3191,3.3267,3.3169,3.3493,3.4237,3.5122,3.5084,3.4391,3.4391,3.3814,3.2833,3.2148,3.2128,3.2436,3.1834,3.2467,3.371,3.3795,3.3742,3.367,3.3938,3.3349,3.2565,3.2761,3.2302,3.1656,3.1454,3.196,3.2467,3.1714,3.2641,3.4033,3.4906,3.5209,3.5733,3.7333,3.7098,3.6991,3.8676,3.8397,3.7616,3.6889,3.6754,3.6492,3.5646,3.4697,3.4071,3.4089,0.0,3.5032,3.5047,3.7924,3.9898,3.9921,4.0276,4.1031,4.2318,4.1473,4.146,4.2747,4.3877,4.4371,4.4124,4.3656,4.3397,4.3397,4.4267,4.4708,4.4708,4.5436,4.5864,4.6001,4.6001,4.6079,4.6196,4.6057,4.599,4.5982,4.5935,4.5838,4.5713,4.5985,4.6013,4.5916,4.6035,4.6093,4.6093,4.4055,4.4344,4.4576,4.4135,4.4533,4.491,4.4941,4.5407,4.5727,4.57,4.5712,4.5742,4.5742,4.5746,4.5592,4.5235,4.4815,4.4148,4.3226,4.1528,4.0327,3.9865,3.8286,3.6978,3.6073,3.568,3.5091,3.426,3.3352,3.2928,3.2987,3.2916,3.3372,3.4237,3.5122,3.5276,3.4911,3.4911,3.4391,3.3526,3.2679,3.2314,3.2256,3.2295,3.2768,3.3513,3.4389,3.4397,3.4056,3.4534,3.3555,3.2269,3.3216,3.2891,3.2201,3.2248,3.2516,3.2905,3.3412,3.4106,3.481,3.5209,3.601,3.7018,3.8262,3.8635,3.9185,4.0883,4.0588,3.9873,3.9523,3.9065,3.8638,3.829,3.6348,0.0,0.0,3.6752,3.6987,3.9084,4.0615,4.1989,4.3273,4.3236,4.3662,4.491,4.3851,4.3701,4.4929,4.4929,4.5326,4.6268,4.5443,4.5007,4.5007,4.5397,4.5592,4.5592,4.5533,4.5748,4.6176,4.5709,4.5767,4.6196,4.6208,4.6201,4.6205,4.6177,4.5857,4.5451,4.5918,4.5802,4.5451,4.5918,4.6122,4.6149,4.3558,4.3962,4.4231,4.3561,4.4075,4.4551,4.4551,4.5211,4.5684,4.5637,4.553,4.5519,4.5692,4.5557,4.5471,4.5496,4.5316,4.4534,4.2999,4.1234,3.988,3.9061,3.802,3.6845,3.5534,3.5495,3.5078,3.4199,3.3526,3.3199,3.3199,3.3199,3.366,3.4526,3.4988,3.5103,3.4911,3.4911,3.4507,3.3833,3.316,3.2641,3.2352,3.2948,3.3152,3.3302,3.4768,3.4868,3.4408,3.5078,3.4021,3.2651,3.3758,3.3643,3.3067,3.287,3.2966,3.3432,3.4894,3.5315,3.5411,3.5795,3.6922,3.8227,3.9435,4.0219,4.1119,4.2654,4.2441,4.1956,4.18,4.1242,4.0707,4.0479,0.0,0.0,0.0,3.9084,3.9333,4.2508,4.3057,4.393,4.5827,4.587,4.5994,4.6463,4.5871,4.5715,4.617,4.5566,4.5826,4.7164,4.6762,4.6391,4.6162,4.6154,4.6146,4.6111,4.5401,4.544,4.6063,4.5437,4.5531,4.6154,4.6189,4.6208,4.6193,4.6193,4.5776,4.5196,4.5857,4.5702,4.5215,4.5877,4.6158,4.6193,4.4838,4.5184,4.5203,4.5126,4.5227,4.5323,4.5323,4.5543,4.57,4.57,4.5104,4.4954,4.5722,4.5128,4.4664,4.4597,4.3863,4.2999,4.2068,4.0433,3.9089,3.8234,3.6633,3.5695,3.5496,3.5502,3.5066,3.4199,3.4141,3.4103,3.4103,3.4103,3.4564,3.5372,3.4622,3.3853,3.3083,3.3083,3.3045,3.2987,3.2929,3.3353,3.4026,3.4005,3.4011,3.4126,3.499,3.5262,3.5205,3.5281,3.5166,3.4913,3.4304,3.4068,3.3857,3.3109,3.3468,3.4282,3.5081,3.5315,3.568,3.7298,3.7801,3.8514,4.0962,4.156,4.1852,4.2734,4.2868,4.2581,4.185,4.1658,4.1404,4.0693,0.0,0.0,4.0539,4.1651,4.2543,4.2776,4.5128,4.6778,4.6894,4.7887,4.8206,4.7454,4.7348,4.6977,4.6245,4.6147,4.6167,4.6284,4.7028,4.6968,4.6008,4.6008,4.5956,4.5822,4.5699,4.5667,4.5744,4.5867,4.5959,4.6017,4.6146,4.6196,4.6196,4.6196,4.6157,4.6098,4.6176,4.6157,4.6098,4.6176,4.6196,4.6196,4.2908,4.2928,4.2794,4.2297,4.2642,4.3006,4.3044,4.3539,4.4075,4.4518,4.3904,4.3765,4.466,4.392,4.3421,4.357,4.3162,4.252,4.1658,4.0526,3.9146,3.743,3.6226,3.5596,3.556,3.5515,3.5066,3.4199,3.4199,3.391,3.341,3.3949,3.4083,3.3891,3.3983,3.3844,3.3523,3.3379,3.3655,3.4094,3.3689,3.3714,3.4016,3.4093,3.4087,3.4203,3.5023,3.533,3.5364,3.5364,3.5033,3.4658,3.4883,3.4609,3.4205,3.4449,3.5103,3.5685,3.5484,3.5792,3.6464,3.7651,3.9016,4.048,4.1991,4.2962,4.3847,4.4876,4.5048,4.4953,4.4825,4.4384,4.4115,4.4362,0.0,4.1946,4.4147,4.3592,4.3729,4.5765,4.661,4.7647,4.9251,4.8973,4.8801,4.9093,4.8103,4.7362,4.7025,4.7444,4.7435,4.6894,4.7689,4.7475,4.6142,4.6046,4.5958,4.5914,4.5822,4.5764,4.5764,4.5835,4.5925,4.6008,4.6047,4.6111,4.6196,4.6196,4.5884,4.5455,4.5981,4.5864,4.5455,4.6001,4.6196,4.6196,4.2297,4.2087,4.1705,4.1112,4.1455,4.1837,4.1777,4.2276,4.2848,4.3354,4.2709,4.2543,4.3464,4.2714,4.2333,4.2755,4.2489,4.203,4.138,4.0368,3.8887,3.6818,3.5913,3.5438,3.5449,3.5402,3.5053,3.4419,3.4419,3.4112,3.3527,3.3849,3.371,3.3154,3.3085,3.3211,3.3443,3.3308,3.375,3.451,3.4291,3.4039,3.3849,3.4259,3.4261,3.4146,3.5023,3.5364,3.5412,3.5369,3.4966,3.4597,3.5147,3.4932,3.463,3.5225,3.6022,3.6584,3.6045,3.668,3.7704,3.8469,4.0039,4.1742,4.3073,4.4353,4.5489,4.626,4.665,4.683,4.6781,4.6321,4.6033,4.6302,4.442,4.3747,4.6089,4.5148,4.5071,4.7357,4.7499,4.8106,4.9882,4.9151,4.8758,4.9211,4.8107,4.7294,4.7021,4.7735,4.7894,4.7281,4.8075,4.7863,4.6536,4.6104,4.5879,4.5848,4.5728,4.5669,4.5703,4.5998,4.6203,4.629,4.6366,4.6464,4.6536,4.6293,4.5852,4.5358,4.5969,4.5832,4.5377,4.5969,4.6209,4.6209,4.3673,4.3349,4.2718,4.2531,4.255,4.2487,4.2219,4.229,4.2382,4.2401,4.1629,4.1426,4.2303,4.1677,4.1485,4.2215,4.172,4.1303,4.1184,3.9738,3.8153,3.6468,3.5572,3.51,3.5105,3.5105,3.5034,3.4906,3.4906,3.4889,3.487,3.4017,3.3636,3.3633,3.1941,3.1692,3.2504,3.2504,3.2966,3.3769,3.4584,3.4395,3.3714,3.4712,3.4587,3.4041,3.5043,3.5446,3.5479,3.5258,3.5209,3.5157,3.4945,3.5037,3.5229,3.5209,3.5933,3.6719,3.6719,3.7988,3.9442,3.9966,4.0769,4.1988,4.426,4.5677,4.6483,4.6502,4.7337,4.7836,4.7048,4.6913,4.6624,4.574,4.5586,4.5586,4.5605,4.6355,4.6876,4.6801,4.7667,4.8275,4.8211,4.8393,4.8195,4.7455,4.7262,4.6823,4.5938,4.6735,4.7201,4.7209,4.8044,4.8072,4.7222,4.6211,4.5635,4.5495,4.5438,4.54,4.5438,4.6427,4.6879,4.6912,4.7167,4.7291,4.7242,4.65,4.6196,4.6203,4.6196,4.6196,4.6203,4.6196,4.6203,4.6203,4.3538,4.2172,4.0846,4.1478,4.101,4.0545,4.0518,4.0453,4.0637,4.1184,4.0427,4.022,4.1236,4.0384,3.9896,4.0292,4.0008,3.9577,3.9062,3.8667,3.7999,3.6944,3.6329,3.573,3.5105,3.5105,3.5034,3.4906,3.4906,3.4889,3.4889,3.4624,3.4188,3.3581,3.2373,3.2317,3.3072,3.233,3.2831,3.4164,3.4555,3.4519,3.4352,3.4794,3.4901,3.483,3.4994,3.5141,3.5258,3.5054,3.5001,3.4982,3.4927,3.5704,3.6597,3.6169,3.7077,3.8159,3.7728,3.8854,4.0181,4.0348,4.0788,4.1513,4.2754,4.3648,4.4405,4.5223,4.6228,4.6952,4.6896,4.6913,4.6817,4.6547,4.599,4.5797,4.6432,4.6201,4.622,4.6799,4.7141,4.7571,4.8203,4.7777,4.7403,4.7349,4.6765,4.627,4.5919,4.6666,4.7133,4.7133,4.7298,4.7256,4.6986,4.6735,4.6294,4.5651,4.5512,4.5476,4.5476,4.5781,4.5982,4.6055,4.6148,4.6278,4.6435,4.6208,4.6157,4.6195,4.6201,4.6201,4.6195,4.6209,4.6189,4.6201,4.2414,4.1143,3.9909,4.0382,4.0014,3.9599,3.9526,3.9452,3.957,4.0057,3.957,3.9405,4.005,3.9815,3.9537,3.9331,3.9253,3.9059,3.8721,3.8758,3.8432,3.7606,3.7005,3.6273,3.5439,3.5078,3.4851,3.4734,3.4734,3.4733,3.4693,3.4352,3.3917,3.3408,3.246,3.2512,3.3262,3.2624,3.3119,3.4316,3.4431,3.4473,3.4491,3.5047,3.5115,3.504,3.5647,3.5723,3.5569,3.5702,3.5671,3.5606,3.5606,3.6327,3.7112,3.6747,3.77,3.8819,3.846,3.9404,4.0489,4.0489,4.0863,4.138,4.2011,4.3088,4.4189,4.4867,4.6156,4.7088,4.6933,4.6913,4.6797,4.6432,4.5932,4.5778,4.6317,4.5932,4.5815,4.6354,4.6429,4.6653,4.7225,4.68,4.6535,4.6649,4.6266,4.5956,4.5841,4.6278,4.6694,4.7047,4.6959,4.691,4.6889,4.6906,4.6463,4.5651,4.5512,4.5457,4.5476,4.5765,4.5975,4.6097,4.6147,4.6283,4.643,4.6134,4.6046,4.6088,4.6013,4.6005,4.5996,4.5969,4.5987,4.6013,4.1038,4.0472,3.976,3.9539,3.9539,3.9451,3.9156,3.9175,3.9194,3.9101,3.9091,3.9042,3.891,3.9711,3.9898,3.9044,3.9219,3.9439,3.9527,3.9577,3.9239,3.8426,3.7568,3.6742,3.6006,3.5071,3.458,3.4495,3.4495,3.4473,3.4344,3.3571,3.3235,3.3216,3.2352,3.2467,3.3276,3.3183,3.3608,3.4293,3.4293,3.4282,3.4383,3.5366,3.5346,3.4996,3.6637,3.6757,3.6247,3.6784,3.6907,3.6779,3.6705,3.6914,3.7183,3.7132,3.7972,3.8956,3.8993,3.9727,4.0473,4.0473,4.0914,4.1396,4.1688,4.3426,4.4972,4.4972,4.6532,4.7644,4.6932,4.6778,4.6528,4.572,4.5586,4.5586,4.5586,4.5586,4.5622,4.5693,4.5693,4.569,4.57,4.5715,4.5719,4.5709,4.5819,4.5847,4.5709,4.5703,4.6066,4.6841,4.6827,4.6773,4.6773,4.6666,4.6244,4.5586,4.5438,4.54,4.54,4.6086,4.6468,4.6589,4.6718,4.6799,4.6808,4.6119,4.5859,4.5854,4.5751,4.5692,4.5684,4.5621,4.5631,4.5712,4.258,4.1485,4.0307,4.0394,4.0307,3.9965,3.9194,3.9677,3.9863,3.9194,3.9544,3.9623,3.9053,3.9017,3.9024,3.8939,3.9129,3.9183,3.9064,3.938,3.9458,3.9107,3.7802,3.6981,3.6676,3.5308,3.458,3.4495,3.4495,3.4409,3.4245,3.4035,3.3889,3.3702,3.2958,3.3099,3.3852,3.3221,3.3478,3.4293,3.4245,3.4538,3.5003,3.5247,3.5632,3.6136,3.6463,3.6628,3.6662,3.6739,3.7147,3.7522,3.6891,3.7594,3.8566,3.8139,3.8677,3.946,3.9834,4.008,4.0269,4.0269,4.0473,4.0663,4.0596,4.1951,4.3253,4.3253,4.4786,4.6086,4.5913,4.5874,4.5817,4.5624,4.5586,4.5586,4.5586,4.5586,4.5622,4.5693,4.5693,4.569,4.57,4.575,4.575,4.57,4.5771,4.5786,4.57,4.575,4.5827,4.5902,4.589,4.5855,4.58,4.5726,4.5611,4.5438,4.5361,4.5319,4.5338,4.5531,4.5626,4.5606,4.5687,4.5725,4.5734,4.5574,4.5572,4.5653,4.562,4.562,4.5626,4.5602,4.5617,4.562,4.2342,4.1689,4.0886,4.0607,4.0468,4.0104,3.9231,3.9491,3.9621,3.9157,3.9378,3.9431,3.9005,3.9202,3.9393,3.9494,3.9352,3.9183,3.9007,3.9229,3.9122,3.8633,3.7517,3.6702,3.6236,3.5016,3.4386,3.434,3.434,3.434,3.4293,3.4197,3.4124,3.408,3.358,3.3635,3.4012,3.3586,3.3685,3.4099,3.4074,3.4497,3.5138,3.5524,3.5966,3.6454,3.719,3.7571,3.7701,3.7646,3.7895,3.8172,3.785,3.8322,3.8971,3.8742,3.9064,3.9556,3.9832,4.0245,4.063,4.0671,4.1036,4.1189,4.0386,4.1608,4.2889,4.2889,4.4341,4.5586,4.5586,4.5586,4.5586,4.5586,4.5586,4.5586,4.5586,4.5586,4.5622,4.5693,4.5706,4.5719,4.5742,4.5776,4.5795,4.5765,4.5761,4.5727,4.5665,4.5703,4.5671,4.5599,4.5566,4.555,4.5495,4.54,4.5341,4.5341,4.5319,4.5297,4.5297,4.5275,4.5275,4.5297,4.5338,4.5361,4.5399,4.5399,4.5451,4.55,4.5466,4.5468,4.5451,4.5379,4.5396,4.5464,4.1423,4.1386,4.1126,4.0308,4.029,4.0104,3.9231,3.9231,3.9268,3.912,3.9147,3.9145,3.891,3.9501,3.9889,3.9949,3.95,3.9192,3.9045,3.9073,3.8804,3.8108,3.7206,3.6389,3.5695,3.4674,3.4173,3.4197,3.4197,3.4245,3.4316,3.4173,3.4124,3.4197,3.4049,3.3947,3.3947,3.3998,3.3972,3.3921,3.3947,3.4392,3.511,3.5899,3.6274,3.6575,3.8071,3.8652,3.8719,3.8664,3.8646,3.8695,3.8833,3.8939,3.895,3.9073,3.9384,3.9727,3.9782,4.0528,4.131,4.1355,4.1911,4.2088,4.0844,4.1933,4.3211,4.3227,4.4456,4.555,4.5586,4.5586,4.5586,4.5586,4.5586,4.5586,4.5586,4.5586,4.5622,4.5657,4.5687,4.5696,4.5757,4.5771,4.5776,4.5785,4.57,4.5668,4.5596,4.5601,4.5586,4.5568,4.5513,4.5476,4.5457,4.536,4.5297,4.5297,4.5297,4.5297,4.5256,4.517,4.517,4.5275,4.5275,4.5319,4.5341,4.5341,4.5341,4.5341,4.5298,4.5275,4.5235,4.5148,4.5154,4.5262,4.0698,4.055,4.029,3.9435,3.99,4.0104,3.9231,3.9733,3.9937,3.9194,3.9647,3.9756,3.8966,3.8944,3.8969,3.8988,3.9024,3.8979,3.8833,3.8989,3.9036,3.8859,3.7477,3.6578,3.6379,3.4818,3.4074,3.4197,3.4197,3.4148,3.4049,3.4023,3.3921,3.378,3.3815,3.3788,3.3753,3.3921,3.3998,3.3998,3.4124,3.4574,3.5256,3.5946,3.6552,3.7192,3.818,3.8664,3.8881,3.8862,3.8862,3.8862,3.8892,3.8979,3.9073,3.9101,3.9732,4.048,4.0597,4.1324,4.2063,4.2139,4.2306,4.2411,4.2075,4.2845,4.3659,4.3768,4.4573,4.5322,4.5568,4.5586,4.5586,4.5586,4.5586,4.5586,4.5586,4.555,4.555,4.5622,4.5603,4.562,4.562,4.5637,4.562,4.562,4.562,4.5603,4.5603,4.5603,4.555,4.5419,4.5419,4.54,4.5338,4.5317,4.5297,4.5297,4.5297,4.5235,4.5125,4.517,4.517,4.5125,4.5192,4.5192,4.5129,4.5129,4.5129,4.5129,4.5148,4.5125,4.5125,4.5103,4.5106,4.5129,4.1813,4.1367,4.081,3.9974,4.0141,4.0104,3.9231,3.9435,3.9528,3.9157,3.9332,3.9386,3.9005,3.8921,3.9076,3.9508,3.9169,3.9124,3.9508,3.9132,3.8746,3.8274,3.7572,3.6953,3.6454,3.5662,3.5073,3.4655,3.4194,3.3972,3.3998,3.3921,3.3868,3.3868,3.3815,3.378,3.3771,3.4338,3.4594,3.4703,3.5225,3.5613,3.5928,3.6636,3.7051,3.7412,3.8154,3.851,3.8621,3.8621,3.8664,3.8755,3.8862,3.9007,3.9222,3.9788,3.9917,4.0147,4.114,4.1691,4.2111,4.266,4.3189,4.3528,4.345,4.3759,4.4046,4.384,4.4459,4.5137,4.5438,4.5476,4.5475,4.5635,4.562,4.5586,4.5586,4.5531,4.5513,4.5531,4.5531,4.5549,4.5601,4.5603,4.5603,4.5601,4.5531,4.5495,4.5495,4.5458,4.54,4.536,4.5341,4.5339,4.5297,4.5297,4.5297,4.5297,4.5297,4.5275,4.5213,4.5235,4.5235,4.5213,4.5235,4.5235,4.5213,4.5213,4.5213,4.5213,4.5213,4.5213,4.5213,4.517,4.5148,4.5148]},{"header":{"parameterUnit":"m.s-1","parameterCategory":1,"la1":30.6,"la2":28.766,"lo1":-90.7593,"lo2":-88.6598,"dy":0.0162,"dx":0.0183,"nx":116,"ny":114,"refTime":"2023-08-21T18:00:00:Z","depth":0,"parameterNumber":3,"parameterNumberName":"V-component_of_WINDS"},"data":[0.0,0.0,0.0,0.0,0.0,0.0,0.0,0.0,0.0,0.0,0.0,0.0,0.0,0.0,0.0,0.0,0.0,0.0,0.0,0.0,0.0,0.0,0.0,0.0,0.0,0.0,0.0,0.0,0.0,0.0,0.0,0.0,0.0,0.0,0.0,0.0,0.0,0.0,0.0,0.0,0.0,0.0,0.0,0.0,0.0,0.0,0.0,0.0,0.0,0.0,0.0,0.0,0.0,0.0,0.0,0.0,0.0,0.0,0.0,0.0,0.0,0.0,0.0,0.0,0.0,0.0,0.0,0.0,0.0,0.0,0.0,0.0,0.0,0.0,0.0,0.0,0.0,0.0,0.0,0.0,0.0,0.0,0.0,0.0,0.0,0.0,0.0,0.0,0.0,0.0,0.0,0.0,0.0,0.0,0.0,0.0,0.0,0.0,0.0,0.0,0.0,0.0,0.0,0.0,0.0,0.0,0.0,0.0,0.0,0.0,0.0,0.0,0.0,0.0,0.0,0.0,0.0,0.0,0.0,0.0,0.0,0.0,0.0,0.0,0.0,0.0,0.0,0.0,0.0,0.0,0.0,0.0,0.0,0.0,0.0,0.0,0.0,0.0,0.0,0.0,0.0,0.0,0.0,0.0,0.0,0.0,0.0,0.0,0.0,0.0,0.0,0.0,0.0,0.0,0.0,0.0,0.0,0.0,0.0,0.0,0.0,0.0,0.0,0.0,0.0,0.0,0.0,0.0,0.0,0.0,0.0,0.0,0.0,0.0,0.0,0.0,0.0,0.0,0.0,0.0,0.0,0.0,0.0,0.0,0.0,0.0,0.0,0.0,0.0,0.0,0.0,0.0,0.0,0.0,0.0,0.0,0.0,0.0,0.0,0.0,0.0,0.0,0.0,0.0,0.0,0.0,0.0,0.0,0.0,0.0,0.0,0.0,0.0,0.0,0.0,0.0,0.0,0.0,0.0,0.0,0.0,0.0,0.0,0.0,0.0,0.0,0.0,0.0,0.0,0.0,0.0,0.0,0.0,0.0,0.0,0.0,0.0,0.0,0.0,0.0,0.0,0.0,0.0,0.0,0.0,0.0,0.0,0.0,0.0,0.0,0.0,0.0,0.0,0.0,0.0,0.0,0.0,0.0,0.0,0.0,0.0,0.0,0.0,0.0,0.0,0.0,0.0,0.0,0.0,0.0,0.0,0.0,0.0,0.0,0.0,0.0,0.0,0.0,0.0,0.0,0.0,0.0,0.0,0.0,0.0,0.0,0.0,0.0,0.0,0.0,0.0,0.0,0.0,0.0,0.0,0.0,0.0,0.0,0.0,0.0,0.0,0.0,0.0,0.0,0.0,0.0,0.0,0.0,0.0,0.0,0.0,0.0,0.0,0.0,0.0,0.0,0.0,0.0,0.0,0.0,0.0,0.0,0.0,0.0,0.0,0.0,0.0,0.0,0.0,0.0,0.0,0.0,0.0,0.0,0.0,0.0,0.0,0.0,0.0,0.0,0.0,0.0,0.0,0.0,0.0,0.0,0.0,0.0,0.0,0.0,0.0,0.0,0.0,0.0,0.0,0.0,0.0,0.0,0.0,0.0,0.0,0.0,0.0,0.0,0.0,0.0,0.0,0.0,0.0,0.0,0.0,0.0,0.0,0.0,0.0,0.0,0.0,0.0,0.0,0.0,0.0,0.0,0.0,0.0,0.0,0.0,0.0,0.0,0.0,0.0,0.0,0.0,0.0,0.0,0.0,0.0,0.0,0.0,0.0,0.0,0.0,0.0,0.0,0.0,0.0,0.0,0.0,0.0,0.0,0.0,0.0,0.0,0.0,0.0,0.0,0.0,0.0,0.0,0.0,0.0,0.0,0.0,0.0,0.0,0.0,0.0,0.0,0.0,0.0,0.0,0.0,0.0,0.0,0.0,0.0,0.0,0.0,0.0,0.0,0.0,0.0,0.0,0.0,0.0,0.0,0.0,0.0,0.0,0.0,0.0,0.0,0.0,0.0,0.0,0.0,0.0,0.0,0.0,0.0,0.0,0.0,0.0,0.0,0.0,0.0,0.0,0.0,0.0,0.0,0.0,0.0,0.0,0.0,0.0,0.0,0.0,0.0,0.0,0.0,0.0,0.0,0.0,0.0,0.0,0.0,0.0,0.0,0.0,0.0,0.0,0.0,0.0,0.0,0.0,0.0,0.0,0.0,0.0,0.0,0.0,0.0,0.0,0.0,0.0,0.0,0.0,0.0,0.0,0.0,0.0,0.0,0.0,0.0,0.0,0.0,0.0,0.0,0.0,0.0,0.0,0.0,0.0,0.0,0.0,0.0,0.0,0.0,0.0,0.0,0.0,0.0,0.0,0.0,0.0,0.0,0.0,0.0,0.0,0.0,0.0,0.0,0.0,0.0,0.0,0.0,0.0,0.0,0.0,0.0,0.0,0.0,0.0,0.0,0.0,0.0,0.0,0.0,0.0,0.0,0.0,0.0,0.0,0.0,0.0,0.0,0.0,0.0,0.0,0.0,0.0,0.0,0.0,0.0,0.0,0.0,0.0,0.0,0.0,0.0,0.0,0.0,0.0,0.0,0.0,0.0,0.0,0.0,0.0,0.0,0.0,0.0,0.0,0.0,0.0,0.0,0.0,0.0,0.0,0.0,0.0,0.0,0.0,0.0,0.0,0.0,0.0,0.0,0.0,0.0,0.0,0.0,0.0,0.0,0.0,0.0,0.0,0.0,0.0,0.0,0.0,0.0,0.0,0.0,0.0,0.0,0.0,0.0,0.0,0.0,0.0,0.0,0.0,0.0,0.0,0.0,0.0,0.0,0.0,0.0,0.0,0.0,0.0,0.0,0.0,0.0,0.0,0.0,0.0,0.0,0.0,0.0,0.0,0.0,0.0,0.0,0.0,0.0,0.0,0.0,0.0,0.0,0.0,0.0,0.0,0.0,0.0,0.0,0.0,0.0,0.0,0.0,0.0,0.0,0.0,0.0,0.0,0.0,0.0,0.0,0.0,0.0,0.0,0.0,0.0,0.0,0.0,0.0,0.0,0.0,0.0,0.0,0.0,0.0,0.0,0.0,0.0,0.0,0.0,0.0,0.0,0.0,0.0,0.0,0.0,0.0,0.0,0.0,0.0,0.0,0.0,0.0,0.0,0.0,0.0,0.0,0.0,0.0,0.0,0.0,0.0,0.0,0.0,0.0,0.0,0.0,0.0,0.0,0.0,0.0,0.0,0.0,0.0,0.0,0.0,0.0,0.0,0.0,0.0,0.0,0.0,0.0,0.0,0.0,0.0,0.0,0.0,0.0,0.0,0.0,0.0,0.0,0.0,0.0,0.0,0.0,0.0,0.0,0.0,0.0,0.0,0.0,0.0,0.0,0.0,0.0,0.0,0.0,0.0,0.0,0.0,0.0,0.0,0.0,0.0,0.0,0.0,0.0,0.0,0.0,0.0,0.0,0.0,0.0,0.0,0.0,0.0,0.0,0.0,0.0,0.0,0.0,0.0,0.0,0.0,0.0,0.0,0.0,0.0,0.0,0.0,0.0,0.0,0.0,0.0,0.0,0.0,0.0,0.0,0.0,0.0,0.0,0.0,0.0,0.0,0.0,0.0,0.0,0.0,0.0,0.0,0.0,0.0,0.0,0.0,0.0,0.0,0.0,0.0,0.0,0.0,0.0,0.0,0.0,0.0,0.0,0.0,0.0,0.0,0.0,0.0,0.0,0.0,0.0,0.0,0.0,0.0,0.0,0.0,0.0,0.0,0.0,0.0,0.0,0.0,0.0,0.0,0.0,0.0,0.0,0.0,0.0,0.0,0.0,0.0,0.0,0.0,0.0,0.0,0.0,0.0,0.0,0.0,0.0,0.0,0.0,0.0,0.0,0.0,0.0,0.0,0.0,0.0,0.0,0.0,0.0,0.0,0.0,0.0,0.0,0.0,0.0,0.0,0.0,0.0,0.0,0.0,0.0,0.0,0.0,0.0,0.0,0.0,0.0,0.0,0.0,0.0,0.0,0.0,0.0,0.0,0.0,0.0,0.0,0.0,0.0,0.0,0.0,0.0,0.0,0.0,0.0,0.0,0.0,0.0,0.0,0.0,0.0,0.0,0.0,0.0,0.0,0.0,0.0,0.0,0.0,0.0,0.0,0.0,0.0,0.0,0.0,0.0,0.0,0.0,0.0,0.0,0.0,0.0,0.0,0.0,0.0,0.0,0.0,0.0,0.0,0.0,0.0,0.0,0.0,0.0,0.0,0.0,0.0,0.0,0.0,0.0,0.0,0.0,0.0,0.0,0.0,0.0,0.0,0.0,0.0,0.0,0.0,0.0,0.0,0.0,0.0,0.0,0.0,0.0,0.0,0.0,0.0,0.0,0.0,0.0,0.0,0.0,0.0,0.0,0.0,0.0,0.0,0.0,0.0,0.0,0.0,0.0,0.0,0.0,0.0,0.0,0.0,0.0,0.0,0.0,0.0,0.0,0.0,0.0,0.0,0.0,0.0,0.0,0.0,0.0,0.0,0.0,0.0,0.0,0.0,0.0,0.0,0.0,0.0,0.0,0.0,0.0,0.0,0.0,0.0,0.0,0.0,0.0,0.0,0.0,0.0,0.0,0.0,0.0,0.0,0.0,0.0,0.0,0.0,0.0,0.0,0.0,0.0,0.0,0.0,0.0,0.0,0.0,0.0,0.0,0.0,0.0,0.0,0.0,0.0,0.0,0.0,0.0,0.0,0.0,0.0,0.0,0.0,0.0,0.0,0.0,0.0,0.0,0.0,0.0,0.0,0.0,0.0,0.0,0.0,0.0,0.0,0.0,0.0,0.0,0.0,0.0,0.0,0.0,0.0,0.0,0.0,0.0,0.0,0.0,0.0,0.0,0.0,0.0,0.0,0.0,0.0,0.0,0.0,0.0,0.0,0.0,0.0,0.0,0.0,0.0,0.0,0.0,0.0,0.0,0.0,0.0,0.0,0.0,0.0,0.0,0.0,0.0,0.0,0.0,0.0,0.0,0.0,0.0,0.0,0.0,0.0,0.0,0.0,0.0,0.0,0.0,0.0,0.0,0.0,0.0,0.0,0.0,0.0,0.0,0.0,0.0,0.0,0.0,0.0,0.0,0.0,0.0,0.0,0.0,0.0,0.0,0.0,0.0,0.0,0.0,0.0,0.0,0.0,0.0,0.0,0.0,0.0,0.0,0.0,0.0,0.0,0.0,0.0,0.0,0.0,0.0,0.0,0.0,0.0,0.0,0.0,0.0,0.0,0.0,0.0,0.0,0.0,0.0,0.0,0.0,0.0,0.0,0.0,0.0,0.0,0.0,0.0,0.0,0.0,0.0,0.0,0.0,0.0,0.0,0.0,0.0,0.0,0.0,0.0,0.0,0.0,0.0,0.0,0.0,0.0,0.0,0.0,0.0,0.0,0.0,0.0,0.0,0.0,0.0,0.0,0.0,0.0,0.0,0.0,0.0,0.0,0.0,0.0,0.0,0.0,0.0,0.0,0.0,0.0,0.0,0.0,0.0,0.0,0.0,0.0,0.0,0.0,0.0,0.0,0.0,0.0,0.0,0.0,0.0,0.0,0.0,0.0,0.0,0.0,0.0,0.0,0.0,0.0,0.0,0.0,0.0,0.0,0.0,0.0,0.0,0.0,0.0,0.0,0.0,0.0,0.0,0.0,0.0,0.0,0.0,0.0,0.0,0.0,0.0,0.0,0.0,0.0,0.0,0.0,0.0,0.0,0.0,0.0,0.0,0.0,0.0,0.0,0.0,0.0,0.0,0.0,0.0,0.0,0.0,0.0,0.0,0.0,0.0,0.0,0.0,0.0,0.0,0.0,0.0,0.0,0.0,0.0,0.0,0.0,0.0,0.0,0.0,0.0,0.0,0.0,0.0,0.0,0.0,0.0,0.0,0.0,0.0,0.0,0.0,0.0,0.0,0.0,0.0,0.0,0.0,0.0,0.0,0.0,0.0,0.0,0.0,0.0,0.0,0.0,0.0,0.0,0.0,0.0,0.0,0.0,0.0,0.0,0.0,0.0,0.0,0.0,0.0,0.0,0.0,0.0,0.0,0.0,0.0,0.0,0.0,0.0,0.0,0.0,0.0,-0.4435,0.0,0.0,0.0,0.0,0.0,0.0,0.0,0.0,0.0,0.0,0.0,0.0,0.0,0.0,0.0,0.0,0.0,0.0,0.0,0.0,0.0,0.0,0.0,0.0,0.0,0.0,0.0,0.0,0.0,0.0,0.0,0.0,0.0,0.0,0.0,0.0,0.0,0.0,0.0,-1.1649,-1.2214,-1.3205,-1.2648,-1.1755,-1.0556,0.0,0.0,0.0,0.0,0.0,0.0,0.0,0.0,0.0,0.0,0.0,0.0,0.0,0.0,0.0,0.0,0.0,0.0,0.0,0.0,0.0,0.0,0.0,0.0,0.0,0.0,0.0,0.0,0.0,0.0,0.0,0.0,0.0,0.0,0.0,0.0,0.0,0.0,0.0,0.0,0.0,0.0,0.0,0.0,0.0,0.0,0.0,0.0,0.0,0.0,0.0,0.0,0.0,0.0,0.0,0.0,0.0,0.0,0.0,0.0,0.0,0.0,0.0,0.0,0.0,0.0,0.0,0.0,0.0,0.0,0.0,-0.5644,0.0,0.0,0.0,0.0,0.0,0.0,0.0,0.0,0.0,0.0,0.0,0.0,0.0,0.0,0.0,0.0,0.0,0.0,0.0,0.0,0.0,0.0,0.0,0.0,-1.3868,-1.3716,-1.3409,-1.318,0.0,0.0,0.0,0.0,0.0,0.0,0.0,0.0,0.0,-1.2363,-1.2701,-1.3546,-1.4797,-1.5112,-1.4395,-1.2814,-1.1226,0.0,0.0,0.0,0.0,0.0,0.0,0.0,0.0,0.0,0.0,0.0,0.0,0.0,0.0,0.0,0.0,0.0,0.0,0.0,0.0,0.0,0.0,0.0,0.0,0.0,0.0,0.0,0.0,0.0,0.0,0.0,0.0,0.0,0.0,0.0,0.0,0.0,0.0,0.0,0.0,0.0,0.0,0.0,0.0,0.0,0.0,0.0,0.0,0.0,0.0,0.0,0.0,0.0,0.0,0.0,0.0,0.0,0.0,0.0,0.0,0.0,0.0,0.0,-1.0214,-1.0434,-1.1045,-1.0914,-1.1324,-1.1995,-1.0009,-0.9143,-0.907,-0.6653,0.0,0.0,0.0,0.0,0.0,0.0,0.0,0.0,0.0,0.0,0.0,0.0,0.0,0.0,0.0,0.0,0.0,0.0,0.0,0.0,0.0,-1.3286,-1.3563,-1.3314,-1.3218,-1.3132,0.0,0.0,0.0,0.0,0.0,0.0,0.0,-1.2305,-1.2397,-1.257,-1.4163,-1.5535,-1.6709,-1.6652,-1.6867,-1.7186,-1.534,-1.3737,-1.2307,0.0,0.0,0.0,0.0,0.0,0.0,0.0,0.0,0.0,0.0,0.0,0.0,0.0,0.0,0.0,0.0,0.0,0.0,0.0,0.0,0.0,0.0,0.0,0.0,0.0,0.0,0.0,0.0,0.0,0.0,0.0,0.0,0.0,0.0,0.0,0.0,0.0,0.0,0.0,0.0,0.0,-0.9417,-0.9458,0.0,0.0,0.0,0.0,0.0,0.0,0.0,0.0,0.0,0.0,0.0,0.0,0.0,-0.9852,-1.1517,-1.2148,-1.3063,-1.4081,-1.5093,-1.5698,-1.594,-1.6224,-1.6434,-1.6557,-1.6391,0.0,-1.0243,-1.0905,0.0,0.0,0.0,0.0,0.0,0.0,0.0,0.0,0.0,0.0,0.0,0.0,0.0,0.0,0.0,0.0,0.0,0.0,0.0,0.0,0.0,-1.4362,-1.4548,-1.4445,-1.507,-1.4763,-1.314,-1.3686,0.0,0.0,0.0,-1.2535,-1.2761,-1.2735,-1.3303,-1.446,-1.5988,-1.7379,-1.8656,-1.9007,-1.951,-2.0112,-1.9347,-1.7368,-1.4565,-1.4443,0.0,0.0,0.0,0.0,0.0,0.0,0.0,0.0,0.0,0.0,0.0,0.0,0.0,0.0,0.0,0.0,0.0,0.0,0.0,0.0,0.0,0.0,0.0,0.0,0.0,0.0,0.0,0.0,0.0,0.0,0.0,0.0,0.0,0.0,0.0,0.0,0.0,0.0,0.0,-0.9372,-0.9738,-0.9032,-0.8714,-0.8234,0.0,0.0,0.0,0.0,0.0,0.0,0.0,0.0,0.0,-1.207,-1.2542,-1.3414,-1.4815,-1.5587,-1.6292,-1.6987,-1.739,-1.7755,-1.8071,-1.8195,-1.8462,-1.8701,-1.9326,-1.818,-1.5739,-1.3933,-1.173,-0.9459,0.0,0.0,0.0,0.0,-0.8277,-0.8658,0.0,0.0,0.0,0.0,0.0,0.0,0.0,0.0,0.0,0.0,0.0,0.0,-1.4846,-1.5381,-1.568,-1.5659,-1.6363,-1.5861,-1.3708,-1.4511,0.0,0.0,0.0,-1.3229,-1.3643,-1.376,-1.4697,-1.6483,-1.7597,-1.8877,-2.0335,-2.1062,-2.1744,-2.2297,-2.251,-2.0561,-1.7187,-1.6618,-1.5129,-1.2941,0.0,0.0,0.0,0.0,0.0,0.0,0.0,0.0,0.0,0.0,0.0,0.0,0.0,0.0,0.0,0.0,0.0,0.0,0.0,0.0,0.0,0.0,0.0,0.0,0.0,0.0,0.0,0.0,0.0,0.0,0.0,0.0,0.0,0.0,0.0,0.0,0.0,-1.0341,-1.0794,-0.9271,-1.0181,-1.0226,0.0,0.0,0.0,0.0,0.0,0.0,-1.1953,-1.2457,-1.3583,-1.5507,-1.6172,-1.6992,-1.8182,-1.8662,-1.9115,-1.9527,-1.9453,-1.9564,-1.981,-1.9856,-2.0098,-2.042,-2.1075,-2.1113,-2.034,-1.6881,-1.4889,-1.3745,-1.1954,-1.0926,-1.0506,-1.0946,-1.1502,-1.2064,0.0,0.0,0.0,0.0,0.0,0.0,0.0,0.0,0.0,0.0,0.0,-1.4595,-1.4628,-1.5803,-1.6511,-1.6296,-1.5921,-1.5478,-1.4944,-1.4849,-1.4692,-1.4495,-1.4495,-1.4695,-1.5174,-1.5892,-1.6813,-1.8084,-1.8731,-1.9972,-2.1705,-2.2225,-2.2988,-2.4015,-2.4282,-2.2926,-2.0366,-1.8791,-1.6874,-1.4771,-1.2742,0.0,0.0,0.0,0.0,0.0,0.0,0.0,0.0,0.0,0.0,0.0,0.0,0.0,0.0,0.0,0.0,0.0,0.0,0.0,0.0,0.0,0.0,0.0,0.0,0.0,0.0,0.0,0.0,0.0,0.0,0.0,0.0,0.0,0.0,0.0,0.0,0.0,0.0,-1.1502,-1.3353,0.0,0.0,0.0,0.0,-1.2348,-1.3318,-1.4416,-1.5584,-1.6564,-1.7947,-1.9866,-1.9681,-2.0166,-2.1401,-2.0956,-2.1109,-2.1719,-2.1964,-2.2046,-2.2076,-2.2229,-2.2321,-2.2341,-2.2442,-2.2289,-2.1997,-2.0236,-1.7998,-1.5627,-1.4866,-1.3672,-1.252,-1.3791,-1.4588,-1.5196,0.0,0.0,0.0,0.0,0.0,0.0,0.0,0.0,-1.4068,-1.4744,-1.5118,-1.5927,-1.7537,-1.7656,-1.7937,-1.8674,-1.834,-1.7322,-1.5364,-1.5581,-1.5187,-1.3812,-1.4034,-1.4557,-1.5203,-1.5988,-1.6867,-1.7905,-1.938,-2.1013,-2.2638,-2.3221,-2.4281,-2.5525,-2.4978,-2.4045,-2.2859,-2.1839,-1.958,-1.6607,-1.5834,-1.4214,0.0,0.0,0.0,0.0,0.0,0.0,0.0,0.0,0.0,0.0,0.0,0.0,0.0,0.0,0.0,0.0,0.0,0.0,0.0,0.0,0.0,0.0,0.0,0.0,0.0,0.0,0.0,0.0,0.0,0.0,0.0,0.0,0.0,0.0,0.0,0.0,0.0,-1.3476,-1.5938,0.0,-1.4711,-1.5226,-1.5664,-1.5557,-1.6522,-1.7567,-1.8693,-1.9089,-1.988,-2.1242,-2.1351,-2.1569,-2.1957,-2.1957,-2.2036,-2.2287,-2.2359,-2.2451,-2.2461,-2.2706,-2.293,-2.3112,-2.3298,-2.3545,-2.3571,-2.2635,-2.0947,-1.903,-1.8405,-1.7841,-1.7409,-1.7886,-1.844,-1.8883,0.0,0.0,0.0,0.0,0.0,0.0,0.0,0.0,-1.4439,-1.5336,-1.5793,-1.6857,-1.9013,-1.8971,-1.9179,-2.0268,-1.9576,-1.8291,-1.6232,-1.6321,-1.5797,-1.4296,-1.4828,-1.5345,-1.582,-1.6699,-1.762,-1.8492,-2.0148,-2.1619,-2.3064,-2.3801,-2.4612,-2.5573,-2.5253,-2.4664,-2.385,-2.3639,-2.1725,-1.872,-1.7485,-1.6005,-1.4308,0.0,0.0,0.0,0.0,0.0,0.0,0.0,0.0,0.0,0.0,0.0,0.0,0.0,0.0,0.0,0.0,0.0,0.0,0.0,0.0,0.0,0.0,0.0,0.0,0.0,0.0,0.0,0.0,0.0,0.0,0.0,0.0,0.0,0.0,0.0,-1.7668,-1.5281,-1.8113,-1.9325,-1.7036,-1.8081,-1.8881,-1.8732,-1.9878,-2.083,-2.1558,-2.1897,-2.2337,-2.3018,-2.3038,-2.3052,-2.2902,-2.2892,-2.2965,-2.2965,-2.2965,-2.2975,-2.2986,-2.3152,-2.3388,-2.3578,-2.3757,-2.4006,-2.4251,-2.3785,-2.2888,-2.1797,-2.106,-2.0758,-2.0758,-2.0579,-2.0857,-2.124,0.0,0.0,0.0,0.0,0.0,0.0,0.0,-1.3721,-1.4215,-1.4835,-1.5992,-1.7272,-1.877,-1.9452,-2.01,-2.0794,-1.9303,-1.8107,-1.7567,-1.6947,-1.6504,-1.6087,-1.6926,-1.7274,-1.7044,-1.8289,-1.9236,-2.0007,-2.0869,-2.1905,-2.3018,-2.3773,-2.4173,-2.4247,-2.5208,-2.4762,-2.3224,-2.4079,-2.3167,-2.0875,-1.7568,-1.6431,-1.6563,0.0,0.0,0.0,0.0,0.0,0.0,0.0,0.0,0.0,0.0,0.0,0.0,0.0,0.0,0.0,0.0,0.0,0.0,0.0,0.0,0.0,0.0,0.0,0.0,0.0,0.0,0.0,0.0,0.0,0.0,0.0,0.0,0.0,-1.5956,-1.7937,-1.8841,-1.6958,-1.9941,-2.1231,-1.8872,-2.0605,-2.185,-2.186,-2.3145,-2.4011,-2.4176,-2.5072,-2.5507,-2.5254,-2.4989,-2.4696,-2.4247,-2.3957,-2.3861,-2.3861,-2.3841,-2.3841,-2.3841,-2.3841,-2.3841,-2.3841,-2.3841,-2.3841,-2.3841,-2.3841,-2.3841,-2.376,-2.2655,-2.2244,-2.2162,-2.1719,-2.1822,-2.2017,0.0,0.0,0.0,0.0,0.0,0.0,0.0,-1.3591,-1.4303,-1.5106,-1.629,-1.7928,-2.0123,-2.0301,-2.0784,-2.1839,-1.9571,-1.7984,-1.7774,-1.6432,-1.5812,-1.6247,-1.6717,-1.7399,-1.8144,-1.8481,-1.9132,-1.9977,-2.0957,-2.2036,-2.3104,-2.4068,-2.4866,-2.5496,-2.6146,-2.5312,-2.3432,-2.4908,-2.4291,-2.2216,-2.1163,-1.9669,-1.792,0.0,0.0,0.0,0.0,0.0,0.0,0.0,0.0,0.0,0.0,0.0,0.0,0.0,0.0,0.0,0.0,0.0,0.0,0.0,0.0,0.0,0.0,0.0,0.0,0.0,0.0,0.0,0.0,0.0,0.0,0.0,-1.7197,-1.8644,-1.8007,-2.0366,-2.1992,-2.1406,-2.2839,-2.3576,-2.2939,-2.3547,-2.3963,-2.378,-2.4391,-2.4854,-2.4886,-2.5198,-2.5269,-2.5179,-2.5179,-2.5038,-2.4906,-2.4494,-2.4422,-2.4598,-2.4273,-2.4196,-2.4282,-2.4282,-2.4282,-2.4282,-2.4282,-2.4282,-2.4282,-2.4282,-2.4282,-2.4251,-2.3408,-2.3051,-2.2879,-2.2697,-2.2775,-2.2698,0.0,0.0,0.0,0.0,0.0,0.0,0.0,-1.3606,-1.4303,-1.5118,-1.6196,-1.7695,-1.9796,-1.9973,-2.0194,-2.1062,-1.9163,-1.782,-1.7507,-1.6286,-1.6027,-1.7029,-1.7092,-1.7741,-1.9194,-1.9448,-1.994,-2.0752,-2.166,-2.2462,-2.3168,-2.3894,-2.4753,-2.5624,-2.6254,-2.5762,-2.461,-2.6015,-2.5713,-2.4365,-2.4604,-2.3162,-2.0694,-1.9882,-1.9191,-1.8425,-1.7563,-1.7205,-1.6977,-1.6157,0.0,0.0,0.0,0.0,0.0,0.0,0.0,0.0,0.0,0.0,0.0,0.0,0.0,0.0,0.0,0.0,0.0,0.0,0.0,0.0,0.0,0.0,0.0,0.0,-1.8906,-2.0422,-2.0911,-2.242,-2.3515,-2.3719,-2.4152,-2.4609,-2.4815,-2.4839,-2.4961,-2.4966,-2.539,-2.5706,-2.5809,-2.5911,-2.5911,-2.5819,-2.5819,-2.5727,-2.5533,-2.5178,-2.5053,-2.488,-2.4702,-2.4467,-2.4196,-2.4282,-2.4368,-2.4389,-2.4574,-2.464,-2.456,-2.4747,-2.4716,0.0,0.0,0.0,0.0,0.0,-2.3232,-2.3135,0.0,0.0,0.0,0.0,0.0,0.0,0.0,-1.3654,-1.4192,-1.4914,-1.5873,-1.706,-1.8575,-1.8767,-1.8916,-1.9272,-1.839,-1.7547,-1.6964,-1.6727,-1.7091,-1.8267,-1.7989,-1.8508,-2.0125,-2.067,-2.1304,-2.1965,-2.2695,-2.3098,-2.3238,-2.3664,-2.443,-2.5383,-2.6168,-2.642,-2.6222,-2.7425,-2.7415,-2.6627,-2.7681,-2.6648,-2.4185,-2.2687,-2.2337,-2.2568,-2.1088,-2.0612,-2.0441,-1.9182,0.0,0.0,0.0,0.0,0.0,0.0,0.0,0.0,0.0,0.0,0.0,0.0,0.0,0.0,0.0,0.0,0.0,0.0,0.0,0.0,0.0,0.0,0.0,0.0,-2.0787,-2.24,-2.4114,-2.4163,-2.4299,-2.4662,-2.4671,-2.4841,-2.528,-2.5147,-2.5296,-2.5696,-2.6152,-2.6472,-2.6703,0.0,0.0,0.0,0.0,-2.6527,-2.6113,-2.5958,-2.5599,-2.4961,-2.5124,-2.4702,-2.3921,-2.4181,-2.4308,-2.437,-2.4866,-2.4903,-2.4716,-2.5001,-2.4877,-2.4368,-2.4196,-2.4237,-2.4181,-2.3697,-2.3533,-2.3573,0.0,0.0,0.0,0.0,0.0,0.0,0.0,-1.3189,-1.3642,-1.441,-1.5609,-1.6684,-1.7599,-1.7722,-1.8043,-1.8966,-1.753,-1.6663,-1.702,-1.8131,-1.8849,-1.8901,-2.0078,-2.0957,-2.1265,-2.1682,-2.2171,-2.2744,-2.3348,-2.3817,-2.4096,-2.5312,-2.6123,-2.6613,-2.7823,-2.8016,-2.7454,-2.9067,-2.861,-2.7163,-2.9031,-2.8494,-2.6606,-2.6341,-2.629,-2.6303,-2.57,-2.4903,-2.4179,-2.3722,-2.2248,-2.0647,-2.0621,-1.9253,0.0,0.0,0.0,0.0,0.0,0.0,0.0,0.0,0.0,0.0,0.0,0.0,0.0,0.0,0.0,0.0,0.0,0.0,0.0,-2.0127,-2.2247,-2.4023,-2.4915,-2.5612,-2.5978,-2.5899,-2.5757,-2.5689,-2.5955,-2.6144,-2.6351,-2.6434,-2.7117,-2.7562,-2.7655,-2.8007,-2.8214,-2.8214,-2.7852,-2.7614,-2.7521,-2.6434,-2.5764,-2.5421,0.0,0.0,-2.4659,-2.4923,-2.5197,-2.5537,-2.572,-2.5699,-2.5595,-2.516,-2.4517,-2.3927,-2.3927,-2.4149,-2.4344,-2.372,-2.3731,-2.3989,0.0,0.0,0.0,0.0,0.0,0.0,0.0,-1.3373,-1.3824,-1.4518,-1.5294,-1.5991,-1.6389,-1.6699,-1.707,-1.7589,-1.6948,-1.6875,-1.7758,-1.891,-1.9927,-2.0834,-2.1871,-2.2828,-2.3545,-2.4079,-2.4287,-2.4244,-2.53,-2.5288,-2.4221,-2.5976,-2.6913,-2.7278,-2.8603,-2.9075,-2.8946,-3.0194,-2.9916,-2.8739,-3.0088,-3.0344,-2.9806,-2.9342,-2.9117,-2.9031,-2.8903,-2.8276,-2.7555,-2.7342,-2.5942,-2.4282,-2.4057,-2.2616,-2.0663,0.0,0.0,0.0,0.0,0.0,0.0,0.0,0.0,0.0,0.0,0.0,0.0,0.0,0.0,-1.8218,-1.9,0.0,-2.1509,-2.2872,-2.4063,-2.5254,-2.6126,-2.6651,-2.6844,-2.6624,-2.6393,-2.6519,-2.7222,-2.7098,-2.7107,-2.7562,-2.8007,-2.8266,-2.8266,-2.8483,-2.8618,-2.8618,-2.839,-2.8152,-2.7924,-2.7241,-2.6589,-2.587,-2.5681,-2.5386,-2.5037,-2.5306,-2.5519,-2.5735,-2.5941,-2.5991,-2.5865,-2.5558,-2.503,-2.4358,-2.4358,-2.45,-2.4672,-2.4175,-2.4235,-2.4494,0.0,0.0,0.0,0.0,0.0,0.0,0.0,-1.3658,-1.4149,-1.472,-1.5007,-1.5241,-1.5348,-1.5646,-1.5913,-1.6042,-1.6554,-1.737,-1.8542,-1.9544,-2.087,-2.2595,-2.3307,-2.42,-2.5416,-2.5894,-2.6066,-2.5733,-2.7193,-2.6898,-2.5089,-2.6865,-2.7919,-2.8387,-2.9352,-3.0137,-3.0672,-3.1163,-3.1008,-3.0556,-3.1048,-3.1674,-3.2154,-3.1447,-3.1064,-3.0997,-3.1091,-3.0521,-2.984,-2.9973,-2.9015,-2.7707,-2.7397,-2.5847,-2.3634,-2.0938,-1.9886,0.0,0.0,0.0,0.0,0.0,0.0,0.0,0.0,-1.6825,-1.7245,-1.8894,-2.0088,-2.1228,-2.2347,-2.3279,-2.4341,-2.5732,-2.6172,-2.6624,-2.7461,-2.7712,-2.7672,-2.7504,-2.7207,-2.7325,-2.8258,-2.7835,-2.7821,-2.8556,-2.869,-2.8752,-2.8752,-2.8835,-2.8887,-2.8887,-2.8794,-2.8566,-2.8193,-2.8007,-2.7455,-2.6441,-2.6651,-2.6372,-2.5653,-2.586,-2.5962,-2.6054,-2.63,-2.6239,-2.5919,-2.5919,-2.5581,-2.4913,-2.4822,-2.4842,-2.4903,-2.4543,-2.4682,-2.4992,0.0,0.0,0.0,0.0,0.0,0.0,0.0,0.0,-1.4083,-1.472,-1.4729,-1.4716,-1.4855,-1.4504,-1.4499,-1.5102,-1.6417,-1.7799,-1.9046,-2.0575,-2.1816,-2.285,-2.4143,-2.4935,-2.5022,-2.5131,-2.5708,-2.6697,-2.7624,-2.821,-2.8609,-2.9416,-3.0326,-3.1242,-3.1105,-3.1591,-3.2521,-3.2048,-3.1845,-3.1775,-3.164,-3.1662,-3.1695,-3.2106,-3.2214,-3.2229,-3.2049,-3.0897,-2.9645,-3.1042,-3.0485,-2.9435,-3.0738,-2.8884,-2.6069,-2.4826,-2.149,-1.7884,-1.6717,-1.6457,-1.6854,-1.8335,-1.8261,-1.9041,0.0,-2.3311,-2.2729,-2.5118,-2.6092,-2.629,-2.5798,-2.6858,-2.7714,-2.74,-2.8161,-2.868,-2.8817,-2.9046,-2.9133,-2.9091,-2.8634,-2.8468,-2.8524,-2.8493,-2.8504,-2.8607,-2.9001,-2.9228,-2.9228,-2.9622,-2.9839,-2.9839,-2.9446,-2.9208,-2.9145,-2.8328,-2.7775,-2.7477,-2.727,-2.727,-2.7309,-2.7197,-2.7324,-2.7579,-2.7334,-2.6816,-2.6197,-2.6197,-2.5757,-2.5068,-2.4496,-2.4666,-2.5098,-2.4486,-2.4798,-2.538,0.0,0.0,0.0,0.0,0.0,0.0,0.0,0.0,0.0,-1.447,-1.4477,-1.4384,-1.443,-1.4731,-1.5017,-1.5216,-1.6493,-1.7941,-1.9522,-2.105,-2.2606,-2.4149,-2.5837,-2.685,-2.7124,-2.767,-2.8088,-2.8376,-2.9401,-2.9499,-2.8702,-3.0135,-3.0552,-3.0166,-3.133,-3.187,-3.1618,-3.2015,-3.2117,-3.2015,-3.1924,-3.2026,-3.2286,-3.1915,-3.1437,-3.0986,-3.0757,-2.9919,0.0,-2.9839,-2.9454,-2.8973,-3.0039,-2.8964,-2.6809,-2.4193,-2.238,-2.1076,-2.054,-2.0216,-2.0247,-2.0785,-2.1645,-2.296,-2.5186,-2.544,-2.5872,-2.8025,-2.8999,-2.9461,-2.9246,-2.9645,-2.9816,-2.9607,-2.9653,-2.9706,-2.9674,-2.9727,-2.9727,-2.9425,-2.9112,-2.9021,-2.9234,-2.9123,-2.9125,-2.9394,-2.9601,-2.9704,-2.9704,-3.0149,-3.0398,-3.0398,-3.0212,-2.9973,-2.9704,-2.9052,-2.8497,-2.8229,-2.8131,-2.8142,-2.8219,-2.8131,-2.8152,-2.8317,-2.8131,-2.7682,-2.7153,-2.7153,-2.6638,-2.5706,-2.5431,-2.5726,-2.6072,-2.4834,-2.4751,-2.5115,0.0,0.0,0.0,0.0,0.0,0.0,0.0,0.0,0.0,0.0,-1.4085,-1.4036,-1.4118,-1.487,-1.5356,-1.5382,-1.6418,-1.772,-1.9435,-2.0831,-2.2458,-2.4388,-2.6048,-2.737,-2.8398,-2.8976,-2.9462,-2.9776,-3.0572,-3.0376,-2.9257,-3.0917,-3.1132,-3.0155,-3.1945,-3.2525,-3.2101,-3.2578,-3.2701,-3.2611,-3.2375,-3.2375,-3.2434,-3.1326,-3.0345,-2.9541,-2.9218,-2.8316,-2.7454,-2.7851,-2.7603,-2.7375,-2.8425,-2.7847,-2.63,-2.3608,-2.2844,-2.2806,-2.2491,-2.2723,-2.3154,-2.3286,-2.4805,-2.6372,-2.6752,-2.74,-2.8348,-3.0068,-3.1127,-3.1732,-3.1458,-3.1633,-3.1629,-3.1244,-3.0817,-3.0518,-3.0455,-3.0183,-2.981,-2.9505,-2.9299,-2.9226,-2.9328,-2.9341,-2.9497,-2.9953,-2.9994,-2.9994,-2.9994,-3.0315,-3.0491,-3.0597,-3.0597,-3.0431,-3.0099,-2.9756,-2.9424,-2.9001,-2.9001,-2.9001,-2.899,-2.8866,-2.8731,-2.8618,-2.8618,-2.8421,-2.811,-2.811,-2.762,-2.6812,-2.6556,-2.6564,-2.6707,-2.5229,-2.4956,-2.5286,0.0,0.0,0.0,0.0,0.0,0.0,0.0,0.0,0.0,0.0,0.0,0.0,0.0,-1.4424,-1.4892,-1.535,-1.5956,-1.6968,-1.8423,-1.9457,-2.0895,-2.2853,-2.3873,-2.5483,-2.7881,-2.7399,-2.8383,-3.0867,-3.0374,-3.0663,-3.1584,-3.2238,-3.2687,-3.3203,-3.3541,-3.4145,-3.4958,-3.3953,-3.3823,-3.424,-3.3442,-3.2563,-3.1567,-3.026,-2.9172,-2.8343,-2.7918,-2.63,-2.4451,-2.5384,-2.5222,-2.4929,-2.6378,-2.5753,-2.4616,-2.4676,-2.2943,-2.0956,-2.0994,-2.2343,-2.4173,-2.5603,-2.7125,-2.8603,-2.9989,-3.0265,-3.0559,-3.1493,-3.2824,-3.3312,-3.1731,-3.2749,-3.3301,-3.2049,-3.1666,-3.1444,-3.1455,-3.0461,-2.9698,-2.9688,-2.9321,-2.8948,-2.8638,-2.9042,-2.9497,-2.9953,-2.9994,-2.9994,-2.9994,-3.0005,-3.0109,-3.0412,-3.0412,-3.0401,-3.0391,-3.038,-3.0266,-2.9953,-2.9953,-2.9953,-2.9942,-2.9487,-2.9042,-2.8618,-2.8618,-2.8607,-2.8597,-2.8597,-2.8576,-2.8462,-2.7273,-2.6849,-2.6747,-2.5573,-2.5788,-2.6249,0.0,0.0,0.0,0.0,0.0,0.0,0.0,0.0,0.0,0.0,0.0,0.0,0.0,0.0,0.0,0.0,-1.5257,-1.6287,-1.7599,-1.8699,-1.99,-2.1286,-2.3165,-2.4867,-2.6477,-2.7238,-2.8514,-3.035,-3.017,-3.0446,-3.1144,-3.1336,-3.152,-3.1716,-3.2923,-3.3539,-3.3665,-3.4,-3.4534,-3.5113,-3.3831,-3.3047,-3.2466,-2.9999,-2.8248,-2.6841,0.0,-2.3952,-2.334,-2.3312,-2.3165,-2.3099,-2.3642,-2.3307,-2.2588,-2.1713,-2.1757,-2.2204,-2.2875,-2.5139,-2.7584,-2.8384,-2.9839,-3.1446,-3.3073,-3.3171,-3.3322,-3.4748,-3.3637,-3.2383,-3.2178,-3.1495,-3.0866,-3.0597,-3.0798,-3.1111,-3.1019,-3.0681,-3.0144,-2.93,-2.91,-2.8781,-2.8183,-2.8686,0.0,-2.9508,-3.0016,-3.0423,-3.0736,-3.105,-3.1218,-3.1325,-3.0808,-3.0556,-3.0556,-3.0244,-3.0099,-2.9994,-2.9994,-2.9994,-2.9984,-2.9829,-2.9673,-2.9528,-2.9528,-2.9352,-2.9073,-2.9073,-2.8887,-2.8587,-2.8177,-2.8239,-2.8404,-2.739,-2.7435,-2.7589,0.0,0.0,0.0,0.0,0.0,0.0,0.0,0.0,0.0,0.0,0.0,0.0,0.0,0.0,0.0,0.0,0.0,-1.55,-1.6578,-1.7419,-1.8475,-1.9716,-2.1359,-2.3083,-2.4869,-2.5666,-2.6811,-2.8444,-2.8429,-2.8865,-2.9487,-2.9846,-3.0236,-3.0633,-3.2098,-3.2806,-3.2989,-3.3476,-3.3856,-3.4,-3.2529,-3.1527,-3.065,-2.817,-2.644,0.0,-2.2873,-2.203,-2.1953,-2.1493,-2.1285,-2.1215,-2.1355,-2.1516,-2.1461,-2.0683,-2.2051,-2.4017,-2.542,-2.7911,-3.0402,-3.146,-3.2405,-3.3496,-3.4947,-3.4714,-3.4548,-3.5288,-3.351,-3.1735,-3.1423,-2.9974,-2.8921,-2.8979,-2.935,-2.9905,-3.0594,-3.0432,-3.0074,-2.9846,-2.9735,-2.9367,-2.8519,-2.9094,0.0,-2.9484,-3.0139,-3.0642,-3.0937,-3.1243,-3.1518,-3.1614,-3.101,-3.0757,-3.0757,-3.0349,-3.0099,-2.9994,-2.9994,-2.9994,-2.9994,-2.9994,-3.0099,-3.0099,-2.9994,-2.9922,-2.9652,-2.9549,-2.9373,-2.9094,-2.8928,-2.9042,-2.9208,-2.8342,-2.815,-2.8171,0.0,0.0,0.0,0.0,0.0,0.0,0.0,0.0,0.0,0.0,0.0,0.0,0.0,0.0,0.0,0.0,0.0,0.0,-1.5277,-1.5658,-1.6588,-1.8112,-1.8699,-2.0301,-2.3099,-2.2795,-2.3503,-2.5347,-2.5408,-2.5913,-2.6819,-2.7822,-2.885,-2.9894,-3.0937,-3.2004,-3.2987,-3.2312,-3.1786,-3.1355,-2.9839,-2.8231,-2.6517,-2.506,-2.4063,-2.324,-2.1476,-2.0636,-2.0389,-2.0094,-1.9755,-1.9488,-1.9687,-2.0518,-2.1517,-2.1837,-2.3776,-2.6268,-2.828,-3.0396,-3.246,-3.4538,-3.4781,-3.4801,-3.5522,-3.51,-3.4208,-3.3479,-3.2431,-3.1083,-2.9427,-2.8244,-2.7557,-2.7502,-2.7635,-2.8396,-3.0389,-2.988,-2.9814,-3.1163,-3.1163,-3.07,-2.9629,-3.0181,0.0,-2.9789,0.0,-3.0838,-3.0859,-3.087,-3.0963,-3.1262,-3.0942,-3.0838,-3.0838,-3.0505,-3.0297,-2.9994,-2.9994,-2.9994,-2.9994,-2.9994,-3.0193,-3.0391,-3.0193,-3.0193,-3.0391,-3.0099,-2.9994,-2.9953,-2.9508,-2.9342,-2.929,-2.8522,-2.8258,-2.8084,0.0,0.0,0.0,0.0,0.0,0.0,0.0,0.0,0.0,0.0,0.0,0.0,0.0,0.0,0.0,0.0,0.0,0.0,-1.4549,-1.5225,-1.588,-1.6504,-1.7861,-1.9414,-2.1029,-2.1407,-2.2452,-2.4237,-2.4113,-2.4448,-2.5215,-2.5505,-2.5985,-2.6644,-2.766,-2.8372,-2.8809,-2.901,-2.9432,-2.9794,-2.8198,-2.7195,-2.64,-2.4623,-2.3437,-2.2654,-2.1511,-2.0893,-2.0657,-2.041,-2.0925,-2.1784,-2.1929,-2.2809,-2.3819,-2.4255,-2.6269,-2.8508,-2.9657,-3.204,-3.4393,-3.495,-3.5165,-3.5398,-3.6018,-3.5058,-3.3867,-3.2969,-3.0283,-2.7782,-2.6509,-2.6255,-2.6436,-2.6766,-2.9004,-3.0936,-3.1772,-3.2062,-3.2051,-3.195,-3.1965,-3.1549,-3.012,-3.0675,-3.0906,0.0,-3.0869,-3.1288,-3.161,-3.1632,-3.1632,-3.1736,-3.1102,-3.0838,-3.0838,-3.0724,-3.062,-3.063,-3.063,-3.063,-3.063,-3.063,-3.062,-3.0724,-3.063,-3.0516,-3.0391,-3.0297,-3.0193,-2.9984,-2.986,-2.9818,-2.9808,-2.958,-2.9539,-2.9436,0.0,0.0,0.0,0.0,0.0,0.0,0.0,0.0,0.0,0.0,0.0,0.0,0.0,0.0,0.0,0.0,0.0,0.0,0.0,-1.4277,-1.4696,-1.4933,-1.6069,-1.7142,-1.8277,-1.8795,-1.9719,-2.0953,-2.1228,-2.1717,-2.2402,-2.2755,-2.338,-2.4172,-2.4947,-2.5475,-2.5795,-2.5964,-2.607,0.0,0.0,-2.3998,-2.3523,-2.2335,-2.1865,-2.1666,-2.0883,-2.121,-2.1889,-2.1776,-2.2488,-2.3416,-2.4071,-2.5176,-2.6357,-2.6767,-2.868,-3.0838,-3.1405,-3.3543,-3.553,-3.553,-3.5651,-3.5545,-3.4929,-3.3902,-3.2476,-3.0331,-2.7824,-2.554,-2.4033,-2.4113,-2.468,-2.5195,-2.802,-3.0503,-3.1636,-3.2643,-3.3307,-3.3253,-3.3503,-3.3079,-3.1699,-3.1896,-3.1951,0.0,-3.1505,-3.1555,-3.1793,-3.1804,-3.1804,-3.1804,-3.1256,-3.0931,-3.0838,-3.0838,-3.0838,-3.0838,-3.0838,-3.0838,-3.0838,-3.0838,-3.0827,-3.0931,0.0,-3.092,-3.0692,-3.048,-3.0303,-2.9984,-2.9774,-2.9701,-2.9701,-2.9701,-2.9701,-2.9659,0.0,0.0,0.0,0.0,0.0,0.0,0.0,0.0,0.0,0.0,0.0,0.0,0.0,0.0,0.0,0.0,0.0,0.0,0.0,0.0,-1.3528,-1.371,-1.4064,-1.473,-1.5591,-1.6039,-1.6547,-1.7193,-1.8008,-1.871,-1.9236,-2.0026,-2.0964,-2.1903,-2.2455,-2.2829,-2.3015,-2.2966,-2.247,-2.158,-2.0785,-2.0177,-1.9703,0.0,-1.9929,-2.0436,-2.0036,-2.129,-2.3088,-2.3655,-2.4338,-2.5217,-2.6185,-2.7607,-2.8937,-2.9159,-3.0888,-3.2857,-3.3131,-3.4615,-3.5994,-3.6072,-3.6016,-3.5322,-3.3028,-3.2022,-3.0498,-2.6806,-2.5169,-2.3792,-2.1918,-2.2162,-2.2917,-2.3672,-2.6184,-2.8796,-3.0925,-3.2453,-3.3625,-3.4392,-3.4806,-3.4544,-3.3205,-3.3238,-3.3168,-3.279,-3.2229,-3.1918,-3.1815,-3.1815,-3.1712,-3.1598,-3.1131,-3.0798,-3.0704,-3.0756,-3.0724,-3.0931,-3.0931,-3.0931,-3.0931,-3.0931,-3.1034,-3.123,-3.1322,-3.123,-3.1187,-3.0712,-3.0407,-3.0072,-2.9593,-2.9413,-2.9413,-2.9413,-2.9413,-2.9413,0.0,0.0,0.0,0.0,0.0,0.0,0.0,0.0,0.0,0.0,-1.0719,-1.1313,0.0,0.0,0.0,0.0,0.0,0.0,0.0,0.0,0.0,-1.372,-1.4011,-1.4547,-1.5209,-1.536,-1.5802,-1.6567,-1.6924,-1.7352,-1.778,-1.7915,-1.8225,-1.8596,-1.9404,-1.9504,-1.9102,-1.9762,-1.9703,-1.9261,-1.929,-1.9129,-1.8976,-1.9204,0.0,0.0,-2.0058,-2.07,-2.187,-2.4502,-2.6814,-2.8656,-2.8632,-2.9858,-3.1429,-3.1684,-3.2328,-3.3153,-3.3832,-3.4869,-3.5701,-3.5536,-3.5232,-3.428,-3.1915,-3.0201,-2.8014,-2.4482,-2.3016,-2.1896,-2.0148,-2.1163,-2.2891,-2.5044,-2.6944,-2.9016,-3.16,-3.2517,-3.2967,-3.2825,-3.3569,-3.3742,-3.2625,-3.326,-3.3537,0.0,-3.3287,-3.3454,-3.3232,-3.2915,-3.2372,-3.1266,-2.9914,-2.9625,-3.0522,-3.0234,-3.0567,-3.1424,-3.1424,-3.1424,-3.1424,-3.1424,-3.1527,-3.1516,-3.1721,0.0,-3.1187,-3.0893,-3.0507,-3.0072,-2.9593,-2.9413,-2.9413,-2.9413,-2.9413,-2.9413,0.0,0.0,0.0,0.0,0.0,0.0,0.0,-0.9646,-0.9681,-1.0013,-1.0125,-1.0374,-1.0967,-1.1652,-1.2126,0.0,0.0,0.0,0.0,0.0,0.0,0.0,0.0,0.0,-1.3941,-1.4354,-1.4792,-1.5371,0.0,-1.6235,-1.65,-1.6954,-1.714,-1.7139,-1.7762,-1.7815,-1.7333,-1.7821,-1.7896,-1.7611,-1.7844,-1.7844,-1.7763,0.0,0.0,0.0,-1.9844,-2.1116,-2.2573,-2.3519,-2.6417,-2.9746,-3.0593,-3.1954,-3.3186,-3.3109,-3.3493,-3.3984,-3.4263,-3.4911,-3.5329,-3.4979,-3.4065,-3.2569,-2.9708,-2.7546,-2.509,-2.1643,-2.0835,-2.0316,-1.885,-2.0075,-2.1875,-2.3559,-2.5429,-2.7552,-3.0105,-3.1573,-3.254,-3.2867,-3.3595,-3.3969,-3.347,-3.3772,-3.3978,-3.3944,-3.3623,-3.3203,-3.2835,-3.1729,-3.0714,-2.9705,-2.8849,-2.9073,-3.0158,-3.0036,-3.0453,-3.1618,-3.1618,-3.1618,-3.1618,-3.1618,-3.1618,-3.1618,-3.1924,0.0,-3.1381,-3.1217,-3.0777,-3.0109,-2.9634,-2.9278,-2.9063,-2.9063,-2.9225,-2.9397,0.0,0.0,0.0,0.0,0.0,0.0,0.0,-0.9199,-0.9403,-1.0012,-0.9689,-0.9628,-1.0292,-1.0962,-1.143,0.0,0.0,0.0,0.0,0.0,0.0,0.0,0.0,0.0,0.0,0.0,0.0,-1.4232,-1.4928,0.0,0.0,0.0,0.0,0.0,-1.6921,-1.689,-1.6473,-1.6691,-1.6691,0.0,0.0,-1.676,0.0,0.0,0.0,0.0,0.0,-2.0827,-2.2465,-2.1978,-2.4479,-2.8221,-3.0154,-3.2036,-3.3606,-3.3043,-3.346,-3.4159,-3.4317,-3.4775,-3.507,-3.4502,-3.3071,-3.0936,-2.7763,-2.5228,-2.2573,-1.9462,-1.9052,-1.9009,-1.8024,-1.9014,-2.034,-2.1617,-2.3217,-2.5305,-2.8069,-3.0032,-3.1556,-3.2579,-3.3565,-3.3993,-3.3876,-3.4074,-3.4394,-3.4876,-3.3573,-3.2475,-3.1793,-3.0108,-2.8894,-2.8218,-2.7809,-2.8183,-2.9353,-2.9489,-3.0141,-3.13,-3.1618,-3.1721,-3.1823,-3.1732,-3.1732,-3.1721,-3.1924,-3.1823,0.0,-3.1417,-3.0844,-3.0177,-2.9784,-2.9336,-2.8921,-2.903,-2.9314,-2.9587,0.0,0.0,0.0,0.0,0.0,0.0,0.0,-0.8886,-0.8947,-0.9435,-0.9436,-0.9504,-0.9827,-1.0169,-1.0349,0.0,0.0,0.0,0.0,0.0,0.0,0.0,0.0,0.0,0.0,0.0,0.0,-1.3569,-1.438,0.0,0.0,0.0,0.0,0.0,0.0,-1.656,-1.5867,-1.6211,0.0,0.0,0.0,0.0,0.0,0.0,0.0,0.0,0.0,-1.8543,-1.9105,-2.0487,-2.1597,-2.259,-2.4705,-2.8054,-3.1185,-3.0337,-3.1149,-3.2466,-3.3617,-3.4524,-3.4993,-3.4087,-3.2588,-3.0377,-2.7018,-2.4272,-2.1697,-1.9019,-1.823,-1.7994,-1.7745,-1.7734,-1.8516,-2.0802,-2.123,-2.2673,-2.6621,-2.8094,-2.9324,-3.0652,-3.216,-3.2858,-3.225,-3.3776,-3.4646,-3.4505,-3.3119,-3.1808,-3.091,-2.9603,-2.8657,-2.8408,-2.6574,-2.6362,-2.7826,-2.818,-2.9061,-3.0432,-3.1494,-3.2128,-3.2443,-3.2128,-3.1913,-3.1913,-3.2015,-3.1823,0.0,-3.1417,-3.0844,-3.0209,-3.0166,-2.9849,-2.9467,-2.9915,-3.0111,-3.0144,0.0,0.0,0.0,0.0,0.0,0.0,-0.8805,-0.8651,-0.8689,-0.9209,-0.8948,-0.8883,-0.931,-0.9494,-0.9771,-1.022,0.0,0.0,0.0,0.0,0.0,0.0,0.0,0.0,0.0,0.0,-1.2985,-1.3059,-1.3657,0.0,0.0,0.0,0.0,0.0,0.0,-1.6079,-1.5797,-1.5938,0.0,0.0,0.0,0.0,0.0,0.0,0.0,0.0,0.0,0.0,-1.8682,-1.873,-1.9969,-2.1293,-2.0297,-2.2644,-2.6243,-2.8405,-2.9851,-3.0971,-3.2158,-3.3723,-3.4521,-3.2238,-3.014,-2.8119,-2.5761,-2.2635,-1.9892,-1.8741,-1.8212,-1.7854,-1.7715,-1.7678,-1.8002,-1.9145,-1.9554,-2.0632,-2.339,-2.4937,-2.665,-2.9006,-3.0622,-3.1999,-3.3286,-3.4232,-3.4721,-3.4523,-3.2839,-3.1224,-2.9928,-2.8449,-2.732,-2.6628,-2.5979,-2.6107,-2.6893,-2.7337,-2.8028,-2.9061,-3.0224,-3.0764,-3.097,-3.1699,-3.1924,-3.1823,-3.1913,-3.1823,0.0,-3.1523,-3.1162,-3.0624,-3.0624,-3.0341,-2.9947,-3.0144,-3.0384,-3.0581,0.0,0.0,0.0,0.0,0.0,-0.8472,-0.8349,-0.8242,-0.8415,-0.8998,-0.8557,-0.8446,-0.8996,-0.9175,-0.9475,-0.9955,-1.0508,0.0,0.0,0.0,0.0,0.0,0.0,0.0,0.0,0.0,-1.259,-1.2716,-1.3159,-1.3549,0.0,0.0,-1.4939,-1.4772,0.0,0.0,0.0,0.0,0.0,0.0,0.0,0.0,0.0,0.0,0.0,0.0,0.0,0.0,0.0,0.0,0.0,-1.9477,-1.7459,-1.8518,-2.1298,-2.5133,-2.7395,-2.8919,-3.04,-3.204,-3.2848,-3.0701,-2.8267,-2.5958,-2.4385,-2.1489,-1.8922,-1.8332,-1.7924,-1.7675,-1.7397,-1.7429,-1.7534,-1.7818,-1.8222,-1.9219,-2.1169,-2.2838,-2.4724,-2.7457,-2.897,-3.0616,-3.2814,-3.3454,-3.4062,-3.4515,-3.2311,-3.0468,-2.9346,-2.7885,-2.6559,-2.5557,-2.5544,-2.5681,-2.617,-2.66,-2.7178,-2.8019,-2.9387,-2.9911,-2.9807,-3.0959,-3.1381,-3.1187,-3.1289,-3.1505,0.0,-3.1465,-3.1203,-3.0887,-3.0745,-3.0581,-3.0417,-3.0417,-3.0712,-3.1061,0.0,0.0,0.0,0.0,0.0,0.0,-0.7558,-0.7621,-0.7946,-0.8604,-0.8348,-0.8311,-0.8855,-0.9213,-0.9387,-0.9331,-0.9897,0.0,0.0,0.0,0.0,0.0,0.0,0.0,0.0,0.0,-1.2507,-1.2507,-1.3137,-1.3464,-1.3597,-1.4275,-1.4524,-1.4308,0.0,0.0,0.0,0.0,0.0,0.0,0.0,0.0,0.0,0.0,0.0,0.0,0.0,0.0,0.0,0.0,0.0,0.0,0.0,-1.6421,-1.6821,-2.0022,-2.3333,-2.6306,-2.8189,-2.9147,-2.9645,-3.0056,-2.7432,-2.4413,-2.2987,-2.0992,-1.9078,-1.7556,-1.7336,-1.7226,-1.6691,-1.6705,-1.6864,-1.7022,-1.7295,-1.8391,-2.0864,-2.2331,-2.3897,-2.576,-2.7081,-2.8343,-2.9558,-3.0798,-3.2373,-3.4371,-3.1295,0.0,-2.9346,-2.7885,-2.6681,-2.5943,-2.5215,-2.5001,-2.536,-2.6188,-2.6853,-2.7384,-2.9377,-3.0005,-2.9482,-3.011,-3.0317,-3.0317,-3.0026,-3.0557,0.0,-3.1105,-3.0898,-3.0843,-3.0395,-3.0493,-3.0887,-3.0887,-3.1203,-3.1618,0.0,0.0,0.0,0.0,0.0,0.0,0.0,-0.7377,-0.7558,-0.8091,-0.7963,-0.8006,-0.8494,-0.8829,-0.8947,-0.8806,-0.9738,0.0,0.0,0.0,0.0,0.0,0.0,0.0,0.0,0.0,-1.1748,-1.2155,-1.2217,-1.2538,-1.3169,-1.3659,-1.3832,-1.3722,-1.4154,-1.4255,0.0,0.0,0.0,0.0,0.0,0.0,-1.473,0.0,0.0,0.0,0.0,0.0,0.0,0.0,0.0,0.0,0.0,0.0,0.0,-1.6546,-1.9583,-2.3013,-2.3703,-2.5229,-2.6037,-2.3636,-2.2205,-2.1235,-2.0216,-1.8578,-1.7274,-1.7421,-1.7129,-1.6799,-1.6752,-1.6675,-1.6789,-1.7096,-1.7599,-1.8347,-1.9469,-2.1476,-2.3616,-2.565,-2.9105,-3.1476,0.0,0.0,-3.3112,-3.3008,-3.0709,-2.9153,-2.8549,-2.6626,-2.5639,-2.5777,-2.5778,-2.5698,-2.5652,-2.6071,-2.6218,-2.6218,-2.7501,-2.7931,-2.7824,-2.8744,-2.9051,-2.885,-2.8956,-2.9061,0.0,-2.9974,-3.0232,-3.0324,-3.0922,-3.1269,-3.1389,-3.1389,-3.1487,-3.1618,0.0,0.0,0.0,0.0,0.0,0.0,0.0,-0.7034,-0.7121,-0.7511,-0.7519,-0.7658,-0.8061,-0.8456,-0.8725,-0.8672,-0.9472,0.0,0.0,0.0,0.0,0.0,0.0,0.0,-1.0462,-1.082,-1.1197,-1.1485,-1.1638,-1.1939,-1.2392,-1.2948,-1.3121,-1.3011,-1.3428,-1.359,0.0,0.0,0.0,0.0,0.0,0.0,-1.421,0.0,0.0,0.0,0.0,0.0,0.0,0.0,0.0,0.0,0.0,0.0,0.0,0.0,-1.6491,-1.8976,-2.0212,-2.1649,-2.2284,-2.0436,-1.9359,-1.8685,-1.8238,-1.7116,-1.6348,-1.6782,-1.6569,-1.6387,-1.6396,-1.6376,-1.6446,-1.6842,-1.7269,-1.7976,-1.9169,-2.0764,-2.2542,-2.4612,-2.8903,0.0,0.0,-3.1607,-3.1774,-3.1573,-2.9421,-2.7873,-2.7471,-2.6046,-2.5405,-2.5716,-2.5828,-2.5705,-2.5459,-2.583,-2.594,-2.5907,-2.6811,-2.6911,-2.6545,-2.7835,-2.8074,-2.7448,-2.7898,-2.8038,0.0,-2.8809,-2.9259,-2.9507,-3.0061,-3.0727,-3.1244,-3.0508,-3.0512,-3.0877,0.0,0.0,0.0,0.0,0.0,0.0,0.0,-0.6562,-0.6742,-0.6943,-0.7065,-0.7224,-0.7534,-0.8113,-0.8541,-0.8692,0.0,0.0,0.0,0.0,0.0,0.0,0.0,0.0,-0.9947,-1.0514,-1.0794,-1.0748,-1.1333,-1.1567,-1.1453,-1.2114,-1.2351,-1.2205,-1.2544,-1.2797,0.0,0.0,0.0,0.0,0.0,0.0,0.0,0.0,0.0,0.0,0.0,0.0,0.0,0.0,0.0,0.0,0.0,0.0,0.0,0.0,0.0,0.0,0.0,-1.8294,-1.8499,-1.9512,-1.8233,-1.6714,-1.6884,-1.6471,0.0,-1.5652,-1.5773,-1.5919,-1.5683,-1.574,-1.5982,-1.63,-1.6445,-1.7308,-1.9576,-2.0452,-2.146,-2.3037,-2.7043,0.0,-2.8547,-2.8357,-2.8878,-3.0138,-2.7642,-2.6012,-2.6211,-2.6012,-2.5837,-2.5652,-2.5331,-2.5221,-2.5221,-2.5595,-2.594,-2.6136,-2.7022,-2.6783,-2.578,-2.7353,-2.7255,0.0,-2.6811,0.0,0.0,-2.7509,-2.8095,-2.8556,-2.8327,-2.9264,-3.0532,-2.8603,-2.8679,-2.9671,0.0,0.0,0.0,0.0,0.0,0.0,0.0,0.0,0.0,0.0,-0.6481,-0.6561,-0.6964,-0.7321,-0.7532,0.0,0.0,0.0,0.0,0.0,0.0,0.0,0.0,0.0,-0.9517,-0.9895,-1.0355,-1.1036,-1.1015,-1.1302,-1.1943,-1.1981,-1.1667,-1.1262,-1.1813,-1.2058,0.0,0.0,0.0,0.0,0.0,0.0,0.0,0.0,0.0,0.0,-1.2586,-1.2374,0.0,0.0,0.0,0.0,0.0,0.0,0.0,0.0,-1.3108,-1.3654,-1.4106,0.0,-1.4799,-1.472,-1.45,-1.4447,0.0,-1.4718,-1.4569,-1.4983,-1.4906,-1.4888,-1.5108,-1.5205,-1.5429,-1.6049,-1.6208,-1.6938,-1.8851,-2.2642,0.0,-2.5035,-2.885,-3.0712,-2.8752,-2.9145,-2.9268,-2.8731,-2.7493,-2.6363,-2.5471,-2.5599,-2.5542,-2.4937,-2.5309,-2.5679,-2.5898,-2.5997,-2.6226,-2.6473,-2.6436,-2.6318,-2.5999,-2.5909,-2.562,-2.529,-2.5195,0.0,-2.5213,-2.6151,-2.7179,-2.7945,-2.7763,-2.8346,-2.9352,-2.8184,-2.8063,-2.8515,0.0,0.0,0.0,0.0,0.0,0.0,0.0,0.0,0.0,0.0,0.0,0.0,0.0,0.0,0.0,0.0,0.0,0.0,0.0,0.0,0.0,0.0,0.0,-0.9211,-0.9211,-0.9524,-0.9903,-1.0312,-1.0617,-1.0944,-1.1181,-1.1475,-1.1261,-1.0664,-1.126,-1.1667,-1.1934,0.0,0.0,0.0,-1.2182,0.0,0.0,0.0,0.0,0.0,-1.212,-1.1934,0.0,-1.1685,-1.1685,-1.1809,0.0,0.0,0.0,0.0,-1.2438,-1.2664,-1.2607,-1.2873,-1.3165,-1.3161,-1.3224,-1.3397,-1.3978,-1.4001,-1.3992,-1.4423,-1.4419,-1.4415,-1.4688,-1.5062,-1.539,-1.567,-1.6539,-1.7634,-1.9088,-2.2857,-2.5842,-2.6815,-2.8634,-2.9542,0.0,-2.8535,-2.8261,-2.7429,-2.6359,-2.5522,-2.4977,-2.4977,-2.4889,-2.4689,-2.5156,-2.5392,-2.5147,-2.5688,-2.5997,-2.619,-2.6125,-2.5997,-2.563,-2.5742,-2.5249,-2.4342,-2.4548,0.0,-2.4079,-2.5181,-2.5867,-2.6267,-2.6491,-2.7062,-2.7691,-2.6511,-2.6466,-2.7033,0.0,0.0,0.0,0.0,0.0,0.0,0.0,0.0,0.0,0.0,0.0,0.0,0.0,0.0,0.0,0.0,0.0,0.0,0.0,0.0,0.0,0.0,-0.8981,-0.8956,-0.8962,-0.9309,-0.9508,-0.9556,-1.0287,-1.0544,-1.034,-1.0941,-1.0904,-1.0416,-1.0737,-1.1166,-1.1721,-1.1783,-1.1874,-1.192,-1.192,0.0,0.0,0.0,0.0,0.0,0.0,0.0,0.0,-1.1564,-1.164,-1.1802,-1.1622,0.0,0.0,0.0,0.0,0.0,-1.2182,-1.2468,-1.2747,-1.3136,-1.305,-1.3103,-1.3588,-1.3682,-1.3621,-1.3863,-1.3972,-1.4064,-1.4474,-1.5028,-1.5482,-1.5371,-1.7128,0.0,-2.0062,-2.265,-2.5319,-2.7546,-2.7791,0.0,-2.7914,-2.733,-2.684,-2.6486,-2.512,-2.4339,-2.4546,-2.4447,-2.4546,-2.4852,-2.513,-2.4972,-2.4202,-2.5287,-2.5821,-2.5647,-2.6179,-2.5904,-2.5121,-2.5955,-2.5358,-2.3718,0.0,0.0,-2.3546,-2.4412,-2.4796,-2.4726,-2.5102,-2.5633,-2.6061,-2.4571,-2.4733,-2.5356,0.0,0.0,0.0,0.0,0.0,0.0,0.0,0.0,0.0,0.0,0.0,0.0,0.0,0.0,0.0,0.0,0.0,0.0,0.0,0.0,0.0,-0.8316,-0.8553,-0.8738,-0.8804,-0.891,-0.9369,-1.0279,-1.0106,-1.0494,-1.1345,-1.1049,-1.0699,-1.0402,-0.9879,-0.9818,-1.0113,-1.034,-1.0732,-1.109,-1.1211,0.0,0.0,0.0,0.0,0.0,0.0,0.0,0.0,-1.1124,-1.1333,-1.1802,-1.1622,0.0,0.0,0.0,0.0,0.0,-1.212,-1.2578,-1.2972,-1.2755,-1.2744,-1.2928,-1.3302,-1.2981,-1.2806,-1.3442,-1.3296,-1.3318,-1.4364,-1.4799,-1.514,-1.5542,0.0,-1.9698,0.0,0.0,-2.5932,-2.4928,0.0,-2.8515,-2.6203,-2.6558,-2.6989,-2.698,-2.5532,-2.4412,-2.3877,-2.4511,-2.5246,-2.5825,-2.5721,-2.5306,-2.4535,-2.5576,-2.5982,-2.5958,-2.6336,-2.6036,-2.5053,-2.5421,-2.5149,-2.4257,0.0,-2.4263,-2.4053,-2.4242,-2.4824,-2.5401,-2.4396,-2.4622,-2.534,-2.4278,-2.403,-2.4298,0.0,0.0,0.0,0.0,0.0,0.0,0.0,0.0,0.0,0.0,0.0,0.0,0.0,0.0,0.0,0.0,0.0,0.0,0.0,0.0,-0.771,-0.8365,-0.8456,-0.8586,-0.8804,-0.8857,-0.9198,-0.9748,-0.9824,-1.02,-1.0795,-1.0523,-1.056,-1.0882,-0.9973,-0.9755,-1.0084,-1.0038,-1.0168,-1.0418,0.0,0.0,0.0,0.0,0.0,0.0,0.0,0.0,0.0,0.0,-1.068,-1.095,-1.0941,0.0,0.0,0.0,0.0,0.0,-1.1646,-1.2027,-1.2383,-1.224,-1.2757,-1.3387,-1.3334,-1.3417,-1.3534,-1.367,-1.383,-1.4013,-1.4354,-1.5155,-1.6254,-1.7761,0.0,-2.0228,-2.1418,-2.3157,-2.4267,0.0,0.0,-2.6636,-2.5931,-2.6117,-2.6064,-2.5549,-2.4995,-2.4451,-2.396,-2.4639,-2.5076,-2.4975,-2.5432,-2.5306,-2.4316,-2.5397,-2.5712,-2.5427,-2.5845,-2.5512,-2.4648,-2.4724,-2.4387,-2.3833,0.0,-2.3616,-2.3737,-2.3529,-2.3754,-2.4205,-2.3314,-2.3458,-2.4044,-2.3853,-2.3723,-2.3758,0.0,0.0,0.0,0.0,0.0,0.0,0.0,0.0,0.0,0.0,0.0,0.0,0.0,0.0,0.0,0.0,0.0,0.0,0.0,-0.6898,-0.7376,-0.8146,-0.8298,-0.8533,-0.8857,-0.891,-0.9095,-0.9323,-0.9592,-0.9868,-1.002,-1.0144,-1.0437,-1.0875,-1.0041,-0.9782,-0.9969,-0.968,-0.9683,-0.9873,0.0,0.0,0.0,0.0,0.0,0.0,0.0,0.0,0.0,0.0,0.0,0.0,0.0,0.0,0.0,-1.0986,-1.1084,-1.1167,-1.1174,-1.1487,-1.1851,-1.169,-1.2632,-1.3542,-1.3591,-1.3934,-1.4288,-1.4396,-1.4764,-1.4976,-1.4782,-1.5828,0.0,-1.9419,-2.0231,-2.087,-2.1908,-2.2654,-2.343,-2.4436,-2.479,-2.5222,-2.6036,-2.5898,-2.5277,-2.4147,-2.441,-2.4543,-2.4509,-2.4562,-2.4395,-2.4079,-2.4862,-2.488,-2.4062,-2.4951,-2.5281,-2.481,-2.52,-2.493,-2.3987,-2.4061,-2.3715,-2.3256,-2.3243,-2.3235,-2.342,-2.3037,-2.2948,-2.288,-2.2593,-2.2681,-2.3123,-2.3619,-2.3755,-2.3655,0.0,0.0,0.0,0.0,0.0,0.0,0.0,0.0,0.0,0.0,0.0,0.0,0.0,0.0,0.0,0.0,0.0,0.0,0.0,-0.5997,-0.6579,-0.691,-0.7883,-0.8586,-0.8956,-0.8857,-0.9098,-0.9645,-0.9372,-0.95,-0.9904,-1.0214,-1.0184,-0.9791,-0.9588,-0.9234,-0.8718,-0.8545,-0.8856,-0.9341,-0.9334,0.0,0.0,0.0,0.0,0.0,0.0,0.0,0.0,0.0,0.0,0.0,0.0,0.0,-1.0697,-1.0661,-1.0659,-1.0661,-1.0811,-1.1433,-1.1981,-1.1451,-1.1897,-1.2806,-1.4287,-1.422,-1.4307,-1.5963,-1.5922,-1.565,-1.6096,-1.6809,-1.7792,-1.9236,-2.0471,-2.1935,-2.4065,0.0,-2.55,-2.6316,-2.6435,-2.6372,-2.6118,-2.6127,-2.5484,-2.4244,-2.4173,-2.4545,-2.5509,-2.4003,-2.3361,-2.3944,-2.3962,-2.403,-2.3959,-2.4497,-2.4611,-2.4404,-2.4854,-2.4322,-2.2886,-2.3659,-2.3747,-2.3064,-2.3635,-2.3693,-2.342,-2.3233,-2.2992,-2.2779,-2.2667,-2.294,-2.3532,-2.3718,-2.3954,-2.4152,0.0,0.0,0.0,0.0,0.0,0.0,0.0,0.0,0.0,0.0,0.0,0.0,0.0,0.0,0.0,0.0,0.0,0.0,0.0,-0.5985,-0.6652,-0.7218,-0.7893,-0.848,-0.9008,-0.8956,-0.9063,-0.9386,-0.9329,-0.9459,-0.9737,-0.9933,-0.9982,-0.9839,-0.9376,-0.9048,-0.8808,-0.8413,-0.8385,-0.8648,-0.8803,-0.9031,0.0,0.0,0.0,0.0,0.0,0.0,0.0,0.0,-0.9207,-0.9384,-0.9464,-0.9631,-0.9911,-0.9986,-1.0359,-1.0689,-1.0551,-1.1211,-1.1789,-1.1391,-1.1798,-1.2759,-1.4425,-1.5002,-1.5367,-1.5922,-1.6691,-1.7242,-1.7181,-1.7747,-1.8496,-1.9076,-2.0823,-2.2443,-2.3479,-2.4679,-2.5482,-2.5793,-2.5724,-2.5502,-2.5165,-2.4952,-2.4464,-2.3528,-2.4062,-2.4395,-2.4426,-2.3821,-2.3463,-2.33,-2.3375,-2.3151,-2.2715,-2.3331,-2.3434,-2.3114,-2.4012,-2.3826,-2.2788,-2.2933,-2.2737,-2.224,-2.229,-2.2264,-2.2108,-2.1831,-2.1813,-2.2005,-2.223,-2.2551,-2.2903,-2.3153,-2.3468,-2.3739,0.0,0.0,0.0,0.0,0.0,0.0,0.0,0.0,0.0,0.0,0.0,0.0,0.0,0.0,0.0,0.0,0.0,0.0,-0.5241,-0.5917,-0.6582,-0.7272,-0.7794,-0.8374,-0.891,-0.8956,-0.9102,-0.9252,-0.9283,-0.9298,-0.933,-0.9398,-0.9457,-0.9451,-0.8924,-0.8616,-0.8456,-0.8051,-0.7955,-0.8002,-0.8203,-0.8415,0.0,0.0,0.0,0.0,0.0,0.0,0.0,0.0,-0.8804,-0.8844,-0.8882,-0.905,-0.9282,-0.9616,-1.0154,-1.0588,-1.0566,-1.1122,-1.1722,-1.1607,-1.2081,-1.3113,-1.5007,-1.5749,-1.6271,-1.6979,-1.7679,-1.8082,-1.7888,-1.8297,0.0,0.0,-2.1172,-2.2773,-2.3237,-2.4369,-2.5121,-2.5249,-2.5154,-2.4945,-2.4727,-2.4622,-2.4253,-2.3565,-2.4121,-2.4269,-2.365,-2.3568,-2.3185,-2.2637,-2.2617,-2.2336,-2.1816,-2.2541,-2.2653,-2.2365,-2.3296,-2.3317,-2.2673,-2.2388,-2.2143,-2.1874,-2.1657,-2.15,-2.1379,-2.1122,-2.1138,-2.1259,-2.1758,-2.2008,-2.212,-2.2434,-2.2745,-2.2925,0.0,0.0,0.0,0.0,0.0,0.0,0.0,0.0,0.0,0.0,0.0,0.0,0.0,0.0,0.0,0.0,0.0,0.0,-0.4921,-0.5634,-0.6324,-0.677,-0.7518,-0.8203,-0.8804,-0.891,-0.9105,-0.9391,-0.9128,-0.8884,-0.8669,-0.8638,-0.8486,-0.8305,-0.8097,-0.7738,-0.7295,-0.7311,-0.7365,-0.7521,-0.7622,-0.7771,-0.7871,0.0,0.0,0.0,0.0,0.0,0.0,0.0,-0.8804,-0.8804,-0.8804,-0.8804,-0.8918,-0.967,-1.0031,-1.0313,-1.096,-1.1376,-1.168,-1.2043,-1.2759,-1.3966,-1.6204,-1.6395,-1.6858,-1.9385,-1.88,-1.7984,-1.8078,-1.8354,0.0,-1.9786,-2.1357,-2.2866,-2.3768,-2.4146,-2.4503,-2.4891,-2.4936,-2.4936,-2.4936,-2.5249,-2.5094,-2.4395,-2.4368,-2.4248,-2.3812,-2.3019,-2.224,-2.1867,-2.1861,-2.176,-2.1396,-2.1968,-2.2356,-2.2627,-2.2837,-2.2737,-2.2264,-2.2085,-2.1987,-2.1961,-2.1856,-2.1683,-2.1371,-2.1301,-2.1103,-2.0779,-2.1182,-2.1247,-2.1383,-2.176,-2.19,-2.19,0.0,0.0,0.0,0.0,0.0,0.0,0.0,0.0,0.0,0.0,0.0,0.0,0.0,0.0,0.0,0.0,0.0,0.0,-0.5263,-0.5765,-0.6329,-0.6786,-0.7214,-0.7777,-0.8381,-0.8396,-0.8549,-0.8985,-0.8747,-0.8552,-0.8405,-0.8282,-0.8142,-0.7962,-0.7657,-0.7504,-0.7427,-0.716,-0.709,-0.7246,-0.7461,-0.7568,-0.7616,0.0,0.0,0.0,0.0,0.0,0.0,0.0,0.0,0.0,-0.8804,-0.8857,-0.9037,-0.9584,-1.0017,-1.0429,-1.096,-1.1601,-1.215,-1.2203,-1.3173,-1.4479,-1.6053,-1.6682,-1.7468,-1.9524,-1.9126,-1.8669,-1.9044,-1.9281,0.0,-2.0137,-2.1202,-2.2161,-2.3051,-2.3625,-2.3971,-2.3886,-2.3904,-2.3904,-2.3904,-2.3803,-2.3648,-2.3441,-2.3651,-2.3651,-2.3213,-2.2558,-2.2212,-2.2118,-2.1564,-2.1228,-2.116,-2.1555,-2.1819,-2.1933,-2.2215,-2.218,-2.1961,-2.2066,-2.1854,-2.1327,-2.1213,-2.1077,-2.0893,-2.0689,-2.075,-2.0925,-2.0694,-2.0737,-2.0846,-2.0566,-2.0687,-2.0883,0.0,0.0,0.0,0.0,0.0,0.0,0.0,0.0,0.0,0.0,-0.4983,-0.506,0.0,0.0,0.0,0.0,0.0,0.0,0.0,-0.5817,-0.625,-0.6618,-0.6956,-0.7408,-0.7895,-0.7882,-0.8045,-0.8374,-0.8263,-0.8117,-0.7954,-0.7722,-0.7564,-0.7412,-0.7012,-0.6916,-0.6956,-0.6768,-0.6766,-0.6869,-0.7085,-0.7139,-0.7085,0.0,0.0,0.0,0.0,0.0,0.0,0.0,0.0,0.0,-0.8745,-0.8798,-0.8977,-0.9777,-1.0271,-1.0639,-1.1331,-1.2058,-1.2649,-1.2668,-1.3884,-1.5487,-1.6927,-1.7722,-1.8404,-1.9422,-1.9288,-1.9144,-1.9668,-1.9979,0.0,-2.0912,-2.1684,-2.246,-2.2994,-2.3447,-2.3755,-2.3546,-2.3546,-2.3546,-2.3546,-2.3555,-2.3447,-2.3447,-2.3664,-2.3719,-2.3476,-2.282,-2.2286,-2.2022,-2.1508,-2.1257,-2.1236,-2.1568,-2.1773,-2.1839,-2.2079,-2.2097,-2.1843,-2.1946,-2.1689,-2.1236,-2.1236,-2.1057,-2.0835,-2.082,-2.0881,-2.1037,-2.0525,-2.0377,-2.0397,-1.9687,-1.9594,-1.9843,0.0,0.0,0.0,0.0,0.0,0.0,0.0,0.0,0.0,0.0,-0.4591,-0.4638,0.0,0.0,0.0,0.0,0.0,0.0,0.0,-0.5757,-0.6081,-0.6352,-0.6647,-0.7036,-0.7413,-0.7413,-0.7461,-0.7616,-0.7638,-0.7582,-0.7357,-0.7033,-0.6879,-0.6771,-0.6368,-0.6178,-0.6232,-0.6332,-0.6386,-0.6381,-0.6598,-0.6544,-0.6436,-0.6771,0.0,0.0,0.0,0.0,0.0,0.0,0.0,0.0,-0.8573,-0.8573,-0.8844,-1.0108,-1.053,-1.0857,-1.1821,-1.2609,-1.3147,-1.333,-1.4816,-1.6681,-1.8437,-1.919,-1.9487,-1.9288,-1.9361,-1.9625,-2.0251,-2.0608,-2.1151,-2.1961,-2.2793,-2.3329,-2.3329,-2.3646,-2.3746,-2.3755,-2.3755,-2.3755,-2.3646,-2.3954,-2.4152,-2.4053,-2.4115,-2.4184,-2.4137,-2.333,-2.258,-2.1803,-2.1798,-2.1681,-2.1639,-2.1814,-2.1901,-2.2088,-2.2277,-2.2267,-2.1906,-2.1767,-2.1675,-2.1648,-2.1591,-2.1488,-2.1176,-2.1485,-2.145,-2.1102,-2.0572,-2.0163,-1.9915,-1.9039,-1.8735,-1.8827,0.0,0.0,0.0,0.0,0.0,0.0,0.0,0.0,0.0,0.0,0.0,0.0,0.0,0.0,0.0,0.0,0.0,0.0,0.0,-0.5397,-0.5549,-0.5863,-0.6289,-0.6544,-0.6652,-0.6652,-0.6707,-0.6918,-0.7356,-0.7486,-0.7318,-0.7003,-0.6737,-0.6504,-0.6301,-0.6178,-0.6178,-0.6228,-0.6228,-0.6282,-0.6386,-0.6436,-0.6436,-0.6652,-0.6761,0.0,0.0,0.0,0.0,0.0,0.0,0.0,-0.8421,-0.8421,-0.8637,-0.979,-1.0027,-1.0217,-1.1699,-1.2484,-1.3074,-1.3771,-1.5483,-1.7315,-1.853,-1.909,-1.9379,-1.9654,-2.0437,-2.1176,-2.1251,-2.1751,-2.2321,-2.2889,-2.2968,-2.3129,-2.3646,-2.3746,-2.3755,-2.3546,-2.3646,-2.3447,-2.2535,-2.3347,-2.3546,-2.2627,-2.3251,-2.3688,-2.3835,-2.3258,-2.2811,-2.2626,-2.2318,-2.1998,-2.1689,-2.168,-2.1726,0.0,-2.1817,-2.1861,-2.1779,-2.2008,-2.198,-2.1707,-2.1843,-2.1915,-2.2035,-2.2071,-2.1781,-2.1238,-2.067,-2.0037,-1.9301,-1.8775,-1.8574,-1.8566,0.0,0.0,0.0,0.0,0.0,0.0,0.0,0.0,0.0,0.0,0.0,0.0,0.0,0.0,0.0,0.0,0.0,0.0,0.0,0.0,-0.5686,-0.5951,-0.6,-0.6114,-0.6282,-0.6282,-0.6386,-0.6544,-0.6923,-0.7085,-0.7025,-0.6869,-0.6603,-0.6282,-0.6228,-0.6178,-0.6178,-0.6178,-0.6178,-0.6232,-0.6282,-0.6277,-0.6218,-0.649,-0.649,-0.6495,-0.6712,0.0,0.0,0.0,0.0,0.0,0.0,0.0,-0.8404,-0.95,-0.9699,-0.9886,-1.1158,-1.1941,-1.2695,-1.3943,-1.5473,-1.6988,-1.8037,-1.8859,-1.953,-2.0019,-2.0779,-2.1438,-2.181,-2.2455,-2.2968,-2.3386,-2.3251,-2.3189,-2.3311,-2.3381,-2.3187,-2.2584,-2.2575,-2.2351,-2.1428,-2.1845,-2.223,-2.2316,-2.2746,-2.3135,-2.3546,-2.3185,-2.2969,-2.3091,-2.2373,-2.2034,-2.2016,-2.2016,-2.1924,-2.1741,-2.2135,-2.2227,-2.2318,-2.2318,-2.2318,-2.2254,-2.2553,-2.2711,-2.2546,-2.2277,-2.1967,-2.1473,-2.0441,-1.9835,-1.9439,-1.8721,-1.8481,-1.8481,0.0,0.0,0.0,0.0,0.0,0.0,0.0,0.0,0.0,0.0,0.0,0.0,0.0,0.0,0.0,0.0,0.0,0.0,0.0,0.0,0.0,-0.6009,-0.5732,-0.5786,-0.6173,-0.6178,-0.6282,-0.6381,-0.6593,-0.6701,-0.6701,-0.6701,-0.6549,-0.6228,-0.6228,-0.6178,-0.6178,-0.6178,-0.6178,-0.6178,-0.6178,-0.6119,-0.6059,-0.6277,-0.6277,-0.6228,-0.6544,-0.681,-0.7031,-0.7187,0.0,0.0,0.0,0.0,-0.811,-0.9193,-0.9453,-0.9646,-1.0725,-1.1522,-1.243,-1.4133,-1.5194,-1.6126,-1.7369,-1.8481,-1.9438,-1.9991,-2.0704,-2.151,-2.207,-2.2655,-2.3126,-2.3193,-2.3139,-2.2934,-2.2515,-2.247,-2.2167,-2.1292,-2.1292,-2.1025,-2.0142,-2.0265,-2.0791,-2.1703,-2.207,-2.242,-2.2928,-2.2862,-2.2868,-2.3102,-2.2308,-2.1961,-2.2217,-2.2226,-2.2061,-2.175,-2.2226,-2.2496,-2.255,-2.2104,-2.2233,-2.2774,-2.3167,-2.3017,-2.2662,-2.2245,-2.1847,-2.1441,-2.0163,-1.9709,-1.9523,-1.8862,-1.8574,-1.8574,0.0,0.0,0.0,0.0,0.0,0.0,0.0,0.0,0.0,0.0,-0.3348,-0.3508,0.0,0.0,0.0,0.0,0.0,0.0,-0.489,0.0,0.0,-0.5234,-0.5458,-0.5732,-0.6005,-0.6119,-0.6282,-0.6381,-0.6593,-0.6701,-0.6701,-0.6701,-0.6598,-0.6386,-0.6228,-0.6178,-0.6178,-0.6178,-0.6178,-0.6178,-0.6178,-0.6178,-0.6173,-0.6228,-0.6228,-0.6232,-0.6386,-0.6598,-0.6761,-0.6928,-0.7095,0.0,0.0,0.0,-0.7937,-0.8864,-0.9114,-0.9408,-1.0902,-1.1966,-1.2975,-1.4403,-1.4859,-1.5433,-1.7021,-1.8041,-1.8688,-1.9115,-2.0759,-2.2134,-2.205,-2.2034,-2.2022,-2.2065,-2.1473,-2.0967,-2.082,-2.0707,-2.0619,-2.0232,-2.0418,-2.0047,-1.8829,-1.9713,-2.0021,-1.8996,-2.0279,-2.1277,-2.1735,-2.2155,-2.241,-2.2419,-2.2309,-2.2107,-2.1814,-2.1814,-2.1786,-2.1651,-2.1004,-2.0859,-2.1197,-2.0653,-2.1128,-2.2336,-2.2371,-2.2129,-2.1799,-2.1674,-2.1139,-2.0362,-2.0168,-1.9597,-1.8891,-1.8751,-1.8743,-1.8743,0.0,0.0,0.0,0.0,0.0,0.0,0.0,0.0,0.0,0.0,0.0,-0.3512,0.0,0.0,0.0,-0.4465,-0.4553,-0.4742,-0.5052,-0.5151,-0.5293,-0.5462,-0.5567,-0.5732,-0.6,-0.6119,-0.6282,-0.6381,-0.6593,-0.6761,-0.682,-0.6839,-0.6719,-0.6381,-0.6168,-0.6119,-0.6178,-0.6119,-0.6119,-0.6178,-0.6178,-0.6464,-0.6779,-0.6385,-0.6409,-0.6657,-0.6375,-0.6277,-0.6327,-0.6549,-0.6766,-0.6977,-0.7192,0.0,0.0,0.0,-0.8667,-0.9118,-1.0221,-1.1066,-1.1743,-1.2377,-1.3022,-1.3851,-1.5082,-1.6329,-1.7368,-1.7914,-1.9289,-2.0447,-2.0711,-2.0831,-2.0857,-2.044,-2.0256,-1.9942,-1.9559,-1.9597,-1.9437,-1.8601,-1.8594,-1.8288,-1.7323,-1.7721,-1.8177,-1.8368,-1.9589,-2.0629,-2.1475,-2.1981,-2.2447,-2.2815,-2.2254,-2.2025,-2.218,-2.1844,-2.1953,-2.2327,-2.144,-2.1353,-2.2022,-2.1526,-2.162,-2.22,-2.1916,-2.1709,-2.1457,-2.1036,-2.054,-2.0193,-1.9605,-1.9148,-1.8827,-1.8827,-1.8827,-1.8827,0.0,0.0,0.0,0.0,0.0,0.0,0.0,0.0,0.0,0.0,0.0,0.0,0.0,0.0,0.0,0.0,-0.4569,-0.472,-0.5124,-0.5187,-0.5352,-0.5626,-0.5626,-0.5786,-0.6059,-0.6173,-0.6332,-0.649,-0.6652,-0.682,-0.6879,-0.6946,-0.685,-0.6524,-0.63,-0.6239,-0.6253,-0.6188,-0.6193,-0.6257,-0.6253,-0.6565,-0.6981,-0.6538,-0.6648,-0.6979,-0.6435,-0.6193,-0.6128,-0.6296,-0.649,-0.6647,-0.6977,-0.7252,0.0,0.0,0.0,-0.9086,-0.9647,-1.0146,-1.0549,-1.084,-1.1567,-1.2408,-1.3393,-1.4753,-1.5928,-1.6533,-1.7312,-1.7977,-1.8345,-1.905,-1.9405,-1.8871,-1.8824,-1.8619,-1.8103,-1.8186,-1.7979,-1.6985,-1.6899,-1.6714,-1.6198,-1.619,-1.6807,-1.7993,-1.8762,-1.9708,-2.096,-2.1443,-2.1943,-2.2575,-2.1876,-2.1728,-2.2124,-2.1853,-2.1476,-2.0898,-2.1107,-2.1208,-2.1194,-2.1009,-2.0814,-2.0831,-2.1053,-2.094,-2.0529,-1.9784,-1.9483,-1.9365,-1.8729,-1.8542,-1.8827,-1.8827,-1.8827,-1.8827,0.0,0.0,0.0,0.0,0.0,0.0,0.0,0.0,0.0,0.0,0.0,0.0,-0.3555,-0.3846,-0.4069,-0.4197,-0.4635,-0.4838,-0.4743,-0.4963,-0.5128,-0.5124,-0.5572,0.0,-0.6178,-0.6332,-0.649,-0.6707,-0.682,-0.6879,-0.6879,-0.6895,-0.6955,-0.6986,-0.6846,-0.6646,-0.6459,-0.6459,-0.6402,-0.6297,-0.6459,-0.6411,-0.6391,-0.6688,-0.6768,-0.6809,-0.6534,-0.6459,-0.6431,-0.6294,-0.6282,-0.649,-0.6825,-0.7095,-0.7371,0.0,0.0,0.0,-0.9765,-0.992,-1.0125,-1.0953,-1.1198,-1.1582,-1.3181,-1.3937,-1.4489,-1.5051,-1.5182,-1.5078,-1.4788,-1.6374,-1.7652,-1.762,-1.7022,-1.65,-1.6138,-1.6152,-1.607,-1.5707,-1.5892,-1.5988,-1.5638,-1.5903,-1.6444,-1.7175,-1.7266,-1.8081,-1.9707,-1.98,-2.0036,-2.0649,-2.0828,-2.0985,-2.0953,-2.1428,-1.9595,-1.5542,-1.8667,-1.8823,-1.6514,-1.706,-1.7236,-1.7186,-1.9301,-1.9458,-1.8179,-1.7606,-1.7412,-1.7412,-1.7397,-1.7963,-1.8827,-1.8827,-1.8827,-1.8827,0.0,0.0,0.0,0.0,0.0,0.0,0.0,0.0,0.0,0.0,0.0,0.0,0.0,-0.3469,-0.3727,-0.4066,-0.4491,-0.4739,-0.4691,-0.4849,-0.5011,-0.5069,-0.5458,-0.5736,-0.5959,-0.6223,-0.649,-0.6701,-0.682,-0.6933,-0.7036,-0.7081,-0.7079,-0.7105,-0.6784,-0.6543,-0.6473,-0.642,-0.6237,-0.6008,-0.6114,-0.6435,-0.6822,-0.6112,-0.6452,-0.7238,-0.6415,-0.6068,-0.6006,-0.6228,-0.6114,-0.5946,-0.644,-0.6771,-0.7203,-0.7901,-0.8236,-0.858,-0.9266,-0.9532,-0.9773,-1.0444,-1.0696,-1.0936,-1.1804,-1.219,-1.2567,-1.3086,-1.3441,-1.3653,-1.3743,-1.4393,-1.5,-1.5291,-1.4984,-1.4795,-1.4825,-1.5273,-1.5479,-1.5225,-1.5486,-1.5665,-1.5404,-1.5673,-1.5819,-1.5826,-1.7055,-1.793,-1.8352,-1.9556,-2.0165,-2.0214,-1.996,-1.9812,-1.9791,-1.8588,-1.7018,-1.5225,-1.6684,-1.6981,-1.6382,-1.6228,-1.6235,-1.6161,-1.6696,-1.6718,-1.6345,-1.6167,-1.6557,-1.7296,-1.7296,-1.787,-1.8827,-1.8827,-1.8827,-1.8827,0.0,0.0,0.0,0.0,0.0,0.0,0.0,0.0,0.0,-0.2691,0.0,0.0,0.0,0.0,-0.3466,-0.391,-0.4242,-0.4411,-0.4522,-0.4684,-0.4846,-0.5014,-0.5348,-0.5622,-0.595,-0.6168,-0.6495,-0.6815,-0.682,-0.6874,-0.7036,-0.7025,-0.7023,-0.7043,-0.6832,-0.6692,-0.6697,-0.6655,-0.6356,-0.5901,-0.6199,-0.642,-0.6575,-0.5977,-0.6237,-0.6862,-0.6363,-0.6079,-0.5981,-0.6529,-0.637,-0.6036,-0.6374,-0.6553,-0.6815,-0.7676,-0.7842,-0.7943,-0.8783,-0.908,-0.933,-1.0021,-1.0251,-1.0469,-1.0879,-1.1164,-1.1365,-1.1751,-1.2,-1.2208,-1.2511,-1.2427,-1.2644,-1.3619,-1.3609,-1.3509,-1.3704,-1.4314,-1.4699,-1.4541,-1.4963,-1.522,-1.5063,-1.5231,-1.535,-1.5357,-1.6654,0.0,-1.7985,-1.8987,-1.952,-1.9594,-1.86,-1.7839,-1.7157,-1.5251,-1.4153,-1.3967,-1.4581,-1.4859,-1.4804,-1.5026,-1.4959,-1.4616,-1.4359,-1.4493,-1.4773,-1.4864,-1.5378,-1.6206,-1.6598,-1.7397,-1.835,-1.8635,-1.8827,-1.8827,0.0,0.0,0.0,0.0,0.0,0.0,0.0,0.0,-0.2691,-0.2691,0.0,0.0,0.0,0.0,0.0,-0.3741,-0.3796,-0.391,-0.4193,-0.4356,-0.4625,-0.4846,-0.5128,-0.5567,-0.6154,-0.6168,-0.6495,-0.7085,-0.681,-0.6761,-0.6879,-0.6771,-0.6724,-0.683,-0.6998,-0.7096,-0.711,-0.7197,-0.6796,-0.6174,-0.6687,-0.6423,-0.5685,-0.6407,-0.6242,-0.5676,-0.642,-0.65,-0.6438,-0.7205,-0.7187,-0.6722,-0.6588,-0.6425,-0.6317,-0.7074,-0.7348,-0.7626,0.0,0.0,0.0,-0.968,-0.9962,-1.0104,-1.0581,-1.086,-1.1069,-1.0997,-1.0777,-1.0688,-1.0991,-1.0516,-1.0739,-1.2609,-1.2765,-1.2625,-1.2632,-1.3193,-1.3588,-1.3588,-1.4145,-1.4472,-1.4465,-1.4607,-1.5123,-1.6041,-1.6186,-1.6877,-1.8388,-1.795,-1.7878,-1.8368,-1.664,-1.4874,-1.3104,-1.1882,-1.1336,-1.1354,-1.2522,-1.2476,-1.1337,-1.3165,-1.3372,-1.2363,-1.2534,-1.2994,-1.3586,-1.3749,-1.3863,-1.3999,-1.5295,-1.6351,-1.739,-1.835,-1.8735,-1.8735,0.0,0.0,0.0,0.0,0.0,0.0,-0.2691,-0.2691,-0.2691,0.0,0.0,0.0,-0.2747,-0.28,-0.3023,-0.3469,-0.358,-0.3747,-0.391,-0.4135,-0.4301,-0.4411,-0.4688,-0.5018,-0.5395,-0.5837,-0.6223,-0.6598,-0.6647,-0.6707,-0.6766,-0.688,-0.6897,-0.6816,-0.7152,-0.7249,-0.7202,-0.7197,-0.6875,-0.6355,-0.6745,-0.6709,-0.6467,-0.6567,-0.694,-0.7327,-0.7107,-0.6618,-0.6229,-0.7207,-0.6442,-0.5133,-0.5701,-0.6032,-0.6263,-0.6539,-0.6869,-0.7198,-0.7773,0.0,0.0,0.0,0.0,0.0,-1.0481,-1.0484,-1.0358,-1.0436,-1.0368,-1.0356,-1.0484,-1.0137,-1.0095,-1.0599,-1.1111,-1.1467,-1.1656,-1.2393,-1.2942,-1.3101,-1.3666,-1.4066,-1.4223,-1.4381,-1.4562,0.0,-1.4999,-1.542,-1.565,-1.5706,-1.5767,-1.5711,-1.4441,-1.3688,-1.3457,-1.2014,-1.1428,-1.178,-1.202,-1.1832,-1.13,-1.2015,-1.2032,-1.1602,-1.1688,-1.1766,-1.1997,-1.2238,-1.2905,-1.3975,-1.4328,-1.5136,-1.6358,-1.7296,-1.721,-1.6835,0.0,0.0,0.0,0.0,0.0,-0.2296,-0.2635,-0.2691,-0.2691,0.0,0.0,0.0,-0.2856,-0.2856,-0.2968,-0.3244,-0.3413,-0.358,-0.3796,-0.3965,-0.4135,-0.4301,-0.4415,-0.4688,-0.5069,-0.5454,-0.5837,-0.6322,-0.6381,-0.6436,-0.6495,-0.6568,-0.6464,-0.6298,-0.6768,-0.696,-0.6851,-0.6958,-0.6737,-0.6328,-0.6812,-0.6785,-0.6432,-0.6646,-0.6988,-0.7255,-0.7302,-0.6986,-0.6664,-0.7703,-0.6864,-0.5411,-0.5822,-0.5802,-0.5719,-0.6055,-0.6386,-0.6737,-0.7207,-0.7633,-0.8175,-0.9053,0.0,0.0,-0.9991,-1.0153,-1.0162,-0.9937,-0.9974,-1.0017,-0.9977,-0.9826,-0.9696,-0.9622,-1.0085,-1.0496,-1.0562,-1.1099,-1.1621,-1.1853,-1.2414,-1.2818,-1.2831,-1.3168,-1.3263,-1.2903,-1.3745,-1.4301,-1.4374,-1.4518,-1.4438,-1.4151,-1.3089,-1.2701,-1.2901,-1.1752,-1.125,-1.1467,-1.1592,-1.1432,-1.1299,-1.131,-1.137,-1.1294,-1.1203,-1.1257,-1.1451,-1.1499,-1.2182,-1.3361,-1.4204,-1.5071,-1.6089,-1.7397,-1.7397,-1.6741,0.0,0.0,-0.1728,-0.1902,-0.2071,-0.224,-0.2577,-0.2691,-0.2691,0.0,-0.2805,-0.2914,-0.3077,-0.3077,-0.3077,-0.3074,-0.3299,-0.3522,-0.3744,-0.3796,-0.3962,-0.4408,-0.4245,-0.4411,-0.4959,-0.5014,-0.5395,-0.61,-0.5941,-0.6005,-0.6178,-0.6028,-0.5813,-0.5614,-0.6112,-0.6397,-0.6406,-0.6587,-0.6493,-0.6252,-0.6884,-0.6662,-0.6112,-0.6855,-0.6816,-0.6452,-0.7411,-0.7483,-0.7372,-0.8114,-0.7619,-0.6597,-0.6322,-0.5689,-0.5106,-0.5597,-0.5977,-0.6325,-0.6727,-0.7041,-0.7421,-0.8152,-0.8795,0.0,-0.9423,-1.0004,-1.0332,-0.9728,-0.974,-0.974,-0.9612,-0.961,-0.9559,-0.9481,-0.9616,-0.9719,-0.9497,-0.984,-1.0182,-1.0408,-1.0968,-1.1224,-1.103,-1.1474,-1.174,-1.1495,-1.2433,-1.3165,-1.3611,-1.359,-1.3434,-1.3002,-1.227,-1.1878,-1.1902,-1.1244,-1.0928,-1.0869,-1.1192,-1.1284,-1.1134,-1.0978,-1.1013,-1.1216,-1.1061,-1.1281,-1.1574,-1.1429,-1.1701,-1.2575,-1.4381,-1.5405,-1.6142,-1.787,-1.8071,-1.7498,0.0,-0.1154,-0.1194,-0.1619,-0.1793,-0.1958,-0.2127,-0.2465,-0.2635,-0.2577,-0.2635,-0.2802,-0.2914,-0.2914,-0.297,-0.3074,-0.3299,-0.3413,-0.3469,-0.358,-0.3694,-0.3749,-0.3855,-0.3965,-0.4187,-0.4463,-0.4901,-0.5496,-0.534,-0.5458,-0.585,-0.5884,-0.573,-0.5469,-0.5937,-0.6216,-0.6233,-0.6392,-0.6523,-0.6597,-0.6771,-0.6814,-0.6871,-0.7522,-0.7825,-0.801,-0.8383,-0.8053,-0.7411,-0.6474,-0.6483,-0.666,-0.5461,-0.5472,-0.577,-0.5345,-0.5831,-0.6473,-0.6257,-0.6549,-0.7095,-0.7706,-0.8196,0.0,-0.95,-0.9781,-0.9952,-1.0129,-1.0053,-0.9919,-0.9926,-0.9841,-0.975,-0.975,-0.9527,-0.9446,-0.9522,-0.9852,-1.0194,-1.0408,-1.0729,-1.1006,-1.1005,-1.1235,-1.132,-1.1102,-1.1254,-1.1295,-1.1244,-1.1078,-1.1067,-1.11,-1.0767,-1.0841,-1.1197,-1.0937,-1.1095,-1.1525,-1.169,-1.1447,-1.0853,-1.0869,-1.0821,-1.0719,-1.0902,-1.1009,-1.1158,-1.1268,-1.1603,-1.2143,-1.2746,-1.354,-1.454,-1.6094,-1.6466,-1.6271,-0.1193,-0.1014,-0.1045,-0.1511,-0.1682,-0.1793,-0.2071,-0.2296,-0.241,-0.2352,-0.2521,-0.2689,-0.2968,-0.2858,-0.2802,-0.2912,-0.3077,-0.3244,-0.3413,-0.3471,-0.3583,-0.3802,-0.3747,-0.3802,-0.4079,-0.419,-0.4553,-0.5193,-0.5053,-0.5171,-0.5542,-0.5534,-0.5309,-0.4989,-0.5611,-0.5825,-0.572,-0.6104,-0.6332,-0.636,-0.6806,-0.7057,-0.7244,-0.7803,-0.8165,-0.8403,-0.8627,-0.8481,-0.8062,-0.7277,-0.6885,-0.6622,-0.6163,-0.5763,-0.5424,-0.5388,-0.5679,-0.5922,-0.5832,-0.6055,-0.646,-0.6949,-0.7505,0.0,0.0,-0.9058,-0.9475,-0.9681,-0.9699,-0.9734,-0.9734,-0.9798,-0.9734,-0.9664,-0.9204,-0.9032,-0.9426,-0.9533,-0.96,-0.9801,-1.0055,-1.0079,-1.0001,-1.0244,-1.0387,-1.0296,-1.0266,-1.0201,-1.0261,-1.0169,-1.0159,-1.0277,-1.0164,-1.0241,-1.059,-1.0633,-1.0858,-1.1212,-1.1431,-1.1266,-1.0717,-1.0662,-1.0734,-1.0978,-1.0844,-1.1028,-1.1346,-1.13,-1.1505,-1.1986,-1.3111,-1.4076,-1.5002,-1.6643,-1.7079,-1.6741,-0.1056,-0.0982,-0.101,-0.1403,-0.1515,-0.1684,-0.1961,-0.2071,-0.2127,-0.2183,-0.2352,-0.2575,-0.2965,-0.2856,-0.2761,-0.2853,-0.2876,-0.3037,-0.3362,-0.3327,-0.3524,-0.3965,-0.3747,-0.3805,-0.4193,-0.4079,-0.4356,-0.4987,-0.4853,-0.4971,-0.5216,-0.5079,-0.4868,-0.4685,-0.5321,-0.5476,-0.5341,-0.5887,-0.6102,-0.603,-0.6814,-0.7085,-0.7131,-0.7693,-0.8067,-0.8294,-0.8557,-0.867,-0.8618,-0.8201,-0.7354,-0.6573,-0.6686,-0.5938,-0.5127,-0.5424,-0.5528,-0.5452,-0.5515,-0.5614,-0.583,-0.6225,-0.685,-0.7445,0.0,0.0,0.0,-0.9065,-0.927,-0.9406,-0.9539,-0.9666,-0.9724,-0.9578,-0.9105,-0.893,0.0,-0.9302,0.0,-0.9467,-0.9431,-0.934,-0.9232,-0.9355,-0.9533,-0.9493,-0.9625,-0.9756,-0.9841,-0.9895,-0.9916,-0.9992,-0.9916,-0.9992,-1.0293,-1.0443,-1.0588,-1.0812,-1.098,-1.098,-1.0738,-1.0524,-1.071,-1.1238,-1.0864,-1.1134,-1.1718,-1.1505,-1.1527,-1.1894,-1.3523,-1.4721,-1.5819,-1.7259,-1.7873,-1.7785,-0.0715,-0.0858,-0.0898,-0.0954,-0.129,-0.1459,-0.1234,-0.1568,-0.1902,-0.2015,-0.2127,-0.2352,-0.2691,-0.2805,-0.2985,-0.3278,-0.3071,-0.3044,-0.3401,-0.3127,-0.319,-0.3796,-0.3691,-0.3805,-0.4193,-0.4193,-0.4311,-0.4543,-0.4525,-0.4691,-0.4927,-0.4805,-0.4874,-0.5132,-0.5132,-0.5417,-0.5821,-0.5875,-0.6104,-0.6329,-0.6592,-0.6522,-0.6356,-0.6948,-0.7301,-0.7686,-0.8221,-0.8548,-0.8519,-0.7068,-0.676,-0.6565,-0.5121,-0.523,-0.5721,-0.5181,-0.5449,-0.5907,-0.5288,-0.5408,-0.5637,0.0,-0.6397,-0.7032,-0.7651,0.0,-0.8454,-0.8889,0.0,-0.9124,-0.9568,0.0,0.0,-0.9691,-0.9643,-0.9585,-0.9451,-0.958,-0.982,-1.018,-0.9699,-0.9462,-0.9856,-0.9652,-0.9396,-0.9186,-0.9621,-0.9859,-0.9677,-0.9809,-0.9992,-1.0143,-0.9992,-1.0067,-1.0438,-1.0513,-1.0588,-1.0732,-1.098,-1.1067,-1.1061,-1.0761,-1.0766,-1.097,-1.1107,-1.1438,-1.1718,-1.1861,-1.1957,-1.198,-1.2312,-1.3539,-1.5266,-1.5889,-1.7217,-1.845,-0.0209,-0.0651,-0.0898,-0.0898,-0.1066,-0.1122,-0.101,-0.1289,-0.1681,-0.2071,-0.1961,-0.2018,-0.2352,-0.2336,-0.2448,-0.2813,-0.2741,-0.2819,-0.3073,-0.3186,-0.3318,-0.3551,-0.3721,-0.3972,-0.42,-0.4123,-0.4284,-0.4596,-0.4399,-0.4511,-0.4763,-0.473,-0.4773,-0.493,-0.472,-0.4989,-0.5594,-0.5356,-0.5522,-0.5933,-0.5606,-0.5372,-0.542,-0.6531,-0.7325,-0.7788,-0.8137,-0.8259,-0.8219,0.0,-0.678,0.0,0.0,-0.5215,-0.5029,-0.5137,-0.5182,-0.5198,-0.5125,-0.5169,0.0,0.0,0.0,0.0,-0.6563,0.0,-0.7229,0.0,0.0,0.0,0.0,0.0,0.0,0.0,-0.8696,-0.865,-0.9187,-0.885,-0.8949,-0.9987,0.0,0.0,-0.9993,-0.9649,-0.9374,-0.9304,-0.9491,-0.9725,-0.9913,-0.9952,-1.0148,-1.0363,-1.0293,-1.0368,-1.0663,-1.0663,-1.0738,-1.0956,-1.1043,-1.1123,-1.1123,-1.0899,-1.0813,-1.099,-1.0942,-1.1049,-1.121,-1.1455,-1.1556,-1.1584,-1.1484,-1.2674,-1.45,-1.5701,-1.6422,-1.6757,0.0378,-0.0221,-0.0617,-0.0729,-0.0729,-0.0785,-0.0898,-0.1122,-0.1402,-0.1905,-0.1794,-0.1802,-0.2156,-0.2121,-0.2194,-0.2501,-0.2557,-0.2654,-0.2908,-0.3058,-0.3199,-0.3329,-0.3675,-0.3926,-0.4166,-0.4146,-0.4295,-0.4629,-0.4429,-0.4468,-0.4683,-0.4689,-0.4794,-0.499,-0.474,-0.4889,-0.527,-0.4973,-0.4882,-0.496,-0.4546,-0.4359,-0.4477,-0.5955,-0.6968,-0.7737,-0.772,-0.7705,-0.769,-0.7204,-0.6546,0.0,-0.5691,-0.5072,-0.4589,-0.5052,-0.4938,-0.4747,-0.4941,0.0,0.0,0.0,0.0,0.0,0.0,0.0,0.0,0.0,0.0,0.0,0.0,0.0,0.0,0.0,0.0,-0.8034,-0.8681,-0.836,-0.8633,-1.0129,-1.0547,0.0,0.0,-0.9582,-0.9344,-0.9334,-0.9342,-0.9508,-1.0022,-1.0035,-1.0262,-1.0582,-1.0513,-1.0588,-1.0887,-1.0812,-1.0887,-1.1111,-1.1111,-1.1111,-1.1111,-1.0962,-1.0959,-1.114,-1.0745,-1.0807,-1.1059,-1.1134,-1.1233,-1.1171,-1.0979,-1.1771,-1.3244,-1.4629,-1.5069,-1.4969,0.0896,0.056,0.0112,-0.0224,-0.0393,-0.0505,-0.0842,-0.101,-0.1178,-0.1291,-0.1572,-0.1876,-0.2107,-0.2358,-0.2594,-0.2877,-0.2825,-0.2827,-0.2899,-0.2696,-0.275,-0.3085,-0.3322,-0.3628,-0.4116,-0.4405,-0.4507,-0.4394,-0.4594,-0.4691,-0.4698,-0.4691,-0.5026,-0.5631,-0.5457,-0.5266,-0.508,-0.4882,-0.435,-0.356,-0.3655,-0.3684,-0.3678,0.0,-0.6012,-0.7183,-0.6891,0.0,0.0,-0.5926,-0.5868,0.0,0.0,0.0,0.0,0.0,0.0,0.0,0.0,0.0,0.0,-0.5037,0.0,0.0,0.0,0.0,-0.6177,0.0,0.0,0.0,0.0,0.0,0.0,0.0,0.0,0.0,0.0,-0.8604,-0.9679,-1.0811,-1.1179,-1.0934,0.0,-0.9576,-0.932,-0.928,-0.9168,-0.9287,-0.9782,-1.0022,-1.0335,-1.0807,-1.0594,-1.0663,-1.1111,-1.0887,-1.0887,-1.1111,-1.1111,-1.1111,-1.1111,-1.1111,-1.1111,-1.114,-1.0801,-1.0948,-1.1301,-1.1051,-1.0982,-1.1004,-1.0722,-1.0814,-1.1192,-1.202,-1.3058,-1.4044,0.1066,0.0898,0.0785,0.0561,0.0056,-0.0508,-0.104,-0.1024,-0.1108,-0.142,-0.1414,-0.151,-0.1854,-0.2077,-0.2293,-0.2662,-0.2666,-0.2666,-0.2666,-0.2729,-0.2767,-0.2764,-0.2973,-0.3266,-0.3656,-0.3732,-0.3813,-0.3868,-0.4189,-0.4346,-0.4523,-0.4703,-0.4991,-0.5307,-0.4615,-0.4397,-0.4553,-0.3887,-0.3487,-0.3286,-0.2843,-0.2894,-0.3341,0.0,-0.5126,-0.5708,-0.6065,-0.6292,0.0,-0.585,-0.5574,-0.5332,-0.4847,-0.4637,-0.4658,-0.4643,-0.4688,0.0,0.0,0.0,-0.4993,-0.4876,0.0,0.0,0.0,0.0,0.0,0.0,0.0,0.0,0.0,0.0,0.0,0.0,0.0,0.0,0.0,-0.7951,-0.8665,-0.893,-0.9656,-1.0112,-0.9952,0.0,-0.8742,-0.8748,-0.8755,-0.8843,-0.9157,-0.9829,-1.0367,-1.0694,-1.0873,-1.0962,-1.1111,-1.1037,-1.1037,-1.1111,-1.1111,-1.0881,-1.0576,-1.0363,-0.9862,-0.899,-0.8846,-0.8904,-0.9155,-0.9284,-0.9624,-1.011,-1.0075,-1.0248,-1.0646,-1.1657,-1.1926,-1.1732,0.1403,0.1234,0.1122,0.0954,0.0113,-0.069,-0.1057,-0.0953,-0.0874,-0.1176,-0.1123,-0.1162,-0.142,-0.1556,-0.1756,-0.2021,-0.2378,-0.2525,-0.2525,-0.2531,-0.2537,-0.2468,-0.2707,-0.298,-0.3186,-0.334,-0.3474,-0.3559,-0.3832,-0.4119,-0.4299,-0.4488,-0.4807,-0.5065,-0.4432,-0.4113,-0.3954,-0.3355,-0.2834,-0.2384,-0.1928,-0.1996,-0.2457,0.0,-0.4073,-0.4686,0.0,-0.5463,-0.5408,-0.5491,-0.5316,-0.5104,-0.491,-0.4701,-0.4591,-0.4692,-0.4725,-0.4778,-0.4815,-0.4472,0.0,-0.3771,-0.4138,0.0,-0.4275,0.0,-0.4241,0.0,0.0,0.0,0.0,0.0,0.0,0.0,0.0,0.0,0.0,-0.73,-0.7591,-0.7704,-0.8634,-0.9155,-0.8963,-0.8527,-0.8069,-0.7666,-0.7932,-0.8306,-0.8885,-0.961,-1.0323,-1.0919,-1.1027,-1.1111,-1.1111,-1.0732,-1.0657,-1.0887,-1.0507,-1.0282,-1.0132,-0.9599,-0.8898,-0.8045,-0.7588,-0.7604,-0.8025,-0.8134,-0.8649,-0.9346,-0.9303,-0.9501,-0.9941,-1.0794,-1.0865,-1.0471,0.1797,0.1518,0.1181,0.0956,-0.0115,-0.0942,-0.1006,-0.0765,-0.0612,-0.0493,-0.0592,-0.0701,-0.0737,-0.0855,-0.0883,-0.0991,-0.1838,-0.2425,-0.2561,-0.2213,-0.2074,-0.2301,-0.2455,-0.2682,-0.2848,-0.3322,-0.3513,-0.3476,-0.3693,-0.3891,-0.4078,-0.4078,-0.4451,-0.5078,-0.483,-0.4251,-0.342,-0.3284,-0.2384,-0.1121,-0.1152,-0.1165,-0.117,-0.1873,-0.2914,-0.4046,-0.4678,-0.4591,-0.4285,-0.4781,-0.4964,-0.503,-0.477,-0.4735,-0.4803,-0.4681,-0.4662,-0.4664,-0.4476,-0.3423,-0.2387,-0.2042,0.0,0.0,0.0,0.0,-0.4385,0.0,0.0,0.0,0.0,0.0,0.0,0.0,0.0,0.0,0.0,-0.6674,-0.6551,-0.7131,-0.7935,-0.81,-0.7333,-0.7487,-0.7163,-0.6169,-0.6898,-0.7766,0.0,-0.9259,-1.0095,-1.1292,-1.118,-1.1037,-1.1031,-1.0051,-0.9825,-1.0363,-0.9377,-0.9231,-0.9765,-0.8666,-0.821,-0.8147,-0.7042,-0.6977,-0.7723,-0.7667,-0.8011,-0.8617,-0.8636,-0.882,-0.9069,-0.9428,-0.9907,-1.0168,0.1515,0.1202,0.0989,0.0931,0.0287,-0.0466,-0.1188,-0.1049,-0.0706,-0.0079,-0.0503,-0.071,-0.0286,-0.0194,-0.0293,-0.0294,-0.0097,-0.0671,-0.2162,-0.161,-0.1469,-0.2137,-0.2072,-0.2203,-0.2547,-0.2707,-0.2737,-0.2661,-0.3296,-0.3607,-0.3675,-0.3939,-0.4219,-0.4515,-0.4315,-0.3732,-0.2885,-0.2818,-0.2157,-0.109,-0.1261,-0.1433,-0.1536,0.0,-0.1614,-0.2743,-0.371,-0.4353,-0.4699,-0.4906,-0.496,-0.4902,-0.4798,-0.4749,-0.4603,-0.4129,-0.4032,-0.3818,-0.2847,-0.2402,-0.2189,-0.2216,-0.2824,-0.3437,0.0,0.0,0.0,0.0,0.0,0.0,0.0,0.0,0.0,0.0,0.0,0.0,0.0,-0.5548,-0.5579,-0.5665,-0.584,-0.6257,-0.7037,-0.6666,-0.628,-0.5864,-0.6401,-0.6876,-0.7184,0.0,-0.9704,-1.0664,-1.0638,-1.0507,-1.0196,-0.982,-0.9291,-0.8689,-0.8466,-0.8232,-0.8075,-0.7302,-0.6615,-0.6086,-0.5461,-0.5386,-0.5786,-0.6565,-0.7119,-0.7525,-0.872,-0.9343,-0.9689,-0.9611,-0.956,-0.9508,0.1681,0.1441,0.113,0.0733,0.0812,0.0518,-0.0619,-0.0774,0.0,-0.0256,-0.0178,0.0,0.0392,0.04,0.0303,0.0303,0.0596,0.0097,-0.1437,-0.111,-0.1164,-0.2009,-0.1909,-0.1977,-0.2272,-0.2477,-0.2519,-0.2555,-0.2954,-0.322,-0.3355,-0.3491,-0.3761,-0.4164,-0.3961,-0.365,-0.3215,-0.277,-0.2213,-0.1577,-0.1481,-0.1439,0.0,-0.1063,-0.1087,-0.1576,-0.2892,-0.3722,-0.4313,-0.4791,-0.4667,-0.4298,-0.4177,-0.4049,-0.3916,-0.3503,-0.3264,-0.3034,-0.2519,-0.2075,-0.1788,-0.1834,-0.2068,-0.2417,-0.3031,-0.3299,-0.3449,0.0,-0.2682,-0.2197,0.0,0.0,0.0,0.0,0.0,0.0,0.0,-0.4831,-0.4866,-0.5063,-0.4998,-0.5241,-0.5983,-0.5893,-0.5596,-0.5221,-0.599,0.0,0.0,0.0,-0.9416,-1.0425,-1.019,-0.9932,-0.9669,-0.877,-0.8159,-0.7851,-0.7391,-0.7165,-0.7238,-0.6549,-0.5931,-0.5395,-0.5012,-0.4851,-0.4932,-0.5851,-0.6718,-0.7454,-0.8896,-0.9329,-0.9323,-0.8807,-0.9074,-0.9607,0.2029,0.1861,0.1458,0.064,0.146,0.1862,0.0,0.0078,0.0,-0.0897,0.0,0.0665,0.0676,0.0797,0.0913,0.0913,0.0698,0.0194,-0.0654,-0.0756,-0.1106,-0.2042,-0.2062,-0.2079,-0.2126,-0.2436,-0.2625,-0.2686,-0.2686,-0.2889,-0.3159,-0.3025,-0.336,-0.3964,-0.384,-0.3762,-0.3713,-0.2795,-0.2282,-0.2092,-0.1585,-0.131,-0.1167,-0.1228,-0.1016,-0.0865,-0.2046,-0.2919,-0.3604,-0.455,-0.4256,-0.3446,-0.3154,-0.3045,-0.3029,-0.2885,-0.2643,-0.2474,-0.2708,-0.1963,-0.1219,-0.1171,-0.1232,-0.1435,-0.2343,-0.3499,-0.4286,-0.4077,-0.2369,-0.1545,0.0,0.0,0.0,-0.3473,0.0,0.0,0.0,-0.4357,-0.4375,-0.4786,-0.4687,0.0,-0.4834,-0.5129,-0.5106,-0.4551,-0.5597,0.0,0.0,0.0,-0.9098,-1.0058,-0.9682,-0.9276,-0.9032,-0.7473,-0.6845,-0.7188,-0.6254,-0.6096,-0.6633,-0.6015,-0.5628,-0.547,-0.509,-0.4854,-0.4696,-0.5551,-0.66,-0.7871,-0.8858,-0.8886,-0.8261,-0.7647,-0.8356,-0.9598,0.1992,0.1772,0.1593,0.129,0.2008,0.305,0.4255,0.191,-0.0558,-0.183,-0.1314,-0.1043,-0.1256,0.0312,0.1447,0.1447,0.0915,0.0,-0.0876,-0.0768,-0.1214,-0.2402,-0.2152,-0.2126,-0.2349,-0.2508,-0.2556,-0.2423,-0.2757,-0.2956,-0.3025,-0.3023,-0.3226,-0.3567,-0.3646,-0.3481,-0.301,-0.2532,-0.1942,-0.1292,-0.1358,-0.1295,-0.1136,-0.1196,-0.1219,-0.1221,-0.1463,-0.2255,-0.3306,-0.3916,-0.3317,-0.2342,-0.2478,-0.2827,-0.3001,-0.232,-0.2368,-0.25,-0.1678,-0.1043,-0.0686,-0.0703,-0.0693,-0.0755,-0.0981,-0.1807,-0.2558,-0.2494,-0.0971,0.0148,-0.0222,0.0,0.0,0.0,0.0,0.0,0.0,0.0,-0.4081,-0.3636,-0.3848,-0.4094,-0.4545,-0.4807,-0.4829,-0.4514,-0.531,0.0,0.0,0.0,-0.8203,0.0,-0.8548,0.0,0.0,0.0,-0.6244,-0.563,-0.5294,-0.5249,-0.5326,-0.501,-0.4854,-0.4854,-0.4779,-0.4698,-0.4792,-0.5813,-0.6894,-0.7755,-0.7632,-0.757,-0.757,-0.6757,-0.6933,-0.7566,0.2455,0.2444,0.2537,0.2611,0.3173,0.0,0.0,0.3507,0.0814,-0.0799,-0.0803,-0.0607,-0.0715,0.0614,0.1645,0.1661,0.1328,0.0704,-0.0,-0.0194,-0.0656,-0.1438,-0.1722,-0.1873,-0.1895,-0.2141,-0.2376,-0.2527,0.0,0.0,0.0,0.0,-0.325,-0.3712,-0.3741,-0.3641,-0.3355,0.0,0.0,-0.172,-0.1484,-0.1347,-0.1267,-0.1244,-0.1198,-0.1285,-0.1269,-0.166,-0.2165,-0.1979,-0.1469,-0.104,-0.156,-0.1882,-0.1964,-0.1333,-0.1503,-0.1758,-0.126,-0.0985,-0.0849,-0.0385,-0.0308,-0.0307,-0.0303,-0.0687,-0.1002,-0.1002,0.0077,0.0915,0.0661,-0.0836,0.0,0.0,0.0,0.0,0.0,0.0,-0.2603,-0.3091,-0.3009,-0.3274,-0.4244,-0.4394,-0.4513,-0.481,-0.5261,0.0,0.0,0.0,-0.7663,0.0,0.0,0.0,-0.6973,0.0,-0.5805,-0.5252,-0.5196,-0.5093,-0.5018,-0.4779,-0.4701,-0.4701,-0.4621,-0.4543,-0.4636,-0.5674,-0.6263,-0.6587,-0.6943,-0.659,-0.588,-0.5791,-0.5706,-0.5703,0.3068,0.3231,0.3481,0.3814,0.4266,0.5118,0.6487,0.4628,0.2357,0.031,0.0302,0.0497,0.0502,0.1219,0.1543,0.1565,0.1433,0.1208,0.0699,0.0291,-0.0187,-0.0621,-0.1113,-0.1466,-0.1441,-0.17,-0.2035,-0.2455,0.0,0.0,0.0,0.0,-0.3261,-0.3703,-0.3706,0.0,0.0,0.0,-0.2179,-0.2029,-0.1541,-0.1331,-0.1335,-0.122,-0.1175,-0.1198,-0.1168,-0.125,-0.1207,-0.0386,-0.0077,-0.0075,-0.068,-0.0968,-0.1021,-0.0583,-0.0668,-0.0909,-0.106,-0.0925,-0.0625,-0.0153,0.0077,0.0078,0.0,0.0,0.0,0.0,0.055,0.0929,0.0809,0.0,0.0,0.0,0.0,0.0,0.0,0.0,-0.1098,-0.1826,-0.2046,-0.2466,-0.3304,-0.3518,-0.391,-0.4423,-0.4992,0.0,-0.5837,0.0,0.0,0.0,0.0,-0.6732,-0.6659,0.0,-0.539,-0.5323,-0.5063,-0.491,-0.494,-0.4701,-0.4633,-0.4656,-0.4496,-0.4444,-0.4579,-0.5242,-0.5422,-0.5315,-0.611,-0.5579,-0.4431,-0.4882,-0.4723,-0.4285,0.377,0.388,0.3893,0.4089,0.0,0.5253,0.4999,0.4737,0.3529,0.0434,0.0988,0.165,0.1519,0.1605,0.1487,0.0956,0.0927,0.0797,0.048,-0.0096,-0.0553,-0.0679,-0.0674,-0.0814,-0.1214,-0.1404,-0.1658,0.0,0.0,-0.2758,0.0,0.0,0.0,0.0,0.0,0.0,0.0,-0.2198,-0.1789,-0.1191,-0.1121,-0.1121,-0.1121,-0.1124,-0.1144,-0.1167,-0.1136,-0.1216,-0.1249,-0.0678,-0.0299,-0.0,-0.0075,-0.0595,-0.1021,-0.0583,-0.0297,-0.0227,-0.0909,-0.0077,0.0864,0.0157,0.0235,0.0471,0.0078,0.0,0.0,0.0,0.0079,0.0387,0.1104,0.1131,0.0382,0.0,0.0,0.0,0.0,0.0,-0.0294,0.1473,-0.0681,-0.1943,-0.0767,-0.1815,-0.2523,-0.2411,-0.3991,0.0,0.0,0.0,0.0,-0.553,-0.6248,-0.6339,-0.5754,-0.4855,-0.4759,-0.541,-0.4368,-0.4144,-0.4633,-0.4467,-0.4437,-0.4527,-0.4527,-0.4554,-0.4732,-0.4839,-0.4944,-0.4875,-0.4608,-0.4521,-0.4524,-0.4179,-0.3969,-0.3935,0.0,0.0,0.0,0.0,0.0,0.0,0.0,0.6013,0.5504,0.4199,0.3682,0.293,0.1834,0.1698,0.1575,0.1364,0.1333,0.1505,0.2072,0.1447,0.1392,0.1921,0.1106,0.0491,0.0232,-0.0604,-0.1271,0.0,0.0,0.0,0.0,0.0,0.0,0.0,0.0,-0.166,-0.1357,-0.0957,-0.0574,-0.0281,-0.0356,-0.0492,-0.0616,-0.0696,-0.0855,-0.116,-0.1113,-0.1196,-0.1238,-0.0725,-0.0363,0.0,0.0,-0.0225,-0.0373,-0.0224,-0.0076,-0.0077,-0.0387,0.039,0.1253,0.0848,0.0933,0.0939,0.0848,0.0389,0.0,0.0,0.0,0.0078,0.0459,0.0984,0.098,0.0,0.0,0.0,0.0,0.0,0.0304,0.1228,0.035,-0.0469,-0.0623,-0.1097,-0.1653,0.0,0.0,0.0,0.0,0.0,0.0,-0.5432,0.0,-0.5803,-0.551,-0.5287,-0.4925,-0.4287,-0.3619,-0.3492,-0.3684,-0.4075,-0.413,-0.3899,-0.4119,-0.4219,-0.4169,-0.4344,-0.4378,-0.4251,-0.4072,-0.3984,-0.3984,-0.3807,-0.3739,-0.3673,0.509,0.0,0.5356,0.0,0.6191,0.6187,0.6695,0.67,0.6642,0.6782,0.5735,0.4358,0.2648,0.1989,0.1869,0.2181,0.2246,0.2611,0.347,0.3284,0.3354,0.3811,0.2649,0.0,0.1505,0.0154,-0.0687,-0.0931,-0.1574,0.0,0.0,0.0,0.0,0.0,-0.0916,-0.061,-0.0305,-0.0,0.029,0.0638,0.0289,0.0,-0.0138,-0.0139,-0.0358,-0.0658,-0.062,-0.0624,-0.0575,-0.0353,-0.0,0.0215,-0.0222,-0.015,0.0,0.0,0.0,0.0,0.0,0.0785,0.1799,0.223,0.2094,0.1797,0.1689,0.0853,0.0157,0.0,0.0,0.0,0.0,0.0534,0.098,0.1093,0.0,0.0,0.0,-0.0156,0.0,0.0953,0.0991,0.0815,0.0323,0.0189,-0.0316,0.0,0.0,0.0,0.0,0.0,0.0,0.0,0.0,0.0,-0.53,-0.4971,-0.4157,-0.2893,-0.2543,-0.235,-0.2319,-0.3304,-0.3753,-0.3733,-0.3988,-0.4062,-0.3946,-0.4122,-0.4144,-0.4001,-0.3911,-0.3733,-0.3554,-0.3643,-0.3748,-0.3767,0.6171,0.6145,0.6137,0.6575,0.6619,0.6578,0.6464,0.6548,0.6627,0.6738,0.6637,0.603,0.4268,0.2701,0.2077,0.3218,0.3568,0.3867,0.4193,0.5043,0.5187,0.0,0.0,0.2824,0.2107,0.1007,0.0227,-0.0,0.0,0.0,-0.0438,0.0,-0.0918,-0.0626,-0.0626,0.0078,0.1094,0.0306,0.0596,0.1453,0.0655,0.0364,0.029,0.0495,0.0507,0.0375,0.0485,0.0753,0.0981,0.056,0.0688,0.0815,-0.0645,-0.0583,0.0,0.0,0.0,0.0,0.0,0.1177,0.2904,0.4565,0.4003,0.2974,0.2581,0.1487,0.047,0.0079,0.0,0.0,0.0,0.0,0.0157,0.0549,0.0,0.0,0.0,-0.1461,0.0,0.1243,0.1115,0.1534,0.298,0.2515,0.1844,0.0,0.0,0.0,0.0,0.0,0.0,-0.5072,-0.4648,0.0,-0.4801,-0.3278,-0.2137,-0.1327,-0.0842,-0.055,-0.042,-0.1973,-0.3295,-0.4173,-0.4259,-0.4297,-0.4297,-0.4297,-0.4249,-0.4175,-0.4,-0.3649,-0.3301,-0.3563,-0.3965,-0.4308,0.6123,0.6027,0.6022,0.6503,0.6482,0.6527,0.6692,0.6719,0.6714,0.6635,0.6662,0.644,0.5717,0.4532,0.3613,0.0,0.3501,0.4228,0.0,0.5202,0.5507,0.5937,0.4872,0.4231,0.4214,0.2281,0.1241,0.1318,0.0,0.0,0.0,0.0296,0.0895,0.1528,0.1985,0.2465,0.2971,0.2715,0.2821,0.3198,0.2709,0.2443,0.2394,0.2263,0.2012,0.1848,0.1772,0.1797,0.1856,0.1724,0.1715,0.166,0.069,-0.014,-0.064,-0.0143,0.0,0.0,0.0,0.112,0.2616,0.4124,0.4018,0.3677,0.4139,0.2092,0.0157,0.0,0.0,0.0,0.0,0.0,0.0079,0.0157,0.0077,0.0,-0.1422,0.0,0.0799,0.1112,0.1523,0.1918,0.2264,0.2525,0.0,0.0,0.0,0.0,0.0,0.0,0.0,0.0,-0.3605,0.0,-0.2597,-0.2508,-0.1593,0.008,0.0568,0.0824,0.0757,-0.2233,-0.3823,-0.4177,-0.4263,-0.4212,-0.4034,-0.421,-0.4228,-0.4168,-0.4078,-0.3807,-0.3354,-0.3447,-0.3429,-0.3323,0.6608,0.6313,0.6195,0.6457,0.6448,0.6513,0.6673,0.6665,0.6638,0.6559,0.6556,0.6535,0.6372,0.5913,0.0,0.414,0.4688,0.5296,0.5847,0.5933,0.6128,0.6644,0.5526,0.4974,0.5106,0.3249,0.0,0.2117,0.0706,0.0233,0.0832,0.1427,0.2178,0.2872,0.3355,0.3857,0.4222,0.3908,0.3986,0.4309,0.3914,0.3676,0.3548,0.3489,0.3318,0.3164,0.3057,0.2897,0.2635,0.2622,0.2623,0.2583,0.2057,0.1378,0.0629,0.028,0.0284,0.0504,0.109,0.2112,0.3362,0.4732,0.4643,0.44,0.4912,0.3413,0.1643,0.0861,0.0706,0.0549,0.0079,0.0,0.0,0.0,0.0,0.0,0.0,0.0,0.1065,0.1444,0.0,0.0,0.0,0.2517,0.2261,0.0,0.0,0.0,0.0,0.0,0.0,-0.2838,-0.262,0.0,-0.1505,-0.1217,-0.033,0.1082,0.1548,0.1651,0.1206,-0.1153,-0.2336,-0.2607,-0.2708,-0.2624,-0.2445,-0.2988,-0.3179,-0.3106,-0.3061,-0.3347,-0.3704,-0.2608,-0.2316,-0.2202,0.744,0.7024,0.6672,0.0,0.6529,0.0,0.6453,0.6437,0.6437,0.6437,0.6437,0.6442,0.6358,0.6651,0.6748,0.6461,0.0,0.0,0.0,0.6935,0.695,0.6428,0.5627,0.5146,0.5033,0.4042,0.3134,0.2431,0.18,0.1776,0.2339,0.2543,0.3001,0.3618,0.3859,0.437,0.5004,0.43,0.4412,0.5029,0.4472,0.4087,0.3973,0.4386,0.4458,0.4388,0.4379,0.3966,0.343,0.3424,0.3491,0.3563,0.3422,0.3483,0.3267,0.1185,0.0978,0.1614,0.295,0.3919,0.4896,0.5986,0.5725,0.5092,0.5087,0.5029,0.4392,0.2514,0.2119,0.1725,0.0549,0.0236,0.0156,0.0,0.0,0.0075,0.0438,0.1068,0.1751,0.0,0.0,0.0,0.2512,0.2567,0.2576,0.0,0.0,0.0,0.0,0.0,-0.2415,-0.203,-0.1492,-0.1194,-0.1139,0.0415,0.1361,0.1742,0.2362,0.2108,0.126,0.1029,0.057,-0.0095,-0.0186,-0.0185,0.0,-0.1017,-0.1373,-0.1266,-0.1219,-0.2449,-0.391,-0.1228,-0.0665,-0.095,0.0,0.0,0.7578,0.7042,0.7062,0.6874,0.6439,0.6437,0.6437,0.6437,0.6437,0.6437,0.6442,0.6642,0.6745,0.6748,0.6769,0.6804,0.6798,0.6624,0.6697,0.6857,0.6199,0.5933,0.6233,0.5031,0.3441,0.1568,0.2491,0.2808,0.257,0.3545,0.4195,0.447,0.5187,0.5686,0.5944,0.5789,0.5765,0.5744,0.552,0.5383,0.5352,0.5518,0.5705,0.5828,0.5408,0.5199,0.5012,0.449,0.4255,0.4189,0.4253,0.4193,0.3989,0.3107,0.3177,0.3592,0.3958,0.4864,0.5804,0.6054,0.5798,0.5418,0.5574,0.5162,0.4575,0.4332,0.4053,0.3692,0.3452,0.2585,0.1485,0.0233,0.0,0.1166,0.4417,0.2887,0.2085,0.0,0.3063,0.2429,0.309,0.2837,0.2395,0.0,0.0,0.0,0.1755,0.0554,-0.008,0.0078,0.0244,0.0585,0.1367,0.1375,0.1844,0.2646,0.2809,0.2836,0.2634,0.1327,0.0666,0.0475,0.0,-0.0094,-0.0094,-0.0094,-0.019,-0.0288,-0.0193,-0.029,-0.029,0.0388,0.077,0.1048,0.8435,0.7989,0.7537,0.7238,0.7039,0.6736,0.6437,0.6437,0.6437,0.6437,0.6437,0.6437,0.6437,0.6639,0.6819,0.6761,0.6825,0.6908,0.6938,0.6825,0.6656,0.6718,0.6404,0.622,0.6334,0.5623,0.453,0.2971,0.3317,0.355,0.3622,0.4297,0.4882,0.5319,0.5914,0.6183,0.6338,0.6338,0.6132,0.5918,0.5909,0.5814,0.5745,0.594,0.6196,0.6348,0.6146,0.5899,0.5634,0.5325,0.5118,0.496,0.5087,0.5269,0.546,0.4982,0.4654,0.4501,0.4842,0.5431,0.6064,0.6136,0.6187,0.6113,0.6016,0.5492,0.5145,0.5319,0.4942,0.455,0.4309,0.3826,0.3322,0.294,0.1643,0.1737,0.472,0.3811,0.3513,0.532,0.4049,0.326,0.3603,0.2914,0.2303,0.2078,0.1961,0.0,0.2186,0.1878,0.155,0.1155,0.1202,0.1501,0.2146,0.2438,0.2846,0.338,0.3228,0.326,0.3289,0.2221,0.1842,0.2052,0.1645,0.1637,0.1925,0.1541,0.1446,0.1449,0.1476,0.1577,0.1762,0.2468,0.2758,0.2741,0.892,0.823,0.7534,0.7434,0.7036,0.6637,0.6537,0.6437,0.6437,0.6437,0.6437,0.6437,0.6437,0.6639,0.6793,0.6663,0.6927,0.7059,0.7221,0.7066,0.6811,0.6525,0.6446,0.6299,0.5977,0.5951,0.5619,0.4974,0.4251,0.4199,0.4795,0.4869,0.533,0.6037,0.6193,0.6247,0.6227,0.6227,0.6061,0.58,0.5997,0.5842,0.5631,0.5956,0.6237,0.6437,0.6583,0.6324,0.5892,0.6079,0.605,0.5839,0.583,0.6358,0.6851,0.6483,0.5691,0.4969,0.5579,0.5916,0.6165,0.6392,0.6684,0.6835,0.6378,0.5994,0.5741,0.5921,0.5544,0.5052,0.4632,0.4713,0.5132,0.5848,0.3946,0.2774,0.3858,0.0,0.5219,0.62,0.492,0.3984,0.4146,0.3014,0.2381,0.2594,0.2464,0.252,0.2748,0.2899,0.2664,0.1773,0.1826,0.2041,0.2227,0.3222,0.3736,0.3736,0.3457,0.3396,0.3451,0.3252,0.3282,0.3531,0.3474,0.3744,0.4135,0.325,0.3021,0.3273,0.3283,0.3192,0.3053,0.4205,0.4433,0.4033,0.9497,0.9327,0.913,0.8627,0.8134,0.7637,0.7138,0.6736,0.6437,0.6437,0.6437,0.6437,0.6437,0.6639,0.6793,0.6961,0.7127,0.7143,0.7214,0.6878,0.6795,0.6987,0.6625,0.6485,0.6437,0.6322,0.5806,0.4849,0.5246,0.5183,0.4675,0.5328,0.5755,0.6037,0.6193,0.6186,0.6064,0.6064,0.5962,0.5789,0.5741,0.5737,0.5792,0.5828,0.6164,0.6629,0.6799,0.6865,0.6927,0.6982,0.6937,0.6773,0.6591,0.6499,0.6441,0.6257,0.6212,0.6164,0.6452,0.6789,0.7002,0.7022,0.7003,0.6865,0.6919,0.6458,0.6273,0.6733,0.6512,0.621,0.6173,0.6151,0.5943,0.501,0.5418,0.5854,0.5628,0.0,0.6256,0.721,0.5499,0.4546,0.5167,0.3524,0.2599,0.2959,0.2718,0.2627,0.2989,0.3068,0.3005,0.2892,0.2861,0.2939,0.2939,0.3095,0.3224,0.3224,0.3177,0.3207,0.3217,0.3217,0.3222,0.323,0.3524,0.362,0.372,0.3817,0.3809,0.3899,0.3922,0.3823,0.3815,0.4028,0.4033,0.4033,0.9364,0.9224,0.8968,0.8579,0.8153,0.7818,0.7521,0.709,0.6936,0.7238,0.7036,0.6836,0.6836,0.6939,0.6915,0.666,0.6698,0.6795,0.675,0.6856,0.6929,0.685,0.6579,0.6354,0.6198,0.6291,0.603,0.5426,0.5656,0.5584,0.5225,0.5656,0.5884,0.6037,0.6193,0.622,0.6156,0.6156,0.6064,0.5911,0.5762,0.5698,0.5688,0.5913,0.6147,0.6514,0.6918,0.7076,0.7084,0.7183,0.6903,0.6565,0.6607,0.6542,0.6405,0.6268,0.6321,0.6471,0.6722,0.6939,0.7003,0.7003,0.7081,0.7112,0.7264,0.7073,0.6997,0.7485,0.7248,0.7031,0.688,0.6888,0.6726,0.6322,0.6327,0.0,0.0,0.6729,0.6855,0.8041,0.6251,0.5156,0.5889,0.3973,0.2766,0.314,0.2874,0.2769,0.3142,0.3142,0.307,0.3033,0.3078,0.3147,0.3147,0.3174,0.3188,0.3188,0.3184,0.3199,0.3229,0.3196,0.32,0.323,0.3332,0.3433,0.3636,0.3736,0.381,0.3976,0.4017,0.4007,0.3976,0.4017,0.3934,0.3835,0.9259,0.9044,0.8798,0.8665,0.8268,0.8056,0.8056,0.7566,0.7338,0.7739,0.7313,0.7006,0.7033,0.7012,0.6796,0.6495,0.6369,0.6457,0.6426,0.6715,0.6763,0.6449,0.6277,0.6083,0.5867,0.6099,0.6106,0.603,0.5911,0.5854,0.5854,0.5854,0.5935,0.6088,0.6169,0.619,0.6156,0.6156,0.6084,0.5966,0.5847,0.5755,0.5705,0.6032,0.6219,0.6473,0.6916,0.7015,0.6922,0.7057,0.6767,0.6347,0.6485,0.6463,0.6353,0.6241,0.6259,0.6423,0.6783,0.6865,0.6883,0.6958,0.7093,0.7344,0.7576,0.7636,0.7714,0.8002,0.7866,0.7587,0.7464,0.7365,0.7361,0.7411,0.0,0.0,0.0,0.7332,0.7379,0.8552,0.682,0.5686,0.6237,0.4114,0.2712,0.3045,0.2806,0.2796,0.3026,0.2987,0.2903,0.2781,0.2962,0.3244,0.343,0.3531,0.3632,0.3831,0.3872,0.3876,0.3929,0.3676,0.3483,0.3531,0.3331,0.3332,0.3534,0.3534,0.3603,0.3755,0.381,0.3798,0.3757,0.3812,0.3734,0.3534,0.9531,0.9501,0.9505,0.9489,0.9099,0.8707,0.8707,0.7826,0.7238,0.7238,0.6741,0.6418,0.6426,0.6443,0.6377,0.6566,0.6458,0.6426,0.6569,0.6404,0.6278,0.6056,0.5802,0.5733,0.586,0.5941,0.5947,0.603,0.602,0.6013,0.6013,0.6013,0.6095,0.6237,0.6105,0.5969,0.5833,0.5833,0.5827,0.5817,0.5806,0.5881,0.6,0.6226,0.6303,0.6325,0.6801,0.6934,0.6923,0.6938,0.6915,0.6786,0.6435,0.6314,0.6275,0.5913,0.5901,0.6122,0.674,0.6865,0.6935,0.6997,0.7177,0.7399,0.7592,0.7797,0.804,0.821,0.8236,0.818,0.7945,0.7909,0.7674,0.6992,0.0,0.0,0.6966,0.7626,0.827,0.8703,0.6845,0.5744,0.607,0.3664,0.2316,0.2487,0.2274,0.2256,0.2424,0.2418,0.242,0.2426,0.2773,0.3387,0.4329,0.4531,0.5033,0.5829,0.6016,0.6114,0.6124,0.5125,0.4628,0.4634,0.3632,0.323,0.323,0.323,0.3228,0.3224,0.3229,0.3228,0.3224,0.3229,0.323,0.323,0.912,0.9125,0.9096,0.8991,0.887,0.875,0.866,0.8266,0.8268,0.8754,0.8435,0.8013,0.7774,0.814,0.8048,0.7193,0.7611,0.7977,0.7909,0.7694,0.6991,0.5761,0.5495,0.5479,0.5712,0.5864,0.5947,0.603,0.603,0.5979,0.5891,0.5986,0.601,0.5976,0.6452,0.6655,0.6668,0.7171,0.7461,0.7558,0.6931,0.6706,0.6689,0.6396,0.6318,0.6339,0.6729,0.6788,0.6714,0.6714,0.6572,0.6345,0.6308,0.618,0.6108,0.6074,0.619,0.6373,0.6497,0.6553,0.6676,0.6808,0.7584,0.8328,0.8543,0.9426,1.0123,0.9539,0.9575,0.9555,0.8815,0.8627,0.8475,0.8222,0.0,0.7964,0.7983,0.7981,0.8203,0.8792,0.7486,0.6484,0.6266,0.45,0.3199,0.2573,0.2416,0.2379,0.2464,0.3006,0.3421,0.3588,0.4172,0.4154,0.3429,0.413,0.483,0.5231,0.5829,0.6126,0.6126,0.5729,0.5131,0.4531,0.4332,0.3831,0.323,0.323,0.3209,0.3179,0.3215,0.3207,0.3179,0.3217,0.323,0.323,0.8991,0.885,0.8865,0.902,0.9096,0.9179,0.9357,0.9276,0.9401,0.991,0.9664,0.9334,0.9041,0.9372,0.9288,0.8408,0.8644,0.8838,0.889,0.858,0.7735,0.6244,0.609,0.6089,0.6251,0.6402,0.6576,0.6768,0.6768,0.6708,0.6745,0.6733,0.6629,0.652,0.6957,0.7211,0.7338,0.7843,0.8259,0.8524,0.7838,0.7624,0.7582,0.697,0.666,0.6637,0.6729,0.6714,0.6563,0.6795,0.6718,0.6568,0.6912,0.679,0.6497,0.6608,0.6595,0.6451,0.6356,0.6468,0.6733,0.7217,0.8146,0.9063,0.9648,1.0444,1.0816,1.0255,1.0022,0.9741,0.8987,0.869,0.8636,0.8791,0.8333,0.8108,0.8438,0.8266,0.8252,0.8777,0.7736,0.6868,0.6567,0.5274,0.4051,0.2902,0.3048,0.3203,0.3185,0.3862,0.4295,0.4553,0.5053,0.482,0.3662,0.4744,0.5532,0.5934,0.6528,0.6927,0.683,0.6567,0.6083,0.5376,0.4873,0.4269,0.3662,0.3237,0.3106,0.3172,0.3114,0.3104,0.3173,0.3114,0.3029,0.3029,0.9283,0.9017,0.8983,0.9917,0.9921,1.0102,1.1017,1.074,1.0371,1.0376,0.9994,0.9754,0.9864,0.9622,0.9673,1.0232,0.9345,0.8968,0.9413,0.881,0.8197,0.7668,0.7561,0.7621,0.7783,0.7783,0.8008,0.838,0.838,0.8537,0.8694,0.8403,0.8231,0.7997,0.7595,0.7462,0.7504,0.7504,0.7762,0.8263,0.8383,0.8416,0.8484,0.8014,0.7589,0.7158,0.6732,0.649,0.6416,0.7253,0.7484,0.7633,0.847,0.8169,0.7488,0.7484,0.7066,0.6474,0.6474,0.6698,0.7221,0.8404,0.8759,0.9309,1.083,1.0441,0.9774,0.9778,0.9094,0.8435,0.8296,0.8272,0.8221,0.8065,0.8038,0.8038,0.8041,0.8174,0.8371,0.8674,0.755,0.6785,0.7098,0.5728,0.4429,0.3422,0.4343,0.4818,0.4828,0.4912,0.4961,0.5066,0.5156,0.5265,0.5485,0.6597,0.7637,0.8432,0.8627,0.8825,0.873,0.7873,0.753,0.7325,0.527,0.445,0.4549,0.3354,0.2927,0.313,0.2927,0.2927,0.313,0.2927,0.2826,0.2826,0.9354,0.9736,0.9995,0.9958,1.0225,1.0391,1.0573,1.0745,1.0889,1.1035,1.1211,1.1154,1.076,1.1294,1.144,1.0891,1.1189,1.1348,1.1017,1.0542,1.0093,0.9727,0.8387,0.7758,0.7783,0.7783,0.8008,0.838,0.838,0.8537,0.8699,0.8633,0.8524,0.8373,0.8523,0.8659,0.8861,0.927,0.9647,0.9958,0.9583,0.9492,0.9365,0.8675,0.7977,0.7483,0.7918,0.771,0.7253,0.8093,0.8322,0.8399,0.8627,0.8819,0.8702,0.7853,0.7712,0.759,0.6822,0.6851,0.7085,0.7478,0.8763,1.0062,1.066,1.1187,1.1381,1.0753,1.0037,0.9233,0.848,0.8272,0.8255,0.8208,0.8109,0.8075,0.8187,0.8147,0.815,0.8357,0.81,0.7535,0.6882,0.6396,0.5611,0.4247,0.4194,0.4455,0.4826,0.5523,0.5892,0.5892,0.6858,0.7273,0.7232,0.7193,0.7229,0.7537,0.823,0.8531,0.8531,0.8279,0.7695,0.6986,0.6486,0.5477,0.4165,0.384,0.3228,0.2623,0.2522,0.2522,0.2623,0.2725,0.2724,0.2522,0.9987,1.0258,1.0507,1.0632,1.0722,1.0982,1.1241,1.1499,1.1721,1.1865,1.2192,1.233,1.1958,1.2458,1.2561,1.1837,1.2095,1.2128,1.1562,1.1297,1.102,1.0783,0.957,0.8876,0.8754,0.8665,0.877,0.9145,0.9145,0.9226,0.9377,0.9365,0.9326,0.9187,0.9384,0.9553,0.9774,1.013,1.0442,1.0738,1.0363,1.0293,1.0299,0.9637,0.9,0.8493,0.8888,0.8659,0.8294,0.915,0.9725,0.9958,0.9958,0.9989,0.9857,0.9077,0.8617,0.8163,0.7476,0.7214,0.7139,0.7139,0.8407,1.003,1.0963,1.1244,1.112,1.0565,0.9811,0.9046,0.8381,0.8272,0.8252,0.8187,0.8099,0.8072,0.8167,0.8099,0.7975,0.8069,0.7978,0.7703,0.6953,0.689,0.654,0.5831,0.5067,0.5033,0.5832,0.6401,0.6666,0.6821,0.7648,0.8061,0.7952,0.7849,0.7775,0.7537,0.823,0.8528,0.8531,0.8792,0.8521,0.7714,0.7412,0.6505,0.5187,0.4645,0.413,0.3627,0.3823,0.3924,0.4024,0.4325,0.4124,0.3823,1.09,1.075,1.084,1.1618,1.1618,1.178,1.2534,1.2729,1.2735,1.2705,1.2985,1.3253,1.3398,1.3287,1.3157,1.3064,1.2272,1.1682,1.1521,1.1348,1.1252,1.1109,1.0772,1.0536,1.041,1.0056,0.9997,1.0218,1.0218,1.0293,1.0582,1.0504,1.0399,1.0394,1.0278,1.0237,1.0333,1.0304,1.0516,1.0812,1.0812,1.0974,1.1172,1.0644,1.0302,1.0035,0.9817,0.9592,0.9459,1.0461,1.1284,1.195,1.1926,1.1462,1.0838,1.0735,0.9732,0.8547,0.8377,0.7812,0.7228,0.7228,0.7953,0.9272,1.1268,1.0626,0.9559,0.9559,0.894,0.8401,0.8275,0.8248,0.8204,0.8062,0.8038,0.8038,0.8038,0.8038,0.7942,0.7646,0.7646,0.7543,0.7238,0.7138,0.7241,0.7547,0.6439,0.6239,0.7547,0.7341,0.7296,0.7524,0.7731,0.7932,0.7932,0.8649,0.878,0.8038,0.8627,0.8825,0.8928,0.9481,0.956,0.9056,0.8028,0.7412,0.71,0.5969,0.5529,0.5732,0.5922,0.6218,0.642,0.6716,0.6515,0.5917,1.1409,1.1994,1.2323,1.1965,1.2323,1.2697,1.2735,1.2892,1.2952,1.2735,1.3231,1.3547,1.3162,1.3625,1.3724,1.3313,1.2619,1.2448,1.2881,1.1946,1.1408,1.177,1.1018,1.0692,1.1038,1.0291,0.9997,1.0218,1.0218,1.0438,1.0962,1.0977,1.1175,1.1605,1.1188,1.1075,1.1163,1.0955,1.0797,1.0812,1.0962,1.1389,1.1967,1.1794,1.175,1.1654,1.1848,1.1461,1.0947,1.1496,1.1891,1.2192,1.1986,1.2034,1.2067,1.1117,1.0726,1.0297,0.8831,0.8337,0.8193,0.8193,0.7867,0.7812,0.9,0.9204,0.9095,0.9095,0.8604,0.8126,0.8096,0.8089,0.8079,0.8045,0.8038,0.8038,0.8038,0.8038,0.7942,0.7646,0.7646,0.7543,0.7238,0.7042,0.7042,0.7238,0.6637,0.6537,0.7238,0.7042,0.7054,0.7578,0.7885,0.8085,0.8282,0.8681,0.8763,0.8627,0.9126,0.9426,0.943,0.9367,0.9387,0.9486,0.8984,0.8475,0.7756,0.7524,0.6913,0.6213,0.631,0.631,0.6412,0.6714,0.6614,0.631,1.2542,1.2945,1.3088,1.2609,1.2857,1.3031,1.2747,1.2831,1.2874,1.2723,1.3176,1.3385,1.3241,1.369,1.3853,1.3502,1.2691,1.2448,1.3052,1.2369,1.2054,1.2181,1.156,1.1221,1.1338,1.0789,1.0513,1.0663,1.0663,1.0663,1.0812,1.1111,1.1335,1.1403,1.1481,1.15,1.1545,1.1401,1.1353,1.1409,1.1484,1.1878,1.2529,1.2667,1.2648,1.273,1.317,1.3028,1.2706,1.2871,1.3048,1.3144,1.2756,1.2822,1.2851,1.203,1.1571,1.1063,1.0024,0.9569,0.938,0.9203,0.891,0.8567,0.8492,0.8371,0.8337,0.8337,0.8118,0.8038,0.8038,0.8038,0.8038,0.8038,0.8038,0.8038,0.8038,0.8038,0.7942,0.7646,0.7444,0.7241,0.6836,0.6739,0.6742,0.6942,0.6839,0.6936,0.7335,0.7341,0.754,0.7733,0.8035,0.8237,0.8432,0.8928,0.9225,0.9225,0.9426,0.9628,0.9628,0.9727,0.9727,0.9628,0.943,0.9023,0.8414,0.8414,0.8014,0.7614,0.7813,0.7915,0.8014,0.8411,0.8209,0.771,1.3459,1.3447,1.3363,1.3097,1.3091,1.3031,1.2747,1.2747,1.2759,1.2711,1.3003,1.3193,1.3398,1.3601,1.3735,1.3561,1.2739,1.2357,1.2875,1.279,1.2608,1.2474,1.2089,1.1823,1.1684,1.135,1.1186,1.1111,1.1111,1.0962,1.0738,1.1186,1.1335,1.1111,1.1558,1.1855,1.1855,1.1706,1.1781,1.1929,1.1855,1.2179,1.2779,1.3066,1.3292,1.3493,1.3951,1.4068,1.3997,1.3977,1.3971,1.3893,1.3561,1.3313,1.3222,1.279,1.2135,1.1392,1.1126,1.0765,1.0395,1.0215,1.0159,1.0007,0.9055,0.8436,0.8106,0.7914,0.8139,0.8237,0.8038,0.8038,0.8038,0.8038,0.8038,0.8038,0.8038,0.8038,0.7942,0.7743,0.7441,0.7135,0.6736,0.6637,0.6739,0.6945,0.7238,0.7437,0.763,0.7836,0.8038,0.8137,0.8333,0.8531,0.863,0.9229,0.9628,0.9628,0.9628,0.9628,0.9723,1.0117,1.0117,0.9727,0.9727,0.9426,0.9122,0.9122,0.9122,0.9122,0.9525,0.9727,0.9821,1.0216,1.001,0.9414,1.3224,1.3175,1.3091,1.2813,1.2964,1.3031,1.2747,1.291,1.2976,1.2735,1.317,1.3399,1.3417,1.36,1.3704,1.3711,1.3247,1.3137,1.3561,1.3045,1.2778,1.3002,1.2267,1.2062,1.2349,1.1904,1.1484,1.1111,1.1111,1.126,1.1558,1.1632,1.1929,1.2378,1.2224,1.2298,1.2452,1.1929,1.1706,1.1706,1.1335,1.1652,1.2312,1.2994,1.3666,1.4184,1.4275,1.3977,1.3483,1.3476,1.3476,1.3476,1.3392,1.3137,1.279,1.2705,1.2527,1.2087,1.1545,1.1266,1.1074,1.0702,1.0352,1.0084,1.0393,1.0286,0.9979,0.9303,0.9271,0.9118,0.8137,0.8038,0.8038,0.8038,0.8038,0.8038,0.8038,0.8237,0.8237,0.7942,0.7939,0.7839,0.7839,0.7739,0.7839,0.7839,0.7839,0.7939,0.7939,0.7939,0.8237,0.8726,0.8726,0.8928,0.943,0.9529,0.9628,0.9628,0.9628,0.9821,1.0314,1.0117,1.0117,1.0314,1.0019,1.0019,1.0212,1.0212,1.0212,1.0212,1.0216,1.0314,1.0314,1.0413,1.031,1.0212,1.3586,1.3441,1.326,1.2988,1.3043,1.3031,1.2747,1.2813,1.2843,1.2723,1.3065,1.3274,1.3241,1.3307,1.3455,1.37,1.3487,1.3376,1.37,1.3474,1.3153,1.3085,1.2845,1.2724,1.273,1.2629,1.242,1.2017,1.1857,1.1781,1.1706,1.1929,1.2077,1.2077,1.2224,1.2378,1.2459,1.2329,1.225,1.2119,1.2043,1.2176,1.2459,1.3154,1.3669,1.3988,1.4455,1.4398,1.4153,1.4153,1.3977,1.3724,1.3476,1.3052,1.2649,1.2545,1.2394,1.2178,1.1991,1.2053,1.2075,1.1931,1.1775,1.1867,1.2152,1.2135,1.1596,1.0323,1.0162,0.9903,0.8627,0.8531,0.8428,0.7637,0.7839,0.8038,0.8038,0.8233,0.8333,0.8233,0.8233,0.8134,0.7836,0.7939,0.7939,0.7836,0.8233,0.8432,0.8432,0.8733,0.9031,0.9229,0.9225,0.9327,0.9628,0.9628,0.9628,0.9628,0.9628,0.9727,0.992,0.9821,0.9821,0.992,0.9821,0.9821,0.992,0.992,0.992,0.992,0.992,0.992,0.992,1.0117,1.0216,1.0216]}]]